[[{"header":{"parameterUnit":"m.s-1","parameterCategory":1,"la1":30.6,"la2":29.2853,"lo1":-89.7004,"lo2":-87.6739,"dy":0.0162,"dx":0.0183,"nx":112,"ny":82,"refTime":"2023-07-21T12:00:00:Z","depth":0,"parameterNumber":2,"parameterNumberName":"U-component_of_WINDS"},"data":[0.0,0.0,0.0,0.0,0.0,0.0,0.0,0.0,0.0,0.0,0.0,0.0,0.0,0.0,0.0,0.0,0.0,0.0,0.0,0.0,0.0,0.0,0.0,0.0,0.0,0.0,0.0,0.0,0.0,0.0,0.0,0.0,0.0,0.0,0.0,0.0,0.0,0.0,0.0,0.0,0.0,0.0,0.0,0.0,0.0,0.0,0.0,0.0,0.0,0.0,0.0,0.0,0.0,0.0,0.0,0.0,0.0,0.0,0.0,0.0,0.0,0.0,0.0,0.0,0.0,0.0,0.0,0.0,0.0,0.0,0.0,0.0,0.0,0.0,0.0,0.0,0.0,0.0,0.0,0.0,0.0,0.0,0.0,0.0,0.0,0.0,0.0,0.0,0.0,0.0,-3.304,-3.2771,-3.3672,-3.4288,-3.4288,-3.4288,-3.3403,-3.1349,0.0,0.0,0.0,0.0,0.0,0.0,0.0,0.0,0.0,0.0,0.0,0.0,0.0,0.0,0.0,0.0,0.0,0.0,0.0,0.0,0.0,0.0,0.0,0.0,0.0,0.0,0.0,0.0,0.0,0.0,0.0,0.0,0.0,0.0,0.0,0.0,0.0,0.0,0.0,0.0,0.0,0.0,0.0,0.0,0.0,0.0,0.0,0.0,0.0,0.0,0.0,0.0,0.0,0.0,0.0,0.0,0.0,0.0,0.0,0.0,0.0,0.0,0.0,0.0,0.0,0.0,0.0,0.0,0.0,0.0,0.0,0.0,0.0,0.0,0.0,0.0,0.0,0.0,0.0,0.0,0.0,0.0,0.0,0.0,0.0,0.0,0.0,0.0,0.0,0.0,0.0,0.0,0.0,0.0,0.0,0.0,0.0,0.0,0.0,0.0,0.0,0.0,0.0,0.0,-3.3072,-3.4731,-3.4541,-3.4288,-3.4288,-3.4288,-3.3403,-3.1349,0.0,0.0,0.0,0.0,0.0,0.0,0.0,0.0,0.0,0.0,0.0,0.0,0.0,0.0,0.0,0.0,0.0,0.0,0.0,0.0,0.0,0.0,0.0,0.0,0.0,0.0,0.0,0.0,0.0,0.0,0.0,0.0,0.0,0.0,0.0,0.0,0.0,0.0,0.0,0.0,0.0,0.0,0.0,0.0,0.0,0.0,0.0,0.0,0.0,0.0,0.0,0.0,0.0,0.0,0.0,0.0,0.0,0.0,0.0,0.0,0.0,0.0,0.0,0.0,0.0,0.0,0.0,0.0,0.0,0.0,0.0,0.0,0.0,0.0,0.0,0.0,0.0,0.0,0.0,0.0,0.0,0.0,0.0,0.0,0.0,0.0,0.0,0.0,0.0,0.0,0.0,0.0,0.0,0.0,0.0,0.0,0.0,0.0,0.0,0.0,0.0,0.0,0.0,-3.2819,-3.377,-3.4867,-3.4895,-3.4463,-3.3459,-3.3756,-3.3099,-3.0951,-3.0826,0.0,0.0,0.0,0.0,0.0,0.0,0.0,0.0,0.0,0.0,0.0,0.0,0.0,0.0,0.0,0.0,0.0,0.0,0.0,0.0,0.0,0.0,0.0,0.0,0.0,0.0,0.0,0.0,0.0,0.0,0.0,0.0,0.0,0.0,0.0,0.0,0.0,0.0,0.0,0.0,0.0,0.0,0.0,0.0,0.0,0.0,0.0,0.0,0.0,0.0,0.0,0.0,0.0,0.0,0.0,0.0,0.0,0.0,0.0,0.0,0.0,0.0,0.0,0.0,0.0,0.0,0.0,0.0,0.0,0.0,0.0,0.0,0.0,0.0,0.0,0.0,0.0,0.0,0.0,0.0,0.0,0.0,0.0,0.0,0.0,0.0,0.0,0.0,0.0,0.0,0.0,0.0,0.0,0.0,0.0,0.0,0.0,0.0,0.0,0.0,0.0,0.0,-3.3643,-3.416,-3.4596,-3.4872,-3.441,-3.2832,-3.3177,-3.2662,-3.0629,-3.0387,0.0,0.0,0.0,0.0,0.0,0.0,0.0,0.0,0.0,0.0,0.0,0.0,0.0,0.0,0.0,0.0,0.0,0.0,0.0,0.0,0.0,0.0,0.0,0.0,0.0,0.0,0.0,0.0,0.0,0.0,0.0,0.0,0.0,0.0,0.0,0.0,0.0,0.0,0.0,0.0,0.0,0.0,0.0,0.0,0.0,0.0,0.0,0.0,0.0,0.0,0.0,0.0,0.0,0.0,0.0,0.0,0.0,0.0,0.0,0.0,0.0,0.0,0.0,0.0,0.0,0.0,0.0,0.0,0.0,0.0,0.0,0.0,0.0,0.0,0.0,0.0,0.0,0.0,0.0,0.0,0.0,0.0,0.0,0.0,0.0,0.0,0.0,0.0,0.0,0.0,0.0,0.0,0.0,0.0,0.0,0.0,0.0,0.0,0.0,0.0,0.0,0.0,-3.26,-3.3482,-3.4713,-3.4379,-3.3666,-3.2922,-3.2907,-3.2242,-3.0613,-3.0164,0.0,0.0,0.0,0.0,0.0,0.0,0.0,0.0,0.0,0.0,0.0,0.0,0.0,0.0,0.0,0.0,0.0,0.0,0.0,0.0,0.0,0.0,0.0,0.0,0.0,0.0,0.0,0.0,0.0,0.0,0.0,0.0,0.0,0.0,0.0,0.0,0.0,0.0,0.0,0.0,0.0,0.0,0.0,0.0,0.0,0.0,0.0,0.0,0.0,0.0,0.0,0.0,0.0,0.0,0.0,0.0,0.0,0.0,0.0,0.0,0.0,0.0,0.0,0.0,0.0,0.0,0.0,0.0,0.0,0.0,0.0,0.0,0.0,0.0,0.0,0.0,0.0,0.0,0.0,0.0,0.0,0.0,0.0,0.0,0.0,0.0,0.0,0.0,0.0,0.0,0.0,0.0,0.0,0.0,0.0,0.0,0.0,0.0,0.0,0.0,0.0,0.0,-3.2387,-3.3622,0.0,-3.4287,-3.394,-3.2572,-3.2467,-3.1802,-3.019,0.0,0.0,0.0,0.0,0.0,0.0,0.0,0.0,0.0,0.0,0.0,0.0,0.0,0.0,0.0,0.0,0.0,0.0,0.0,0.0,0.0,0.0,0.0,0.0,0.0,0.0,0.0,0.0,0.0,0.0,0.0,0.0,0.0,0.0,0.0,0.0,0.0,0.0,0.0,0.0,0.0,0.0,0.0,0.0,0.0,0.0,0.0,0.0,0.0,0.0,0.0,0.0,0.0,0.0,0.0,0.0,0.0,0.0,0.0,0.0,0.0,0.0,0.0,0.0,0.0,0.0,0.0,0.0,0.0,0.0,0.0,0.0,0.0,0.0,0.0,0.0,0.0,0.0,0.0,0.0,0.0,0.0,0.0,0.0,0.0,0.0,0.0,0.0,0.0,0.0,0.0,0.0,0.0,0.0,0.0,0.0,0.0,0.0,0.0,0.0,0.0,0.0,-2.9952,-3.205,-3.3406,0.0,-3.4178,-3.4092,-3.2429,-3.2134,-3.1353,-2.9793,0.0,0.0,0.0,0.0,0.0,0.0,0.0,0.0,0.0,0.0,0.0,0.0,0.0,0.0,0.0,0.0,0.0,0.0,0.0,0.0,0.0,0.0,0.0,0.0,0.0,0.0,0.0,0.0,0.0,0.0,0.0,0.0,0.0,0.0,0.0,0.0,0.0,0.0,0.0,0.0,0.0,0.0,0.0,0.0,0.0,0.0,0.0,0.0,0.0,0.0,0.0,0.0,0.0,0.0,0.0,0.0,0.0,0.0,0.0,0.0,0.0,0.0,0.0,0.0,0.0,0.0,0.0,0.0,0.0,0.0,0.0,0.0,0.0,0.0,0.0,0.0,0.0,0.0,0.0,0.0,0.0,0.0,0.0,0.0,0.0,0.0,0.0,0.0,0.0,0.0,0.0,0.0,0.0,0.0,0.0,0.0,0.0,0.0,0.0,0.0,0.0,0.0,-2.958,-3.1308,-3.2745,-3.3383,-3.4008,-3.3877,-3.2614,-3.1888,-3.0878,0.0,0.0,0.0,0.0,0.0,0.0,0.0,0.0,0.0,0.0,0.0,0.0,0.0,0.0,0.0,0.0,0.0,0.0,0.0,0.0,0.0,0.0,0.0,0.0,0.0,0.0,0.0,0.0,0.0,0.0,0.0,0.0,0.0,0.0,0.0,0.0,0.0,0.0,0.0,0.0,0.0,0.0,0.0,0.0,0.0,0.0,0.0,0.0,0.0,0.0,0.0,0.0,0.0,0.0,0.0,0.0,0.0,0.0,0.0,0.0,0.0,0.0,0.0,0.0,0.0,0.0,0.0,0.0,0.0,0.0,0.0,0.0,0.0,0.0,0.0,0.0,0.0,0.0,0.0,0.0,0.0,0.0,0.0,0.0,0.0,0.0,0.0,0.0,0.0,0.0,0.0,0.0,0.0,0.0,0.0,0.0,0.0,0.0,0.0,0.0,0.0,0.0,0.0,-2.8884,-3.0248,-3.1395,-3.2019,-3.2687,-3.273,-3.1888,-3.1221,-3.0411,-2.9381,0.0,0.0,0.0,0.0,0.0,0.0,0.0,0.0,0.0,0.0,0.0,0.0,0.0,0.0,0.0,0.0,0.0,0.0,0.0,0.0,0.0,0.0,0.0,0.0,0.0,0.0,0.0,0.0,0.0,0.0,0.0,0.0,0.0,0.0,0.0,0.0,0.0,0.0,0.0,0.0,0.0,0.0,0.0,0.0,0.0,0.0,0.0,0.0,0.0,0.0,0.0,0.0,0.0,0.0,0.0,0.0,0.0,0.0,0.0,0.0,0.0,0.0,0.0,0.0,0.0,0.0,0.0,0.0,0.0,0.0,0.0,0.0,0.0,0.0,0.0,0.0,0.0,0.0,0.0,0.0,0.0,0.0,0.0,0.0,0.0,0.0,0.0,0.0,0.0,0.0,0.0,0.0,0.0,0.0,0.0,0.0,0.0,0.0,0.0,0.0,0.0,0.0,-2.8594,-2.9784,-3.0814,-3.1453,-3.2121,-3.2251,-3.1584,-3.0945,-3.0148,-2.9145,0.0,0.0,0.0,0.0,0.0,0.0,0.0,0.0,0.0,0.0,0.0,0.0,0.0,0.0,0.0,0.0,0.0,0.0,0.0,0.0,0.0,0.0,0.0,0.0,0.0,0.0,0.0,0.0,0.0,0.0,0.0,0.0,0.0,0.0,0.0,0.0,0.0,0.0,0.0,0.0,0.0,0.0,0.0,0.0,0.0,0.0,0.0,0.0,0.0,0.0,0.0,0.0,0.0,0.0,0.0,0.0,0.0,0.0,0.0,0.0,0.0,0.0,0.0,0.0,0.0,0.0,0.0,0.0,0.0,0.0,0.0,0.0,0.0,0.0,0.0,0.0,0.0,0.0,0.0,0.0,0.0,0.0,0.0,0.0,0.0,0.0,0.0,0.0,0.0,0.0,0.0,0.0,0.0,0.0,0.0,0.0,0.0,0.0,0.0,0.0,0.0,0.0,-2.8594,-2.9682,-3.0669,-3.1366,-3.1975,-3.2092,-3.1482,-3.0858,-2.9972,-2.8753,0.0,0.0,0.0,0.0,0.0,0.0,0.0,0.0,0.0,0.0,0.0,0.0,0.0,0.0,0.0,0.0,0.0,0.0,0.0,0.0,0.0,0.0,0.0,0.0,0.0,0.0,0.0,0.0,0.0,0.0,0.0,0.0,0.0,0.0,0.0,0.0,0.0,0.0,0.0,0.0,0.0,0.0,0.0,0.0,0.0,0.0,0.0,0.0,0.0,0.0,0.0,0.0,0.0,0.0,0.0,0.0,0.0,0.0,0.0,0.0,-3.493,0.0,0.0,0.0,0.0,0.0,0.0,0.0,0.0,0.0,0.0,0.0,0.0,0.0,0.0,0.0,0.0,0.0,0.0,0.0,0.0,0.0,0.0,0.0,0.0,0.0,0.0,0.0,0.0,0.0,0.0,0.0,0.0,0.0,0.0,0.0,0.0,0.0,0.0,0.0,0.0,0.0,-2.8536,-2.8913,-2.9523,-3.0655,-3.0901,-3.093,-3.0785,-3.019,-2.9493,-2.8739,-2.8086,0.0,0.0,0.0,0.0,0.0,0.0,0.0,0.0,0.0,0.0,0.0,0.0,0.0,0.0,0.0,0.0,0.0,0.0,0.0,0.0,0.0,0.0,0.0,0.0,0.0,0.0,0.0,0.0,0.0,0.0,0.0,0.0,0.0,0.0,0.0,0.0,0.0,0.0,0.0,0.0,0.0,0.0,0.0,0.0,0.0,0.0,0.0,0.0,0.0,0.0,0.0,0.0,0.0,0.0,0.0,0.0,0.0,0.0,0.0,0.0,-3.4593,0.0,0.0,0.0,0.0,0.0,0.0,0.0,0.0,0.0,0.0,0.0,0.0,0.0,0.0,0.0,0.0,0.0,0.0,0.0,0.0,0.0,0.0,0.0,0.0,0.0,0.0,0.0,0.0,0.0,0.0,0.0,0.0,0.0,0.0,0.0,0.0,0.0,0.0,0.0,0.0,-2.8521,-2.8681,-2.9174,-3.0437,-3.0568,-3.0568,-3.0568,-2.9987,-2.9348,-2.8724,-2.8086,0.0,0.0,0.0,0.0,0.0,0.0,0.0,0.0,0.0,0.0,0.0,0.0,0.0,0.0,0.0,0.0,0.0,0.0,0.0,0.0,0.0,0.0,0.0,0.0,0.0,0.0,0.0,0.0,0.0,0.0,0.0,0.0,0.0,0.0,0.0,0.0,0.0,0.0,0.0,0.0,0.0,0.0,0.0,0.0,0.0,0.0,0.0,0.0,0.0,0.0,0.0,0.0,0.0,-3.8048,-3.8145,-3.7935,-3.8506,-3.8321,-3.7349,-3.5475,-3.4556,-3.4429,0.0,0.0,0.0,0.0,0.0,0.0,0.0,0.0,0.0,0.0,0.0,0.0,0.0,0.0,0.0,0.0,0.0,0.0,0.0,0.0,0.0,0.0,0.0,0.0,0.0,-3.006,-2.9901,0.0,0.0,0.0,0.0,0.0,0.0,0.0,0.0,0.0,0.0,0.0,0.0,-2.8536,-2.8768,-2.929,-3.0451,-3.0568,-3.0568,-3.0568,-2.9987,-2.9348,-2.8724,-2.8086,-2.7447,0.0,0.0,0.0,0.0,0.0,0.0,0.0,0.0,0.0,0.0,0.0,0.0,0.0,0.0,0.0,0.0,0.0,0.0,0.0,0.0,0.0,0.0,0.0,0.0,0.0,0.0,0.0,0.0,0.0,0.0,0.0,0.0,-3.9488,-3.8719,0.0,0.0,0.0,0.0,0.0,0.0,0.0,0.0,0.0,0.0,0.0,0.0,0.0,-3.815,-3.8768,-3.9091,-3.9312,-3.943,-3.9222,-3.9132,-3.908,-3.9179,-3.9126,-3.8941,-3.7518,0.0,-3.5597,-3.3989,0.0,0.0,0.0,0.0,0.0,0.0,0.0,0.0,0.0,0.0,0.0,0.0,0.0,0.0,0.0,0.0,0.0,0.0,0.0,0.0,0.0,0.0,-3.0673,-3.0585,-3.0511,-3.0511,0.0,-2.9639,-2.8594,-2.7868,-2.7668,0.0,0.0,0.0,0.0,0.0,0.0,0.0,-2.8579,-2.916,-2.9784,-3.0495,-3.0568,-3.0568,-3.0568,-2.9987,-2.9348,-2.8724,-2.8086,-2.7447,-2.6808,-2.6779,0.0,0.0,0.0,0.0,0.0,0.0,0.0,0.0,0.0,0.0,0.0,0.0,0.0,0.0,0.0,0.0,0.0,0.0,0.0,0.0,0.0,0.0,0.0,0.0,0.0,0.0,0.0,0.0,0.0,-3.9167,-3.7866,-3.7391,-3.8496,-3.9348,0.0,0.0,0.0,0.0,0.0,0.0,0.0,0.0,0.0,-3.7922,-3.8684,-3.9142,-3.9277,-3.9406,-3.9737,-4.0154,-4.0392,-4.0481,-4.0498,-4.0912,-4.0663,-3.9852,-3.8859,-3.7969,-3.7083,-3.5155,-3.4254,-3.408,0.0,0.0,0.0,0.0,-3.3543,-3.3387,-3.2772,-3.2446,0.0,0.0,0.0,0.0,0.0,0.0,0.0,0.0,0.0,0.0,0.0,0.0,0.0,-3.0568,-3.0568,-3.0568,-3.0568,-3.0132,-2.9552,0.0,-2.8797,-2.8477,-2.7476,0.0,0.0,0.0,0.0,-2.8086,-2.9087,-2.945,-2.9871,-3.051,-3.0568,-3.0568,-3.0568,-2.9668,-2.8971,-2.8695,-2.7752,-2.7084,-2.6794,-2.6779,-2.6779,0.0,0.0,0.0,0.0,0.0,0.0,0.0,0.0,0.0,0.0,0.0,0.0,0.0,0.0,0.0,0.0,0.0,0.0,0.0,0.0,0.0,0.0,0.0,0.0,0.0,0.0,0.0,0.0,-3.7966,-3.7154,-3.6713,-3.8093,-3.8916,0.0,0.0,0.0,0.0,0.0,0.0,-3.8329,-3.8469,-3.8734,-3.9091,-3.9828,-4.0254,-4.0382,-4.0564,-4.1028,-4.1773,-4.2104,-4.2253,-4.2253,-4.2435,-4.1939,-4.0878,-3.9967,-3.9077,-3.8145,-3.6118,-3.4816,-3.4098,-3.4194,-3.4046,-3.3682,-3.3558,-3.3412,-3.3208,-3.2593,-3.2191,-3.1943,-3.188,0.0,-3.0196,-3.0834,0.0,0.0,0.0,0.0,-3.0409,-3.0969,-3.0866,-3.0568,-3.0568,-3.0568,-3.0568,-3.0568,-3.0568,-3.0379,0.0,-2.9624,-2.9276,-2.8173,0.0,0.0,0.0,0.0,-2.855,-2.9508,-2.9769,-3.0045,-3.0524,-3.0568,-3.051,-3.035,-2.9319,-2.8608,-2.8448,-2.7389,-2.6779,-2.6779,-2.6779,-2.6779,-2.6779,0.0,0.0,0.0,0.0,0.0,0.0,0.0,0.0,0.0,0.0,0.0,0.0,0.0,0.0,0.0,0.0,0.0,0.0,0.0,0.0,0.0,0.0,0.0,0.0,0.0,0.0,0.0,0.0,0.0,-3.7148,-3.8708,0.0,0.0,0.0,0.0,-3.9289,-3.8916,-3.8704,-3.8689,-3.9312,-3.9895,-4.0287,-4.0945,-4.1972,-4.3396,-4.4075,-4.4787,-4.5516,-4.4837,-4.4522,-4.4473,-4.3131,-4.2485,-4.2336,-4.0928,-3.9634,-3.834,-3.6178,-3.5529,-3.5841,-3.4753,-3.4638,-3.5021,-3.4492,-3.4158,-3.3968,-3.3365,-3.2933,-3.2533,-3.198,-3.091,-2.9869,-3.014,-3.0068,0.0,0.0,-3.0382,-3.0598,-3.0628,-3.0642,-3.0568,-3.0568,-3.0568,-3.0568,-3.0568,-3.0568,-3.0379,0.0,-2.9624,-2.9421,-2.8753,0.0,-2.8637,-2.8637,-2.9145,-2.9552,-2.961,-3.0147,-3.0539,-3.0568,-3.0568,-3.0321,-2.9726,-2.9058,-2.8419,-2.781,-2.7157,-2.6779,-2.6779,-2.6779,-2.6779,-2.6779,-2.6779,0.0,0.0,0.0,0.0,0.0,0.0,0.0,0.0,0.0,0.0,0.0,0.0,0.0,0.0,0.0,0.0,0.0,0.0,0.0,0.0,0.0,0.0,0.0,0.0,0.0,0.0,0.0,0.0,-3.9128,-3.9312,0.0,-3.9554,-3.9146,-3.8903,-3.8888,-3.8837,-3.911,-3.9768,-4.0467,-4.1305,-4.2419,-4.3148,-4.3992,-4.5019,-4.5268,-4.5533,-4.5798,-4.5516,-4.54,-4.5367,-4.4373,-4.3661,-4.3181,-4.2187,-4.1,-3.9622,-3.8034,-3.6476,-3.5045,-3.4577,-3.4319,-3.4059,-3.3879,-3.3713,-3.3561,-3.3315,-3.3004,-3.2664,-3.1868,-3.0991,-3.0338,-3.0456,-3.0397,-3.0338,-3.0456,-3.0804,-3.109,-3.0684,-3.0872,-3.1076,-3.0669,-3.0568,-3.0568,-3.0568,-3.0568,-3.051,-3.0277,-3.0234,-3.0031,-2.9392,-2.929,-2.929,-2.929,-2.9479,-2.9769,-3.019,-3.0437,-3.0568,-3.0568,-3.0568,-3.0321,-2.9682,-2.9044,-2.8405,-2.7766,-2.7128,-2.6779,-2.6779,-2.6779,-2.6779,-2.6779,-2.6779,-2.6712,0.0,0.0,0.0,0.0,0.0,0.0,0.0,0.0,0.0,0.0,0.0,0.0,0.0,0.0,0.0,0.0,0.0,0.0,0.0,0.0,0.0,0.0,0.0,0.0,0.0,0.0,-3.9904,-4.0587,-4.0403,-4.0346,-4.0754,-4.0037,-3.9627,-3.9764,-3.9643,-4.0018,-4.1077,-4.1527,-4.2351,-4.3535,-4.3955,-4.4549,-4.5417,-4.5417,-4.5533,-4.5798,-4.5533,-4.5417,-4.5384,-4.4406,-4.3694,-4.3214,-4.2469,-4.151,-4.034,-3.9017,-3.7328,-3.5468,-3.5018,-3.4562,-3.4173,-3.4173,-3.4047,-3.3794,-3.3731,-3.3407,-3.2873,-3.2077,-3.1569,-3.1192,-3.0959,-3.0887,-3.0887,-3.0887,-3.1032,-3.1105,-3.0684,-3.0887,-3.1105,-3.0684,-3.0568,-3.0568,-3.0568,-3.0568,-3.0568,-3.0568,-3.0568,-3.0437,-3.0016,-2.9943,-2.9943,-2.9943,-2.9943,-3.0103,-3.051,-3.0568,-3.0568,-3.0568,-3.0568,-3.0234,-2.9377,-2.9116,-2.8536,-2.7476,-2.7215,-2.7012,-2.6794,-2.6779,-2.6779,-2.6779,-2.6712,-2.6525,-2.6283,0.0,0.0,0.0,0.0,0.0,0.0,0.0,0.0,0.0,0.0,0.0,0.0,0.0,0.0,0.0,0.0,0.0,0.0,0.0,0.0,0.0,0.0,0.0,-4.1074,-4.0694,-4.0656,-4.1363,-4.2021,-4.258,-4.2859,-4.2092,-4.1655,-4.1887,-4.1401,-4.152,-4.2435,-4.2615,-4.2945,-4.3635,-4.33,-4.3723,-4.4771,-4.4738,-4.5086,-4.5814,-4.5086,-4.4721,-4.4671,-4.323,-4.2585,-4.2551,-4.1806,-4.1116,-4.0448,-3.9109,-3.8137,-3.7369,-3.6054,-3.5504,-3.5504,-3.5504,-3.5228,-3.4868,-3.4534,-3.3993,-3.3369,-3.2745,-3.2513,-3.2367,-3.1714,-3.1526,-3.1526,-3.1496,-3.1076,-3.0626,-3.0582,-3.0582,-3.0597,-3.0568,-3.0568,-3.0568,-3.0568,-3.0568,-3.0568,-3.0568,-3.0568,-3.0568,-3.0568,-3.0597,-3.0597,-3.0568,-3.0597,0.0,-3.0568,-3.0568,-3.0568,-3.0568,-3.0568,-3.006,-2.8797,-2.9247,-2.8797,-2.691,-2.736,-2.7418,-2.6808,-2.6779,-2.6779,-2.6779,-2.6472,-2.6283,-2.6283,0.0,0.0,0.0,0.0,0.0,0.0,0.0,0.0,0.0,0.0,0.0,0.0,0.0,0.0,0.0,0.0,0.0,0.0,0.0,0.0,0.0,0.0,-3.9905,-4.0588,-4.149,-4.231,-4.2857,-4.3071,-4.3145,-4.2926,-4.2422,-4.1981,-4.1661,-4.1719,-4.2059,-4.2541,-4.3132,-4.3718,-4.4447,-4.4638,-4.5339,-4.6635,-4.5887,-4.5864,-4.6576,-4.5847,-4.5483,-4.5467,-4.4522,-4.4092,-4.4042,-4.333,-4.2643,-4.1889,-4.0538,-3.9295,-3.8061,-3.6185,-3.5504,-3.5504,-3.5359,-3.5148,-3.4868,-3.4683,-3.4193,-3.3609,-3.3318,-3.2571,-3.1758,-3.1584,-3.1526,-3.1424,-3.0959,-3.1395,-3.1758,-3.0814,-3.0916,-3.1134,-3.0684,-3.0568,-3.0568,-3.0568,-3.0568,-3.0568,-3.0568,-3.0568,-3.0568,-3.0568,-3.0945,-3.1105,-3.064,-3.0959,0.0,-3.064,-3.0568,-3.0568,-3.0568,-3.0568,-3.006,-2.8797,-2.884,-2.8318,-2.6881,-2.6953,-2.6968,-2.6794,-2.6779,-2.6779,-2.6779,-2.6472,-2.6283,0.0,0.0,0.0,0.0,0.0,0.0,0.0,0.0,0.0,0.0,0.0,0.0,0.0,0.0,0.0,0.0,0.0,0.0,0.0,0.0,0.0,0.0,-4.0878,-4.106,-4.2163,-4.2719,-4.3515,-4.4811,-4.459,-4.4251,-4.4047,-4.3598,-4.301,-4.2264,-4.2559,-4.2877,-4.3071,-4.3218,-4.3587,-4.4334,-4.4091,-4.4594,-4.5864,-4.5058,-4.5065,-4.5791,-4.5173,-4.4887,-4.487,-4.444,-4.4241,0.0,-4.3479,-4.2775,-4.2035,-4.0337,-3.9013,0.0,0.0,0.0,0.0,0.0,-3.4898,-3.4817,-3.4631,-3.4301,-3.3937,-3.3609,-3.3137,-3.2687,-3.2411,-3.2338,-3.2208,-3.1569,-3.1729,-3.1859,-3.0843,-3.0843,-3.1032,-3.0655,-3.0568,-3.0568,-3.0568,-3.0568,-3.0568,-3.0568,-3.0568,0.0,-3.0568,-3.1105,-3.1395,-3.1032,-3.1293,-3.1293,-3.0655,-3.0568,-3.0568,-3.0568,-3.0568,-3.0176,-2.916,-2.9073,0.0,0.0,0.0,-2.7055,-2.6794,-2.6779,0.0,0.0,0.0,-2.6244,-2.6136,0.0,0.0,0.0,-2.4808,-2.4337,0.0,0.0,0.0,0.0,0.0,0.0,0.0,0.0,0.0,0.0,0.0,0.0,0.0,0.0,0.0,0.0,-4.2661,-4.3407,-4.4939,-4.4309,-4.4505,-4.6587,-4.6082,-4.5554,-4.5473,-4.4883,-4.4092,-4.3084,-4.3277,-4.3472,-4.3493,0.0,0.0,0.0,0.0,-4.2944,-4.3994,-4.3565,-4.3702,-4.4295,-4.3927,-4.3635,-4.3552,-4.3552,-4.3568,-4.3519,-4.2874,-4.2292,-4.1541,-3.9566,-3.8183,-3.7294,-3.6536,-3.5831,-3.5082,-3.4831,-3.4698,-3.4631,-3.4481,0.0,0.0,-3.3674,-3.3804,-3.408,-3.3441,-3.3253,-3.3122,-3.2483,-3.1917,-3.1366,-3.0742,-3.0568,-3.0568,-3.0568,-3.0568,-3.0568,-3.0568,-3.0568,-3.0597,-3.0669,-3.0684,-3.0727,-3.0872,-3.1308,-3.1613,-3.1526,-3.1642,-3.1482,-3.0771,-3.0684,-3.0655,-3.0582,0.0,0.0,-2.9682,-2.9566,-2.9,-2.7755,-2.7665,-2.7374,-2.6808,-2.6779,-2.6779,-2.6779,-2.6472,-2.6136,-2.5839,-2.5522,-2.4948,-2.4176,-2.4452,-2.3989,0.0,0.0,0.0,0.0,0.0,0.0,0.0,0.0,0.0,0.0,0.0,0.0,0.0,0.0,0.0,-4.281,-4.3331,-4.4305,-4.6442,-4.6412,-4.6048,-4.5875,-4.6238,-4.604,-4.4812,-4.4098,-4.3438,-4.2726,-4.2285,-4.2002,-4.1992,-4.2968,-4.3585,-4.369,-4.4309,-4.4989,-4.5763,-4.5179,-4.4947,-4.5078,0.0,0.0,-4.3235,-4.3492,-4.3432,-4.3218,-4.3343,-4.3006,-4.2202,-4.0713,-3.8708,-3.6537,-3.5748,-3.5148,-3.4765,-3.4698,-3.4631,-3.4481,-3.4414,-3.4414,-3.4312,-3.3674,-3.3209,-3.2759,-3.2092,-3.1903,0.0,-3.1119,-3.1221,-3.1366,-3.0742,-3.0568,-3.0568,-3.0568,-3.0568,-3.0568,-3.0568,-3.0568,-3.0727,-3.1235,-3.1337,-3.1671,-3.273,-3.2585,-3.2135,-3.1598,-3.2411,-3.2672,-3.1482,-3.1337,-3.1134,-3.0626,-3.0568,-3.0321,-2.9682,-2.9145,-2.8536,-2.7781,-2.7244,-2.691,-2.6779,-2.6779,-2.6779,-2.6779,-2.6472,-2.596,-2.5356,-2.5021,-2.4292,-2.3198,-2.359,-2.3471,0.0,0.0,0.0,0.0,0.0,0.0,0.0,0.0,0.0,0.0,0.0,-3.9986,0.0,0.0,-4.2565,-4.3898,-4.4583,-4.5551,-4.73,-4.749,-4.7298,-4.6811,-4.674,-4.6261,-4.5151,-4.4449,-4.3937,-4.3686,-4.3336,-4.3311,-4.369,-4.4022,-4.4211,-4.4196,-4.4351,-4.4824,-4.5492,-4.4683,-4.4431,-4.4739,-4.4036,-4.3379,-4.2851,-4.3035,-4.3035,-4.2802,-4.2283,-4.164,-4.0825,-3.8885,-3.7141,-3.5623,-3.5133,-3.4883,-3.475,-3.4616,-3.4481,-3.437,-3.4051,-3.3935,-3.3833,-3.3195,-3.2774,-3.2454,-3.2121,-3.2019,-3.1888,-3.1235,-3.1279,-3.1366,-3.0742,-3.0568,-3.0568,-3.0568,-3.0814,-3.1047,-3.1047,-3.1047,-3.1235,-3.1888,-3.1743,-3.183,-3.2832,-3.2991,-3.289,-3.2542,-3.305,-3.3122,-3.215,-3.1729,-3.1395,-3.1076,-3.0756,-3.0437,-3.0132,-2.9523,-2.8753,-2.7781,-2.7432,-2.7113,-2.6794,-2.6779,-2.6779,-2.6779,-2.6659,-2.6082,-2.5175,-2.5007,-2.4366,-2.3319,-2.354,-2.3417,0.0,0.0,0.0,0.0,0.0,0.0,0.0,0.0,-3.8998,-3.9193,-3.9948,-4.0874,-4.1872,-4.2888,-4.3943,-4.4935,-4.5933,-4.6914,-4.7783,-4.8132,-4.8114,-4.7711,-4.7013,-4.6292,-4.5456,-4.4783,-4.443,-4.4464,-4.4389,-4.4685,-4.5555,-4.5033,-4.478,-4.4922,-4.4401,-4.4385,-4.4922,-4.4177,-4.3965,-4.4205,-4.338,-4.286,-4.2522,-4.2585,-4.2504,-4.2248,-4.0764,-3.9697,-3.8827,-3.6669,-3.5429,-3.4868,-3.475,-3.475,-3.4802,-3.4481,-3.4414,-3.4341,-3.3819,-3.3572,-3.3369,-3.273,-3.2425,-3.2295,-3.2179,-3.2135,-3.2034,-3.1482,-3.1337,-3.1221,-3.0713,-3.0568,-3.0568,-3.0568,-3.0959,-3.1337,-3.1337,-3.1438,-3.1671,-3.2222,-3.2092,-3.2063,-3.2614,-3.3224,-3.3616,-3.3485,-3.3572,-3.3427,-3.2788,-3.2121,-3.1656,-3.1526,-3.0945,-3.0524,-3.0393,-2.9914,-2.9131,-2.7984,-2.7911,-2.7625,-2.6996,-2.6913,-2.6802,-2.6619,-2.6619,-2.6046,-2.4894,-2.4951,-2.4498,-2.354,-2.354,-2.3411,-4.0504,-4.0194,-3.984,-3.9819,-4.0052,-4.0111,0.0,0.0,-4.0023,-3.9398,-4.0366,-4.1332,-4.148,-4.3267,-4.4953,-4.576,-4.7106,-4.8068,-4.8083,-4.8601,-4.8439,-4.6944,-4.6648,-4.6086,-4.4744,-4.4015,-4.3641,-4.3702,-4.324,-4.3469,-4.4764,-4.4749,-4.5017,-4.5665,-4.5618,-4.5618,-4.5697,-4.5833,-4.5357,-4.4221,-4.4411,-4.3735,-4.2174,-4.2459,-4.212,-4.1148,-3.9585,-3.8262,-3.7189,-3.628,-3.5479,-3.4868,-3.475,-3.4698,-3.4698,-3.4481,-3.4414,-3.4399,-3.4327,-3.3935,-3.3369,-3.273,-3.2121,-3.1526,-3.0959,-3.0785,-3.0785,-3.0698,-3.0684,-3.0669,-3.0597,-3.0568,-3.0568,-3.0568,-3.0626,-3.0684,-3.0684,-3.1119,-3.154,-3.1613,-3.2498,-3.3267,-3.3354,-3.3877,-3.4124,-3.3558,-3.3949,-3.408,-3.3441,-3.2803,-3.2179,-3.1584,-3.0945,-3.035,-2.9784,-2.9668,-2.9319,-2.8623,-2.8579,-2.8281,-2.7539,-2.7423,-2.6868,-2.5925,-2.6027,-2.5307,-2.38,-2.4021,-2.3739,-2.3107,-2.3107,-2.3296,-4.0194,-3.9621,-3.9277,0.0,-4.028,-4.033,-3.9995,-4.0166,-4.0328,-4.0034,-4.0806,-4.1778,-4.2689,-4.402,-4.5198,0.0,-4.6898,-4.7579,-4.7368,-4.7193,-4.6775,-4.6099,-4.558,-4.5074,-4.4541,-4.4282,-4.4348,-4.4804,-4.4245,-4.4464,-4.5855,-4.5555,-4.5491,-4.5807,-4.5807,-4.5807,-4.5807,-4.5492,-4.4865,-4.3913,-4.3703,-4.2985,-4.1785,-4.1964,-4.1166,-3.9707,-3.8623,-3.7311,-3.5919,-3.5649,-3.5234,-3.475,-3.4616,-3.4631,-3.4698,-3.4481,-3.4414,-3.4356,-3.3993,-3.3688,-3.3296,-3.2266,-3.1743,-3.1409,-3.0756,-3.0568,-3.0568,-3.0568,-3.0568,-3.0568,-3.0568,-3.0843,-3.1119,-3.1119,-3.1424,-3.1801,-3.2179,-3.2179,-3.2324,-3.305,-3.334,-3.3587,-3.3949,-3.424,-3.4312,-3.4051,-3.424,-3.4312,-3.4051,-3.3456,-3.2672,-3.1627,-3.0945,-3.0466,-3.0205,-3.0176,-2.99,-2.9261,-2.9232,-2.8757,-2.7633,-2.7561,-2.6903,-2.5657,-2.598,-2.5502,-2.4064,-2.4372,-2.433,-2.4014,-2.3948,-2.4157,-3.985,0.0,0.0,-4.0475,-4.0923,-4.1014,-4.0933,-4.1086,-4.1198,-4.1002,-4.1551,-4.2343,-4.3349,-4.419,-4.4883,-4.5386,-4.6237,-4.683,-4.6776,-4.6273,-4.577,-4.5546,-4.4803,-4.4214,-4.3962,-4.4347,-4.4732,-4.515,-4.4872,-4.5317,-4.6724,-4.6171,-4.5886,-4.6076,-4.5918,-4.5807,-4.5807,-4.5286,-4.467,-4.399,-4.3311,-4.26,-4.1873,-4.1494,-4.0332,-3.8512,-3.7818,-3.655,-3.4986,-3.4986,-3.4868,-3.4631,-3.4481,-3.4481,-3.4631,-3.4481,-3.4414,-3.4356,-3.3891,-3.3499,-3.305,-3.2106,-3.1555,-3.1177,-3.0713,-3.0568,-3.0611,-3.0785,-3.0843,-3.0872,-3.1061,-3.1453,-3.1801,-3.1801,-3.2164,-3.2643,-3.3108,-3.2977,-3.2991,-3.3746,-3.3804,-3.3819,-3.4109,-3.4298,-3.4414,-3.4414,-3.4414,-3.4414,-3.4414,-3.3862,-3.3035,-3.1917,-3.1221,-3.0843,-3.0843,-3.0684,-3.0305,-2.9664,-2.9576,-2.899,-2.7657,-2.7448,-2.6796,-2.5476,-2.5919,-2.5556,-2.428,-2.4722,-2.4825,-2.4735,-2.4587,-2.4807,0.0,0.0,-3.9858,-4.1466,-4.2277,-4.2613,-4.2243,-4.2748,-4.3068,-4.2306,-4.2679,-4.3067,-4.2678,-4.3243,-4.3965,-4.462,-4.5368,-4.6082,-4.6707,-4.6686,-4.6286,-4.551,-4.4751,-4.3833,0.0,-4.375,-4.4346,-4.3828,-4.4354,-4.5317,-4.6724,-4.6171,-4.6108,-4.674,-4.6155,-4.5807,-4.5807,-4.5792,-4.5412,-4.467,-4.4006,-4.3327,-4.2616,-4.1257,-3.9682,-3.8019,-3.7299,-3.6058,-3.4414,-3.4414,-3.4414,-3.4414,-3.4414,-3.4414,-3.4414,-3.4414,-3.4414,-3.4414,-3.4385,-3.3572,-3.2542,-3.2498,-3.1627,-3.0597,-3.0582,-3.0568,-3.0698,-3.1322,-3.1482,-3.1642,-3.228,-3.2483,-3.2483,-3.2483,-3.2513,-3.2527,-3.2542,-3.3021,-3.3267,-3.2687,-3.3558,-3.4196,-3.3601,-3.4008,-3.4414,-3.4414,-3.4414,-3.4414,-3.4414,-3.3862,-3.3224,-3.2556,-3.1888,-3.1482,-3.1482,-3.093,-3.0312,-2.9656,-2.9594,-2.9002,-2.7551,-2.7152,-2.6426,-2.5306,-2.5602,-2.514,-2.3989,-2.4603,-2.476,-2.4518,-2.4518,-2.4807,-3.9932,0.0,-4.0645,-4.2146,-4.2664,-4.2817,-4.2959,-4.3222,-4.3031,-4.1737,-4.1663,-4.1653,-4.1297,-4.1823,-4.266,-4.3715,-4.5035,-4.5976,-4.6135,-4.6031,-4.5372,-4.3786,-4.3614,0.0,0.0,0.0,0.0,-4.3664,-4.3911,-4.4638,-4.606,-4.5934,-4.5918,-4.6139,-4.5934,-4.5807,-4.5807,-4.5807,-4.5444,-4.4701,-4.3579,-4.2663,-4.1904,-4.019,-3.8889,-3.7922,-3.6436,-3.5259,-3.4414,-3.4414,-3.4414,-3.4414,-3.4414,-3.4414,-3.4414,-3.4414,-3.4414,-3.4414,-3.4414,-3.4138,-3.3703,-3.3282,-3.2571,-3.1859,-3.1859,-3.1264,-3.0713,-3.1337,-3.1221,-3.0945,-3.1163,-3.1874,-3.2513,-3.2513,-3.2846,-3.3267,-3.3688,-3.3616,-3.3529,-3.3746,-3.4124,-3.4356,-3.4124,-3.4283,-3.4414,-3.4414,-3.4414,-3.4414,-3.4414,-3.3862,-3.3383,-3.3166,-3.2571,-3.1801,-3.0899,-3.0671,-3.0045,-2.8917,-2.8889,-2.8441,-2.7537,-2.7217,-2.6489,-2.5167,-2.5487,-2.5264,-2.4536,-2.4944,-2.52,-2.5269,-2.5117,-2.5131,-4.0378,-4.1087,-4.1362,-4.2846,-4.3225,-4.3293,-4.355,-4.3406,-4.2837,-4.1573,-4.1097,-4.0706,-4.0169,-4.0463,-4.1112,-4.219,-4.3236,-4.4063,-4.4492,-4.4457,-4.389,-4.2712,-4.2739,-4.2301,0.0,0.0,0.0,-4.3253,-4.4022,-4.4733,-4.5381,-4.5665,-4.5807,-4.5807,-4.5807,-4.5807,-4.5807,-4.5555,-4.4938,-4.3974,-4.3105,-4.2232,-4.1292,-3.9819,-3.8642,-3.7602,-3.6186,-3.5141,-3.4414,-3.4414,-3.4414,-3.4414,-3.4414,-3.4414,-3.4414,-3.4414,-3.4414,-3.4414,-3.4414,-3.4269,-3.4008,-3.3601,-3.3035,-3.2513,-3.2513,-3.1932,-3.1351,-3.1758,-3.1584,-3.1322,-3.154,-3.2222,-3.2919,-3.3151,-3.334,-3.3645,-3.4283,-3.392,-3.3659,-3.4283,-3.4414,-3.4414,-3.4414,-3.4414,-3.4414,-3.4414,-3.4414,-3.4414,-3.4414,-3.3835,-3.336,-3.336,-3.2535,-3.165,-3.0765,-3.0256,-2.9567,-2.8517,-2.8171,-2.7802,-2.7162,-2.6905,-2.6332,-2.5394,-2.5436,-2.5296,-2.4957,-2.5214,-2.5382,-2.5453,-2.5382,-2.5312,-4.1033,-4.1819,-4.2092,-4.3615,-4.4005,-4.3986,-4.3949,-4.3355,-4.2556,-4.1758,-4.0926,-4.013,0.0,0.0,-3.9526,-4.0167,-4.0323,-4.0804,-4.2244,-4.2311,-4.2262,0.0,0.0,0.0,0.0,0.0,0.0,-4.2604,0.0,-4.5396,-4.4796,-4.5428,-4.5807,-4.5807,-4.5807,-4.5792,-4.576,-4.5033,-4.399,-4.2695,-4.2695,-4.2014,-4.0721,-4.0008,-3.8779,-3.7139,-3.6387,-3.548,-3.4414,-3.4414,-3.4414,-3.4414,-3.4414,-3.4414,-3.4414,-3.4414,-3.4414,-3.4414,-3.4414,-3.4022,-3.3514,-3.3514,-3.3079,-3.2571,-3.2614,-3.2571,-3.2527,-3.2556,-3.2542,-3.2658,-3.3267,-3.3441,-3.3616,-3.4225,-3.3935,-3.3674,-3.4283,-3.3935,-3.3703,-3.4298,-3.4414,-3.4414,-3.4414,-3.4414,-3.4414,-3.4414,-3.4414,-3.4414,-3.4414,-3.3742,-3.3227,-3.3213,-3.1997,-3.1162,-3.1064,-2.9847,-2.8892,-2.8278,-2.754,-2.6973,-2.6533,-2.6119,-2.591,-2.591,-2.5535,-2.5312,-2.5312,-2.5312,-2.5312,-2.5312,-2.5312,-2.5312,-4.218,-4.2988,-4.3485,-4.3893,-4.4005,-4.3838,-4.3243,-4.2946,-4.2242,-4.0304,-3.9748,-3.9157,0.0,0.0,0.0,-4.0167,-4.1768,0.0,-4.3304,-4.4199,0.0,-4.2884,0.0,-4.3207,-4.1726,-4.2238,0.0,0.0,-4.3184,-4.4085,-4.546,-4.5713,-4.5807,-4.5807,-4.5807,-4.5555,-4.5001,-4.4322,-4.3548,-4.2695,-4.2695,-4.1747,-4.0044,-3.8949,-3.7743,-3.6372,-3.5316,-3.4695,-3.4414,-3.4414,-3.4414,-3.4414,-3.4414,-3.4414,-3.4414,-3.4414,-3.4414,-3.4414,-3.4414,-3.4312,-3.4167,-3.4167,-3.3746,-3.3311,-3.379,-3.3267,-3.2614,-3.3093,-3.289,-3.2556,-3.2716,-3.3108,-3.3514,-3.3674,-3.3949,-3.4211,-3.4385,-3.4283,-3.4225,-3.4385,-3.4414,-3.4414,-3.4414,-3.4414,-3.4414,-3.4414,-3.4414,-3.4414,-3.4414,-3.4196,-3.3879,-3.3297,-3.2863,-3.2022,-3.0474,-2.9689,-2.8747,-2.7646,-2.7018,-2.6589,-2.627,-2.605,-2.584,-2.5688,-2.5453,-2.5312,-2.5312,-2.5312,-2.5312,-2.5312,-2.5312,-2.5312,-4.3528,-4.4228,-4.4562,-4.4562,-4.4023,-4.3324,-4.2736,-4.202,-4.1038,-3.9425,-3.8779,0.0,0.0,0.0,0.0,0.0,0.0,0.0,-4.238,-4.3115,-4.3432,0.0,-4.3584,0.0,-4.2195,-4.2728,-4.3033,0.0,-4.3248,-4.4101,-4.5254,-4.5634,-4.5807,-4.5807,-4.5507,-4.4843,-4.3832,-4.3453,-4.2779,-4.1868,-4.1868,-4.0867,-3.9025,-3.8099,-3.6977,-3.5781,0.0,-3.4414,-3.4414,-3.4414,-3.4414,-3.4414,-3.4414,-3.4414,-3.4414,-3.4414,-3.4414,-3.4414,-3.4414,-3.424,-3.4051,-3.4312,-3.4167,-3.3949,-3.4312,-3.3906,-3.3369,-3.3441,-3.3209,-3.2933,-3.2933,-3.3195,-3.3543,-3.3819,-3.3935,-3.408,-3.4356,-3.4196,-3.408,-3.4356,-3.4414,-3.4414,-3.4414,-3.4414,-3.4414,-3.4414,-3.4113,-3.3894,-3.3894,-3.3604,-3.3241,-3.2791,-3.2074,-3.1235,-3.007,-2.9369,-2.866,-2.7682,-2.6989,-2.6437,-2.6213,-2.591,-2.5688,-2.5606,-2.5382,-2.5312,-2.5312,-2.5312,-2.5312,-2.5312,-2.5312,-2.5312,-4.4761,-4.5212,-4.5138,-4.5138,-4.3878,-4.2556,-4.2151,-4.084,-3.9509,-3.8797,0.0,-3.7413,-3.7048,-3.7058,-3.7374,-3.8047,0.0,-3.8442,-4.0592,-4.0869,-4.1402,-4.2848,-4.3347,-4.3346,-4.2746,-4.2695,-4.2695,-4.2695,-4.3864,-4.4606,-4.4717,-4.5412,-4.5776,-4.5665,-4.4875,-4.388,-4.2611,-4.2516,-4.1883,-4.0646,-4.0638,-3.9657,-3.7946,-3.7322,-3.6394,-3.5198,0.0,0.0,-3.4414,-3.4414,-3.4414,-3.4414,-3.4414,-3.4414,-3.4414,-3.4414,-3.4414,-3.4414,-3.4414,-3.3993,-3.3572,-3.4196,-3.4356,-3.4312,-3.4385,-3.4414,-3.4298,-3.3746,-3.3601,-3.3601,-3.3601,-3.3601,-3.3732,-3.4283,-3.3993,-3.3746,-3.4298,-3.3978,-3.3746,-3.4312,-3.4414,-3.4346,-3.4264,-3.4264,-3.4196,-3.4128,-3.352,-3.3073,-3.3073,-3.2506,-3.2074,-3.1928,-3.0709,-2.9908,-2.9691,-2.9012,-2.845,-2.7961,-2.7123,-2.6473,-2.6144,-2.5758,-2.5606,-2.5535,-2.5382,-2.5312,-2.5312,-2.5312,-2.5312,-2.5312,-2.5312,-2.5312,-4.4885,-4.4667,-4.4233,-4.4233,-4.3069,-4.1685,-4.0924,-4.0017,0.0,0.0,-3.7612,-3.7413,-3.7048,-3.7496,0.0,-3.8538,0.0,0.0,0.0,0.0,-4.1659,0.0,0.0,0.0,0.0,0.0,0.0,0.0,0.0,-4.4101,-4.4685,-4.5412,-4.5539,-4.4922,-4.369,-4.2695,-4.1984,-4.1386,-4.0754,-4.0045,-3.9512,-3.8644,-3.7292,-3.6692,-3.5701,-3.4574,-3.4457,0.0,-3.4414,-3.4414,-3.4414,-3.4414,-3.4414,-3.4414,-3.4414,-3.4414,-3.4414,-3.4414,-3.4414,-3.3993,-3.3572,-3.4196,-3.4051,-3.3732,-3.4254,-3.4414,-3.4385,-3.4283,-3.424,-3.424,-3.424,-3.424,-3.4283,-3.4385,-3.4327,-3.4283,-3.4385,-3.4327,-3.4283,-3.4385,-3.4414,-3.4182,-3.352,-3.3437,-3.3227,-3.2591,-3.2376,-3.229,-3.229,-3.2146,-3.1856,-3.118,-3.0908,-3.0213,-2.8975,-2.8499,-2.7863,-2.7026,-2.6494,-2.6079,-2.5688,-2.5618,-2.5535,-2.5382,-2.5312,-2.5312,-2.5312,-2.5312,-2.5312,-2.5312,-2.5312,-2.5312,-4.4487,-4.4545,-4.4509,-4.4114,-4.2484,-4.0854,-4.0255,0.0,0.0,0.0,-3.7243,-3.7167,-3.7009,0.0,0.0,0.0,0.0,0.0,0.0,0.0,0.0,0.0,0.0,0.0,0.0,0.0,0.0,0.0,0.0,-4.3469,-4.4164,-4.4527,-4.4401,-4.369,-4.3026,-4.2218,-4.1264,-4.0954,-4.0171,-3.8953,-3.8652,-3.7729,-3.6226,-3.5903,-3.5268,-3.4414,-3.4414,0.0,-3.4414,-3.4414,-3.4414,-3.4414,-3.4414,-3.4414,-3.4414,-3.4414,-3.4414,-3.4414,-3.4414,-3.3993,-3.3572,-3.4196,-3.3978,-3.3587,-3.4225,-3.4414,-3.4414,-3.4414,-3.4414,-3.4414,-3.4414,-3.4414,-3.4414,-3.4414,-3.4414,-3.4414,-3.4414,-3.4414,-3.4414,-3.4414,-3.4045,-3.3659,-3.3297,-3.2861,-3.2506,-3.2146,-3.1709,-3.1489,-3.1489,-3.1145,-3.0921,-3.0895,-3.0274,-2.9567,-2.8875,-2.8349,-2.7713,-2.6878,-2.6618,-2.6205,-2.5618,-2.5535,-2.5382,-2.5312,-2.5312,-2.5312,-2.5312,-2.5312,-2.5312,-2.5312,-2.5312,-2.5312,-4.4222,-4.47,-4.4988,-4.416,-4.2181,-4.0306,-3.9875,-3.8552,0.0,0.0,-3.6987,-3.6987,-3.6987,0.0,0.0,0.0,0.0,0.0,0.0,0.0,0.0,0.0,0.0,0.0,0.0,0.0,0.0,0.0,0.0,0.0,-4.3674,-4.3579,-4.3179,-4.2543,-4.2401,-4.17,-4.0455,-4.0286,-3.9449,-3.7952,-3.7671,-3.6796,-3.5427,-3.5227,-3.4893,-3.4414,-3.4414,0.0,0.0,-3.4414,-3.4414,-3.4414,-3.4414,-3.4414,-3.4414,-3.4414,-3.4414,-3.4414,-3.4414,-3.3993,-3.3558,-3.4051,-3.3877,-3.3587,-3.4225,-3.4414,-3.4414,-3.4414,-3.4414,-3.4414,-3.4414,-3.4414,-3.4414,-3.4414,-3.4414,-3.4414,-3.4414,-3.4414,-3.4414,-3.4414,-3.3742,-3.3143,-3.3003,-3.2362,-3.1783,-3.1649,-3.1057,-3.0683,-3.0683,-3.0139,-2.9998,-3.062,-2.9719,-2.9063,-2.8863,-2.8349,-2.7713,-2.6937,-2.6599,-2.6198,-2.5548,-2.5382,-2.5312,-2.5312,-2.5312,-2.5312,-2.5312,-2.5312,-2.5312,-2.5312,-2.5312,-2.5312,-4.4642,-4.5064,-4.4924,-4.4114,-4.2176,-4.0292,-3.9546,0.0,0.0,-3.7027,-3.6987,-3.6987,-3.6987,-3.6987,-3.7154,0.0,0.0,0.0,0.0,0.0,0.0,0.0,0.0,0.0,0.0,0.0,0.0,0.0,0.0,0.0,-4.3627,-4.3121,-4.2522,-4.1914,-4.127,-4.0431,-3.925,-3.8624,-3.8026,-3.7361,-3.6168,-3.5543,-3.5412,-3.4762,-3.4472,-3.4414,-3.4414,0.0,0.0,-3.4414,-3.4414,-3.4414,-3.4414,-3.4414,-3.4414,-3.4414,-3.4414,-3.4414,-3.4414,-3.3993,-3.3485,-3.3529,-3.3514,-3.3587,-3.4225,-3.4414,-3.4414,-3.4414,-3.4414,-3.4414,-3.4414,-3.4414,-3.4414,-3.4414,-3.4414,-3.4414,-3.4414,-3.4414,-3.4414,-3.4414,-3.3742,-3.3003,-3.229,-3.1563,-3.0758,-3.0075,-2.9934,-2.9934,-2.9934,-2.9856,-2.9869,-2.9856,-2.9819,-2.9426,-2.8761,-2.8188,-2.7409,-2.6505,-2.5946,-2.5584,-2.5312,-2.5312,-2.5312,-2.5312,-2.5312,-2.5312,-2.5312,-2.5312,-2.5312,-2.5312,-2.5312,-2.5312,-4.2271,-4.3009,-4.3518,-4.2728,-4.113,-3.9691,-3.9375,0.0,-3.6987,-3.6987,-3.6987,-3.6987,-3.6987,-3.6987,-3.7036,0.0,0.0,0.0,0.0,0.0,0.0,0.0,0.0,0.0,0.0,0.0,0.0,0.0,0.0,0.0,-4.1377,-4.106,-4.0649,-4.0044,-3.9831,-3.9161,-3.7946,-3.7664,-3.7057,-3.6127,-3.5604,-3.5169,-3.4777,-3.453,-3.4414,-3.4414,-3.4414,0.0,0.0,-3.4414,-3.4414,-3.4414,-3.4414,-3.4414,-3.4414,-3.4414,-3.4414,-3.4414,-3.4414,-3.424,-3.3978,-3.3601,-3.347,-3.3441,-3.3311,-3.3543,-3.3848,-3.3848,-3.4124,-3.4414,-3.4414,-3.4414,-3.4414,-3.4414,-3.4414,-3.4414,-3.4414,-3.4414,-3.4264,-3.3742,-3.3087,-3.229,-3.1489,-3.0771,-3.0139,-2.9856,-2.9689,-2.9611,-2.9792,-2.9689,-2.9599,-2.9599,-2.9299,-2.8936,-2.8636,-2.804,-2.7275,-2.6445,-2.6201,-2.5863,-2.5324,-2.5312,-2.5312,-2.5312,-2.5312,-2.5312,-2.5312,-2.5312,-2.5312,-2.5312,-2.5312,-2.5312,-4.0832,-4.1797,-4.2622,-4.1797,-4.0621,-3.9533,0.0,0.0,-3.6987,-3.6987,-3.6987,-3.6987,-3.6987,-3.6908,-3.6811,0.0,0.0,0.0,0.0,0.0,0.0,0.0,0.0,0.0,0.0,0.0,0.0,0.0,0.0,0.0,0.0,-3.917,-3.8754,-3.831,-3.8417,-3.7967,-3.695,-3.6758,-3.6226,-3.5427,-3.5169,-3.4849,-3.4414,-3.4414,-3.4414,-3.4414,0.0,0.0,0.0,-3.4414,-3.4414,-3.4414,-3.4414,-3.4414,-3.4414,-3.4414,-3.4414,-3.4414,-3.4414,-3.4283,-3.4037,-3.3398,-3.305,-3.2774,-3.2135,-3.2658,-3.3514,-3.3703,-3.4066,-3.4414,-3.4414,-3.4414,-3.4414,-3.4414,-3.4414,-3.4414,-3.4414,-3.4196,-3.3894,-3.3297,-3.242,-3.1563,-3.097,-3.0279,-2.9792,-2.9792,-2.9611,-2.9611,-2.9792,-2.9599,-2.9419,-2.9419,-2.8929,-2.8694,-2.8771,-2.7914,-2.7201,-2.6664,-2.6263,-2.584,-2.5324,-2.5312,-2.5312,-2.5312,-2.5312,-2.5312,-2.5312,-2.5312,-2.5312,-2.5312,-2.5312,-2.5312,-4.1183,-4.2184,-4.2622,-4.1797,-4.1025,-4.0059,0.0,0.0,-3.6987,-3.6987,-3.6987,-3.6987,-3.6987,-3.6748,-3.6402,-3.6139,0.0,0.0,0.0,0.0,0.0,0.0,0.0,0.0,0.0,0.0,0.0,0.0,0.0,0.0,0.0,-3.7775,-3.7159,-3.7228,-3.7243,-3.6965,-3.6315,-3.5691,-3.5441,-3.5427,-3.4719,-3.4428,-3.4414,-3.4414,-3.4414,0.0,0.0,0.0,0.0,-3.4414,-3.4414,-3.4414,-3.4414,-3.4414,-3.4414,-3.4414,-3.4414,-3.4414,-3.4414,-3.4008,-3.3369,-3.273,-3.2077,-3.1424,-3.0785,-3.1946,-3.3601,-3.4225,-3.4414,-3.4414,-3.4414,-3.4414,-3.4414,-3.4414,-3.4414,-3.4414,-3.4414,-3.3742,-3.3213,-3.3213,-3.1974,-3.0895,-3.0895,-3.0279,-2.9792,-2.9792,-2.9792,-2.9792,-2.9792,-2.9599,-2.9419,-2.9419,-2.9028,-2.887,-2.904,-2.7895,-2.7198,-2.7198,-2.5973,-2.5312,-2.5312,-2.5312,-2.5312,-2.5312,-2.5312,-2.5312,-2.5312,-2.5312,-2.5312,-2.5312,-2.5312,-2.5312,-3.9076,-3.9814,-4.0358,-4.0095,-3.9445,-3.8725,-3.8216,0.0,-3.6891,-3.6451,-3.6509,-3.6509,-3.6062,-3.6037,-3.6054,-3.5994,-3.561,0.0,0.0,0.0,0.0,0.0,0.0,0.0,0.0,0.0,0.0,0.0,0.0,0.0,0.0,-3.6918,-3.6253,-3.5889,-3.5913,-3.5667,-3.5024,-3.482,-3.4719,-3.4704,-3.4501,-3.4414,-3.4414,-3.4414,0.0,0.0,0.0,0.0,0.0,-3.4414,-3.4414,-3.4414,-3.4414,-3.4414,-3.4414,-3.4414,-3.4414,-3.4414,-3.4414,-3.4283,-3.4008,-3.3383,-3.273,-3.2251,-3.2483,-3.2672,-3.305,-3.4109,-3.4414,-3.4414,-3.4414,-3.4414,-3.4414,-3.4414,-3.3977,-3.3589,-3.3589,-3.3017,-3.229,-3.1696,-3.1254,-3.0758,-3.0203,-2.9921,-2.9792,-2.9792,-2.9611,-2.9521,-2.9521,-2.9353,-2.9118,-2.9028,-2.8882,-2.8803,-2.8882,-2.8082,-2.7384,-2.7022,-2.625,-2.5685,-2.5324,-2.5312,-2.5312,-2.5312,-2.5312,-2.5312,-2.5312,-2.5312,-2.5312,-2.5312,-2.5312,-2.5312,0.0,-3.848,-3.8866,-3.8866,-3.8397,0.0,0.0,0.0,-3.6533,-3.6284,-3.6199,-3.6011,-3.5593,-3.5431,-3.5402,-3.5295,-3.5111,0.0,0.0,0.0,0.0,0.0,0.0,0.0,0.0,0.0,0.0,0.0,0.0,0.0,0.0,-3.6236,-3.5583,-3.4935,-3.4996,-3.482,-3.4414,-3.4414,-3.4414,-3.4414,-3.4414,-3.4414,-3.4414,-3.4414,0.0,0.0,0.0,0.0,0.0,-3.4414,-3.4414,-3.4414,-3.4414,-3.4414,-3.4414,-3.4414,-3.4414,-3.4414,-3.4414,-3.4254,-3.3949,-3.3325,-3.2672,-3.2309,-3.3195,-3.3369,-3.3398,-3.4196,-3.4414,-3.4414,-3.4414,-3.4414,-3.4332,-3.4045,-3.3589,-3.3143,-3.2861,-3.2218,-3.1489,-3.097,-3.0696,-3.0343,-2.9856,-2.9792,-2.9792,-2.9792,-2.9599,-2.9419,-2.9419,-2.9197,-2.8961,-2.8791,-2.8724,-2.8724,-2.8724,-2.8096,-2.7488,-2.6959,-2.6406,-2.5865,-2.5336,-2.5312,-2.5408,-2.56,-2.5408,-2.5408,-2.5612,-2.5408,-2.5312,-2.5312,-2.5312,-2.5312,0.0,0.0,0.0,0.0,0.0,0.0,0.0,0.0,0.0,-3.6259,-3.5864,-3.5414,-3.5369,-3.4925,-3.448,-3.4235,-3.4118,0.0,0.0,0.0,0.0,0.0,0.0,0.0,0.0,0.0,0.0,0.0,0.0,0.0,0.0,-3.5659,-3.5024,-3.4428,-3.4414,-3.4414,-3.4414,-3.4414,-3.4414,-3.4414,-3.4414,-3.4414,-3.4414,-3.4414,0.0,0.0,0.0,0.0,0.0,-3.4414,-3.4414,-3.4414,-3.4414,-3.4414,-3.4414,-3.4414,-3.4414,-3.4414,-3.4414,-3.4022,-3.3427,-3.2788,-3.213,-3.1869,-3.3042,-3.3877,-3.4356,-3.4399,-3.4414,-3.4414,-3.4414,-3.4346,-3.4113,-3.3367,-3.3143,-3.2861,-3.2146,-3.1415,-3.082,-3.082,-3.0279,-2.9792,-2.9792,-2.9792,-2.9792,-2.9792,-2.9599,-2.9419,-2.9341,-2.9028,-2.8803,-2.8803,-2.8578,-2.851,-2.851,-2.8029,-2.7488,-2.6959,-2.6442,-2.5925,-2.5384,-2.5396,-2.5636,-2.6093,-2.5576,-2.5552,-2.6045,-2.554,-2.5312,-2.5312,-2.5312,-2.5312,-3.8599,0.0,-3.7211,-3.6928,-3.6846,0.0,0.0,0.0,0.0,0.0,0.0,0.0,0.0,-3.4168,-3.4184,-3.4134,-3.3949,0.0,0.0,0.0,0.0,0.0,0.0,0.0,0.0,0.0,0.0,0.0,0.0,0.0,0.0,-3.4961,-3.4559,-3.4414,-3.4414,-3.4414,-3.4414,-3.4414,-3.4414,-3.4414,-3.4414,-3.4414,-3.4414,-3.4414,0.0,0.0,0.0,0.0,-3.4414,-3.4414,-3.4414,-3.4414,-3.4414,-3.4414,-3.4414,-3.4414,-3.4414,-3.4414,-3.4414,-3.4312,-3.4095,-3.3456,-3.303,-3.2744,-3.2642,-3.313,-3.379,-3.4283,-3.4414,-3.4414,-3.4414,-3.3962,-3.3437,-3.3213,-3.2277,-3.1402,-3.118,-3.0558,-3.0075,-3.0075,-2.9934,-2.9792,-2.9792,-2.9792,-2.9702,-2.9509,-2.9419,-2.9263,-2.8949,-2.887,-2.8724,-2.8578,-2.851,-2.851,-2.851,-2.8029,-2.7488,-2.6959,-2.6815,-2.649,-2.5925,-2.6322,-2.6406,-2.6105,-2.5576,-2.5372,-2.5492,-2.5372,-2.5312,-2.5312,-2.5312,-2.5312,-3.8543,-3.8131,-3.7589,-3.6904,-3.6585,-3.6307,0.0,0.0,0.0,0.0,0.0,0.0,0.0,0.0,0.0,0.0,-3.3261,0.0,0.0,0.0,0.0,0.0,0.0,0.0,0.0,0.0,0.0,0.0,0.0,0.0,0.0,-3.4603,-3.4414,-3.4414,-3.4414,-3.4414,-3.4414,-3.4414,-3.4414,-3.4414,-3.4414,-3.4414,-3.4414,-3.4414,-3.4414,0.0,0.0,0.0,-3.4414,-3.4414,-3.4414,-3.4414,-3.4414,-3.4182,-3.3782,-3.3565,-3.365,-3.3782,-3.3565,-3.3464,-3.3407,-3.3064,-3.2621,-3.222,-3.2179,-3.2528,-3.3027,-3.3656,-3.3811,-3.3811,-3.3811,-3.3311,-3.2577,-3.2205,-3.1476,-3.082,-3.0482,-3.0062,-2.9792,-2.9792,-2.9792,-2.9792,-2.9611,-2.9611,-2.9521,-2.9275,-2.9184,-2.9028,-2.8803,-2.8724,-2.8657,-2.851,-2.851,-2.851,-2.851,-2.8246,-2.7861,-2.7332,-2.7296,-2.7055,-2.6502,-2.6779,-2.6671,-2.6105,-2.5817,-2.5552,-2.5312,-2.5312,-2.5312,-2.5312,-2.5312,-2.5312,-3.841,-3.855,-3.8528,-3.7337,-3.6793,-3.631,0.0,0.0,0.0,0.0,0.0,0.0,0.0,0.0,0.0,0.0,0.0,0.0,0.0,0.0,0.0,0.0,0.0,0.0,0.0,0.0,0.0,0.0,0.0,0.0,0.0,-3.4414,-3.4414,-3.4414,-3.4414,-3.4414,-3.4414,-3.4414,-3.4414,-3.4414,-3.4414,-3.4414,-3.4414,-3.4312,-3.4312,0.0,0.0,0.0,-3.4269,-3.4269,-3.4143,-3.3975,-3.3975,-3.3471,-3.2737,-3.237,-3.2553,-3.2877,-3.2443,-3.2248,-3.2178,-3.2275,-3.1749,-3.1209,-3.1707,-3.1928,-3.2074,-3.2635,-3.2932,-3.3003,-3.3003,-3.2506,-3.1709,-3.1044,-3.082,-3.0545,-2.9934,-2.9792,-2.9792,-2.9792,-2.9792,-2.9702,-2.9419,-2.9341,-2.9275,-2.904,-2.8882,-2.8803,-2.8724,-2.8578,-2.851,-2.851,-2.851,-2.851,-2.851,-2.851,-2.8318,-2.7873,-2.7837,-2.7645,-2.7188,-2.7019,-2.6719,-2.6238,-2.6057,-2.5757,-2.5312,-2.5384,-2.5432,-2.5432,-2.5516,-2.5552,-3.9345,-3.9259,-3.8924,-3.7552,-3.6904,-3.6352,-3.5121,0.0,0.0,0.0,0.0,0.0,0.0,0.0,0.0,0.0,0.0,0.0,0.0,0.0,0.0,0.0,0.0,0.0,0.0,0.0,0.0,0.0,0.0,0.0,0.0,-3.4414,-3.4414,-3.4414,-3.4414,-3.4414,-3.4414,-3.4414,-3.4414,-3.4414,-3.4414,-3.4414,-3.4385,-3.3862,-3.3906,0.0,0.0,-3.3616,-3.3616,-3.3616,-3.2953,-3.1924,-3.1924,-3.1495,-3.0911,-3.1464,-3.1596,-3.1664,-3.2017,-3.1826,-3.1555,-3.199,-3.1575,-3.0926,-3.1018,-3.1106,-3.1119,-3.1254,-3.1769,-3.229,-3.229,-3.1709,-3.1044,-3.097,-3.0406,-2.9934,-2.9792,-2.9792,-2.9792,-2.9792,-2.9611,-2.9431,-2.9419,-2.9275,-2.904,-2.8882,-2.8803,-2.8724,-2.8578,-2.851,-2.851,-2.851,-2.851,-2.851,-2.851,-2.851,-2.8474,-2.839,-2.839,-2.8354,-2.827,-2.7404,-2.6899,-2.6803,-2.5901,-2.5384,-2.5312,-2.5757,-2.5973,-2.5985,-2.6466,-2.6683,-3.9242,-3.8865,-3.8372,-3.7413,-3.6851,-3.6275,-3.5149,0.0,0.0,0.0,0.0,0.0,0.0,0.0,0.0,0.0,0.0,0.0,0.0,0.0,0.0,0.0,0.0,0.0,0.0,0.0,0.0,0.0,0.0,0.0,0.0,0.0,-3.3746,-3.3398,-3.4051,-3.408,-3.3398,-3.337,-3.3528,-3.3891,-3.3558,-3.3383,-3.3369,-3.3093,-3.2912,-3.2825,0.0,-3.2184,-3.1836,-3.1836,-3.1453,-3.0976,-3.1226,-3.0937,-3.0277,-3.0939,-3.0962,-3.0748,-3.1375,-3.1339,-3.1076,-3.0977,-3.0464,-2.9857,-3.0177,-3.0049,-2.9857,-3.0177,-3.0846,-3.1476,-3.1476,-3.0921,-3.0279,-3.0279,-3.0075,-2.9792,-2.9792,-2.9792,-2.9792,-2.9792,-2.9599,-2.9341,-2.9275,-2.904,-2.8882,-2.8657,-2.8657,-2.8578,-2.851,-2.851,-2.851,-2.851,-2.851,-2.851,-2.851,-2.851,-2.851,-2.851,-2.851,-2.851,-2.851,-2.7488,-2.7067,-2.7356,-2.6286,-2.5889,-2.619,-2.643,-2.655,-2.655,-2.6815,-2.6935,-3.8733,-3.823,-3.777,-3.7326,0.0,-3.6447,-3.5221,0.0,0.0,0.0,0.0,0.0,0.0,0.0,0.0,0.0,0.0,0.0,0.0,0.0,0.0,0.0,0.0,0.0,0.0,0.0,0.0,0.0,0.0,0.0,0.0,0.0,-3.2956,-3.227,-3.3177,-3.3154,-3.2047,-3.1791,-3.2164,-3.3042,-3.2485,-3.2182,-3.2182,-3.2182,-3.199,-3.1634,-3.1495,-3.1088,-3.0582,-3.0582,-3.0363,-3.0144,-3.0589,-3.0423,-2.9941,-3.028,-3.0212,-2.9987,-3.0612,-3.0519,-3.0167,-2.9822,-2.9285,-2.8837,-2.9415,-2.9289,-2.9051,-2.9628,-3.0216,-3.062,-3.062,-3.0203,-2.9792,-2.9792,-2.9792,-2.9792,-2.9792,-2.9792,-2.9792,-2.9792,-2.9534,-2.9275,-2.9131,-2.8882,-2.8645,-2.851,-2.851,-2.851,-2.851,-2.851,-2.851,-2.851,-2.851,-2.851,-2.851,-2.851,-2.851,-2.851,-2.851,-2.851,-2.851,-2.7609,-2.7308,-2.7717,-2.6779,-2.6502,-2.6935,-2.7055,-2.7115,-2.7128,-2.7248,-2.7308,-3.81,-3.7943,-3.7828,-3.7524,0.0,0.0,-3.5309,-3.5292,0.0,0.0,0.0,0.0,0.0,0.0,0.0,0.0,0.0,0.0,0.0,0.0,0.0,0.0,0.0,0.0,0.0,0.0,0.0,0.0,0.0,0.0,0.0,0.0,0.0,-3.1575,-3.166,-3.1313,-3.0583,-3.0009,-3.037,-3.1646,-3.1461,-3.1418,-3.1418,-3.1278,-3.1507,-3.1996,-3.1368,-3.1067,-3.1067,-3.1067,-3.0308,-2.9196,-2.9235,-2.9248,-2.9184,-2.906,-2.9129,-2.9275,-2.9732,-2.9214,-2.8371,-2.8849,-2.8586,-2.8273,-2.8825,-2.8963,-2.9051,-2.9628,-2.9869,-2.9856,-2.9856,-2.9869,-2.9792,-2.9792,-2.9792,-2.9792,-2.9792,-2.9792,-2.9792,-2.9792,-2.9456,-2.9131,-2.9131,-2.8749,-2.851,-2.851,-2.851,-2.851,-2.851,-2.851,-2.851,-2.851,-2.851,-2.851,-2.851,-2.851,-2.851,-2.851,-2.851,-2.851,-2.851,-2.7969,-2.7681,-2.7717,-2.7164,-2.6899,-2.6935,-2.7428,-2.7669,-2.7669,-2.8174,-2.8402,-3.8001,-3.7535,-3.7134,-3.7029,0.0,0.0,0.0,0.0,0.0,0.0,0.0,0.0,0.0,0.0,0.0,0.0,0.0,0.0,0.0,0.0,0.0,0.0,0.0,0.0,0.0,0.0,0.0,0.0,0.0,0.0,0.0,0.0,0.0,-2.9669,-3.04,-3.0294,-2.9263,-2.9308,-2.944,-2.9484,-2.9903,-3.0269,-3.058,-3.058,-3.0422,-3.0254,-2.9958,-2.9594,-2.9248,-2.9248,-2.8916,-2.8545,-2.8829,-2.9185,-2.9529,-2.9454,-2.9467,-2.9516,-2.9303,-2.8976,-2.8599,-2.8461,-2.8285,-2.821,-2.8762,-2.8925,-2.8976,-2.9202,-2.9515,-2.9792,-2.9792,-2.9792,-2.9792,-2.9792,-2.9792,-2.9792,-2.9792,-2.9702,-2.9521,-2.9521,-2.9209,-2.8882,-2.8882,-2.8657,-2.851,-2.851,-2.851,-2.851,-2.851,-2.851,-2.851,-2.851,-2.851,-2.851,-2.851,-2.851,-2.851,-2.851,-2.851,-2.851,-2.851,-2.8005,-2.7885,-2.821,-2.7693,-2.7584,-2.7909,-2.8114,-2.821,-2.8222,-2.8414,-2.851,-3.7653,-3.7134,-3.6662,0.0,0.0,0.0,0.0,0.0,0.0,0.0,0.0,0.0,0.0,0.0,0.0,0.0,0.0,0.0,0.0,0.0,0.0,0.0,0.0,0.0,0.0,0.0,0.0,0.0,0.0,0.0,0.0,0.0,0.0,0.0,-2.904,-2.8946,-2.7868,-2.8213,-2.8304,-2.8001,-2.847,-2.9072,-2.9768,-2.9966,-2.983,-2.9323,-2.9323,-2.9055,-2.8637,-2.8637,-2.8637,-2.8674,-2.9051,-2.9453,-2.9767,-2.9591,-2.9515,-2.944,-2.8863,-2.8561,-2.8373,-2.8172,-2.7871,-2.772,-2.8448,-2.8549,-2.8486,-2.8825,-2.9089,-2.9302,-2.9478,-2.9654,-2.9741,-2.9566,-2.9576,-2.9689,-2.9689,-2.9443,-2.9353,-2.9353,-2.9028,-2.8791,-2.8791,-2.8657,-2.851,-2.851,-2.851,-2.851,-2.851,-2.851,-2.851,-2.851,-2.851,-2.851,-2.851,-2.851,-2.851,-2.851,-2.851,-2.851,-2.851,-2.8162,-2.8138,-2.8498,-2.8162,-2.815,-2.851,-2.851,-2.8351,-2.8099,-2.8099,-2.7926,-3.6876,-3.6723,-3.6585,0.0,0.0,0.0,0.0,0.0,0.0,0.0,0.0,0.0,0.0,0.0,0.0,0.0,0.0,0.0,0.0,0.0,0.0,0.0,0.0,0.0,0.0,0.0,0.0,0.0,0.0,0.0,0.0,0.0,0.0,0.0,-2.7484,-2.7162,-2.6533,-2.6533,-2.6741,-2.7281,-2.7293,-2.7871,-2.895,-2.9528,-2.9779,-2.9792,-2.9792,-2.9792,-2.9792,-2.9792,-2.9792,-2.9792,-2.9779,-2.9779,-2.9716,-2.9139,-2.8925,-2.8837,-2.8285,-2.7745,-2.7369,-2.7908,-2.7356,-2.6747,-2.777,-2.772,-2.7519,-2.8612,-2.8524,-2.8235,-2.8762,-2.934,-2.9628,-2.9063,-2.9174,-2.9406,-2.9419,-2.9275,-2.9131,-2.9131,-2.8961,-2.8791,-2.8791,-2.8657,-2.851,-2.851,-2.851,-2.851,-2.851,-2.851,-2.851,-2.851,-2.851,-2.851,-2.851,-2.851,-2.851,-2.851,-2.851,-2.851,-2.851,-2.851,-2.851,-2.851,-2.851,-2.851,-2.851,-2.851,-2.8018,-2.7185,-2.7185,-2.6588,-3.6892,-3.6445,0.0,0.0,0.0,0.0,0.0,0.0,0.0,0.0,0.0,0.0,0.0,0.0,0.0,0.0,0.0,0.0,0.0,0.0,0.0,0.0,0.0,0.0,0.0,0.0,0.0,0.0,0.0,0.0,0.0,0.0,0.0,0.0,-2.6782,-2.6714,-2.6533,-2.6841,-2.7118,-2.7293,-2.767,-2.8235,-2.8938,-2.9114,-2.9402,-2.9792,-2.9792,-2.9792,-2.9792,-2.9792,-2.9792,-2.9754,-2.934,-2.9189,-2.9114,-2.8549,-2.8348,-2.8273,-2.772,-2.7419,-2.7243,-2.7017,-2.6979,-2.7105,-2.7431,-2.7682,-2.7846,-2.7783,-2.7934,-2.7959,-2.7356,-2.7811,-2.85,-2.88,-2.8975,-2.9112,-2.9344,-2.9275,-2.9052,-2.8882,-2.8736,-2.8578,-2.8578,-2.851,-2.851,-2.851,-2.851,-2.851,-2.851,-2.851,-2.851,-2.851,-2.851,-2.851,-2.851,-2.851,-2.851,-2.851,-2.851,-2.851,-2.851,-2.851,-2.8179,-2.7592,-2.7592,-2.7255,-2.6577,-2.6577,-2.6412,-2.5997,-2.5997,-2.583,-3.5867,0.0,0.0,0.0,0.0,0.0,0.0,0.0,0.0,0.0,0.0,0.0,0.0,0.0,0.0,0.0,0.0,0.0,0.0,0.0,0.0,0.0,0.0,0.0,0.0,0.0,0.0,0.0,0.0,0.0,0.0,0.0,0.0,0.0,-2.6533,-2.6533,-2.6533,-2.6791,-2.6954,-2.6967,-2.7293,-2.7745,-2.8285,-2.8499,-2.8787,-2.9126,-2.9126,-2.9126,-2.9126,-2.9126,-2.9126,-2.9089,-2.8737,-2.8599,-2.8536,-2.7984,-2.777,-2.7708,-2.7155,-2.6954,-2.6929,-2.6816,-2.6866,-2.6992,-2.7218,-2.7369,-2.7431,-2.7318,-2.7297,-2.7285,-2.6822,-2.6893,-2.7271,-2.8275,-2.8474,-2.8684,-2.9073,-2.8961,-2.8816,-2.8724,-2.8578,-2.851,-2.851,-2.851,-2.851,-2.851,-2.851,-2.851,-2.851,-2.851,-2.851,-2.851,-2.851,-2.851,-2.851,-2.8179,-2.8007,-2.8007,-2.7672,-2.7418,-2.7418,-2.7753,-2.7592,-2.667,-2.667,-2.634,-2.5819,-2.5819,-2.5568,-2.5073,-2.5073,-2.4819,0.0,0.0,0.0,0.0,0.0,0.0,0.0,0.0,0.0,0.0,0.0,0.0,0.0,0.0,0.0,0.0,0.0,0.0,0.0,0.0,0.0,0.0,0.0,0.0,0.0,0.0,0.0,0.0,0.0,0.0,0.0,0.0,0.0,-2.6445,-2.6445,-2.6445,-2.6445,-2.6445,-2.6483,0.0,-2.6471,-2.6666,-2.7231,-2.777,-2.8059,-2.8109,-2.8109,-2.8109,-2.8109,-2.8109,-2.8109,-2.8097,-2.8047,-2.8034,-2.7959,-2.7406,-2.7205,-2.713,-2.6697,-2.6533,-2.6609,-2.7042,-2.6866,-2.6622,-2.7055,-2.6854,-2.6565,-2.7067,-2.6714,-2.6313,-2.6772,-2.6408,-2.6168,-2.7359,-2.774,-2.8025,-2.8657,-2.8621,-2.845,-2.8498,-2.851,-2.851,-2.851,-2.851,-2.851,-2.851,-2.851,-2.851,-2.851,-2.851,-2.851,-2.8431,-2.8339,-2.8339,-2.8259,-2.751,-2.7092,-2.7092,-2.6246,-2.5735,-2.5652,-2.6588,-2.6588,-2.5652,-2.5652,-2.5568,-2.5484,-2.5484,-2.5073,-2.4241,-2.4241,-2.3734,0.0,-3.2815,0.0,0.0,0.0,0.0,0.0,0.0,0.0,0.0,0.0,0.0,0.0,0.0,0.0,0.0,0.0,0.0,0.0,0.0,0.0,0.0,0.0,0.0,0.0,0.0,0.0,0.0,0.0,0.0,0.0,0.0,0.0,-2.5799,-2.5787,-2.5787,-2.5787,-2.5787,-2.6013,0.0,-2.6,-2.6088,-2.6653,-2.7205,-2.7695,-2.8109,-2.8109,-2.8109,-2.8109,-2.8109,-2.8109,-2.8059,-2.7632,-2.7457,-2.7394,-2.6841,-2.664,-2.6684,-2.6571,-2.6533,-2.6546,-2.6603,-2.6553,-2.6546,-2.6672,-2.6496,-2.6295,-2.6407,-2.6218,-2.6005,-2.6116,-2.5914,-2.5847,-2.6577,-2.6822,-2.7286,-2.8512,-2.8475,-2.8149,-2.8426,-2.851,-2.851,-2.851,-2.851,-2.851,-2.851,-2.851,-2.851,-2.851,-2.851,-2.8259,-2.751,-2.751,-2.7174,-2.6412,-2.6246,-2.608,-2.608,-2.5913,-2.54,-2.4467,-2.5484,-2.5568,-2.4467,-2.4467,-2.4049,-2.3115,-2.3115,-2.295,-2.2618,-2.2618,-2.2441,0.0,0.0,0.0,0.0,0.0,0.0,0.0,0.0,0.0,0.0,0.0,0.0,0.0,0.0,0.0,0.0,0.0,0.0,0.0,0.0,0.0,0.0,0.0,0.0,0.0,0.0,0.0,0.0,0.0,0.0,0.0,-2.6533,-2.6395,-2.6013,-2.5737,-2.5724,-2.6013,-2.5485,-2.5498,-2.6038,-2.5485,-2.5385,-2.5699,-2.6515,-2.6892,-2.6917,-2.7193,-2.7318,-2.7318,-2.7318,-2.7318,-2.7293,-2.7005,-2.6892,-2.6854,-2.6634,-2.6533,-2.6533,-2.6533,-2.6533,-2.6533,-2.6533,-2.6533,-2.6533,-2.6533,-2.6396,-2.6339,-2.6201,-2.6062,-2.591,-2.5758,-2.5618,-2.5586,-2.613,-2.6324,-2.67,-2.7654,-2.7871,-2.7944,-2.8077,-2.833,-2.851,-2.851,-2.851,-2.851,-2.851,-2.8179,-2.7846,-2.7846,-2.7499,-2.6999,-2.6588,-2.6505,-2.6329,-2.5819,-2.5411,-2.5158,-2.5158,-2.4648,-2.4059,-2.3464,-2.3877,-2.3877,-2.329,-2.329,-2.3038,-2.2618,-2.2441,-2.2441,-2.2451,-2.2264,-2.2264,0.0,0.0,0.0,0.0,0.0,0.0,0.0,0.0,0.0,0.0,0.0,0.0,0.0,0.0,0.0,0.0,0.0,0.0,0.0,0.0,0.0,0.0,0.0,0.0,0.0,0.0,0.0,0.0,0.0,0.0,-2.6533,-2.6533,-2.6483,-2.6382,-2.5762,-2.5686,-2.6176,-2.5184,-2.4946,-2.546,-2.5121,-2.4808,-2.4569,-2.5762,-2.605,-2.5624,-2.6101,-2.6433,-2.6533,-2.6533,-2.6471,-2.6314,-2.6483,-2.6471,-2.6395,-2.6496,-2.6533,-2.6533,-2.6533,-2.6533,-2.6533,-2.6533,-2.6533,-2.6465,-2.6465,-2.6396,-2.6327,-2.6131,-2.598,-2.5758,-2.5606,-2.5382,-2.542,-2.5865,-2.5961,-2.6142,-2.6791,-2.72,-2.75,-2.7681,-2.815,-2.8431,-2.8259,-2.8271,-2.8259,-2.8087,-2.7429,-2.6928,-2.6928,-2.6246,-2.5735,-2.5568,-2.5579,-2.5495,-2.5316,-2.4659,-2.4241,-2.4241,-2.324,-2.26,-2.26,-2.2328,-2.224,-2.2152,-2.2315,-2.2441,-2.2618,-2.2353,-2.2353,-2.2627,-2.2353,-2.2264,0.0,0.0,0.0,0.0,0.0,0.0,0.0,0.0,0.0,0.0,0.0,0.0,0.0,0.0,0.0,0.0,0.0,0.0,0.0,0.0,0.0,0.0,0.0,0.0,0.0,0.0,0.0,0.0,0.0,0.0,-2.6533,-2.6533,-2.6226,-2.5724,-2.5197,-2.4958,-2.5046,-2.4418,-2.4393,-2.4933,-2.531,-2.4745,-2.3353,-2.4996,-2.5674,-2.5598,-2.5674,-2.6,-2.6533,-2.6533,-2.6163,-2.5762,-2.6332,-2.6151,-2.5774,-2.6276,-2.6533,-2.6533,-2.6533,-2.6533,-2.6533,-2.6533,-2.6533,-2.6465,-2.627,-2.6131,-2.598,-2.5758,-2.5535,-2.5382,-2.5382,-2.5312,-2.5324,-2.5396,-2.5408,-2.5685,-2.6719,-2.661,-2.6598,-2.7536,-2.815,-2.8259,-2.751,-2.7348,-2.7092,-2.6246,-2.608,-2.5997,-2.5997,-2.5913,-2.5495,-2.4744,-2.4659,-2.4317,-2.356,-2.3222,-2.3057,-2.3057,-2.2371,-2.1825,-2.171,-2.1624,-2.1537,-2.1277,-2.1813,-2.2008,-2.183,-2.183,-2.183,-2.183,-2.183,-2.182,0.0,0.0,0.0,0.0,0.0,0.0,0.0,0.0,0.0,0.0,0.0,0.0,0.0,0.0,0.0,0.0,0.0,0.0,0.0,0.0,0.0,0.0,0.0,0.0,0.0,0.0,0.0,0.0,0.0,-2.6533,-2.6533,-2.6533,-2.6189,-2.5611,-2.5096,-2.482,-2.482,-2.428,-2.4117,-2.4356,-2.4594,-2.4155,-2.3103,-2.3891,-2.4393,-2.472,-2.5021,-2.531,-2.5561,-2.585,-2.5649,-2.5247,-2.6126,-2.6101,-2.5661,-2.6251,-2.6533,-2.6533,-2.6533,-2.6533,-2.6533,-2.6533,-2.6533,-2.6465,-2.627,-2.6131,-2.598,-2.5688,-2.5535,-2.5465,-2.5312,-2.5312,-2.5312,-2.5312,-2.5312,-2.5444,-2.5925,-2.6057,-2.627,-2.687,-2.699,-2.6826,-2.6147,-2.6244,-2.624,-2.5552,-2.5239,-2.5073,-2.5073,-2.4563,-2.4145,-2.3734,-2.3734,-2.3474,-2.2969,-2.2891,-2.261,-2.2293,-2.1834,-2.1446,-2.1221,-2.1247,-2.1194,-2.1108,-2.1609,-2.1919,-2.1919,-2.1731,-2.1741,-2.1919,-2.1741,-2.1741,0.0,0.0,0.0,0.0,0.0,0.0,0.0,0.0,0.0,0.0,0.0,0.0,0.0,0.0,0.0,0.0,0.0,0.0,0.0,0.0,0.0,0.0,0.0,0.0,0.0,0.0,0.0,0.0,0.0,-2.6402,-2.6251,-2.6239,-2.5988,-2.5423,-2.4895,-2.4682,-2.482,-2.428,-2.3916,-2.3778,-2.3929,-2.369,-2.3078,-2.3288,-2.3502,-2.3803,-2.4368,-2.4695,-2.4845,-2.5247,-2.5096,-2.472,-2.5812,-2.59,-2.5485,-2.6201,-2.6533,-2.6533,-2.6533,-2.6533,-2.6533,-2.6533,-2.6465,-2.6396,-2.6201,-2.6062,-2.598,-2.5606,-2.5535,-2.5453,-2.5312,-2.5312,-2.5312,-2.5312,-2.5312,-2.5277,-2.5183,-2.5623,-2.5965,-2.6007,-2.5813,-2.5485,-2.5092,-2.5161,-2.511,-2.4602,-2.4283,-2.4074,-2.3859,-2.3246,-2.2892,-2.2892,-2.2708,-2.2602,-2.2543,-2.237,-2.2083,-2.1598,-2.1306,-2.0931,-2.0634,-2.0835,-2.0961,-2.0961,-2.1465,-2.183,-2.2008,-2.183,-2.183,-2.2008,-2.182,-2.1741,0.0,0.0,0.0,0.0,0.0,0.0,0.0,0.0,0.0,0.0,0.0,0.0,0.0,0.0,0.0,0.0,0.0,0.0,0.0,0.0,0.0,0.0,0.0,0.0,0.0,0.0,0.0,0.0,0.0,-2.6214,-2.5674,-2.5636,-2.5398,-2.4883,-2.433,-2.4293,-2.482,-2.428,-2.3715,-2.3128,-2.374,-2.369,-2.309,-2.3703,-2.3665,-2.3153,-2.3791,-2.4343,-2.482,-2.4845,-2.4544,-2.4155,-2.5222,-2.5322,-2.4996,-2.6063,-2.6533,-2.6533,-2.6533,-2.6533,-2.6533,-2.6533,-2.6396,-2.6201,-2.598,-2.5758,-2.5606,-2.5382,-2.5312,-2.5312,-2.5312,-2.5312,-2.5312,-2.5312,-2.5312,-2.5218,-2.4888,-2.5268,-2.5552,-2.5172,-2.5142,-2.5049,-2.4639,-2.42,-2.3586,-2.2764,-2.2948,-2.2938,-2.2134,-2.2136,-2.2217,-2.2217,-2.1663,-2.1409,-2.1826,-2.1325,-2.0997,-2.0978,-2.0366,-1.998,-1.9962,-2.0338,-2.0549,-2.0549,-2.1328,-2.1741,-2.1741,-2.1741,-2.1741,-2.1741,-2.1741,-2.1741,0.0,0.0,0.0,0.0,0.0,0.0,0.0,0.0,0.0,0.0,0.0,0.0,0.0,0.0,0.0,0.0,0.0,0.0,0.0,0.0,0.0,0.0,0.0,0.0,0.0,0.0,0.0,0.0,0.0,0.0,-2.6163,-2.6151,-2.5737,-2.4845,-2.4632,-2.4456,-2.4293,-2.4104,-2.3891,-2.369,-2.3767,-2.3505,-2.2969,-2.3132,-2.3046,-2.2873,-2.3071,-2.338,-2.3791,-2.4531,-2.4494,-2.4142,-2.5586,-2.5812,-2.541,-2.6176,-2.6533,-2.6533,-2.6533,-2.6396,-2.6339,-2.6339,-2.6201,-2.598,-2.5758,-2.5676,-2.5535,-2.5382,-2.5312,-2.5312,-2.5312,-2.5312,-2.5158,-2.4636,-2.4204,-2.3756,-2.3351,-2.3681,-2.3919,-2.3837,-2.3619,-2.3294,-2.2922,-2.2699,-2.2406,-2.1738,-2.206,-2.2324,-2.2295,-2.2252,-2.237,-2.2717,-2.2197,-2.192,-2.2083,-2.1438,-2.0912,-2.0484,-2.009,-1.9806,-1.954,-2.0163,-2.0521,-2.0521,-2.1319,-2.1741,-2.1741,-2.1741,-2.1741,-2.1741,-2.1741,-2.1741,0.0,0.0,0.0,0.0,0.0,0.0,0.0,0.0,0.0,0.0,0.0,0.0,0.0,0.0,0.0,0.0,0.0,0.0,0.0,0.0,0.0,0.0,0.0,0.0,0.0,0.0,0.0,0.0,0.0,0.0,-2.5465,-2.5453,-2.5031,-2.4159,-2.4404,-2.4268,-2.3715,-2.3904,-2.3904,-2.3654,-2.3517,-2.3195,-2.286,-2.2739,-2.269,-2.269,-2.269,-2.286,-2.308,-2.3766,-2.3929,-2.3853,-2.5269,-2.5607,-2.5423,-2.612,-2.6396,-2.6396,-2.6327,-2.6188,-2.6131,-2.6131,-2.598,-2.5758,-2.5606,-2.5535,-2.5465,-2.5312,-2.5312,-2.5229,-2.4933,-2.4719,-2.442,-2.3829,-2.3169,-2.252,-2.2237,-2.2515,-2.2816,-2.2737,-2.2314,-2.2041,-2.1904,-2.1768,-2.1562,-2.1279,-2.1611,-2.1875,-2.1865,-2.1868,-2.1978,-2.2428,-2.1835,-2.1476,-2.1608,-2.1014,-2.0398,-1.9966,-1.9795,-1.9595,-1.9311,-2.0081,-2.0521,-2.0521,-2.1319,-2.1741,-2.1741,-2.1741,-2.1741,-2.1741,-2.1741,-2.1741,0.0,0.0,0.0,0.0,0.0,0.0,0.0,0.0,0.0,0.0,0.0,0.0,0.0,0.0,0.0,0.0,0.0,0.0,0.0,0.0,0.0,0.0,0.0,0.0,0.0,0.0,0.0,0.0,0.0,-2.3902,-2.3338,-2.328,-2.3166,-2.2827,-2.3603,-2.3728,-2.3103,-2.3715,-2.3654,-2.2909,-2.2909,-2.286,-2.269,-2.269,-2.269,-2.269,-2.269,-2.2739,-2.2848,-2.2763,-2.2885,-2.324,-2.4227,-2.4676,-2.4931,-2.5884,-2.6201,-2.6119,-2.598,-2.5898,-2.5886,-2.5898,-2.5758,-2.5606,-2.5535,-2.5382,-2.5241,-2.5229,-2.5241,-2.5087,-2.4264,-2.3537,-2.2947,-2.2947,-2.236,-2.1756,-2.1756,-2.2051,-2.2278,-2.1942,-2.1523,-2.1367,-2.1787,-2.1504,-2.1221,-2.1131,-2.1582,-2.1543,-2.0693,-2.0905,-2.1182,-2.122,-2.043,-2.0081,-2.0475,-1.9769,-1.9301,-1.9301,-1.9301,-1.9301,-1.9301,-2.0072,-2.0512,-2.0521,-2.131,-2.1722,-2.1741,-2.1741,-2.1741,-2.1741,-2.1741,-2.1741,-2.9223,0.0,0.0,0.0,0.0,0.0,0.0,0.0,0.0,0.0,0.0,0.0,0.0,0.0,0.0,0.0,0.0,0.0,0.0,0.0,0.0,0.0,0.0,0.0,0.0,0.0,0.0,0.0,-2.4264,-2.4051,-2.3913,-2.3641,-2.3518,-2.3508,-2.3801,-2.3916,-2.3766,-2.3916,-2.3715,-2.3017,-2.2848,-2.2739,-2.269,-2.2445,-2.2321,-2.2321,-2.2321,-2.2432,-2.2567,-2.3096,-2.3564,-2.4035,-2.4674,-2.5191,-2.5642,-2.5869,-2.5733,-2.545,-2.5775,-2.5583,-2.5164,-2.5554,-2.5535,-2.5241,-2.4707,-2.4492,-2.4337,-2.3768,-2.3621,-2.3621,-2.339,-2.2723,-2.2134,-2.2134,-2.1538,-2.0944,-2.0944,-2.1043,-2.1194,-2.1328,-2.1318,-2.1269,-2.1396,-2.1045,-2.0752,-2.0605,-2.078,-2.0878,-2.0627,-2.0685,-2.086,-2.1163,-2.0566,-2.0207,-2.0573,-1.9934,-1.9557,-1.9557,-1.9381,-1.9301,-1.9301,-1.9815,-2.0228,-2.0512,-2.1016,-2.1429,-2.1741,-2.1741,-2.1741,-2.1741,-2.1741,-2.1741,0.0,0.0,0.0,0.0,0.0,0.0,-2.4707,-2.4791,0.0,0.0,0.0,0.0,0.0,0.0,0.0,0.0,0.0,0.0,0.0,0.0,0.0,0.0,0.0,0.0,0.0,0.0,0.0,-2.3632,-2.3327,-2.3106,-2.3106,-2.3155,-2.3156,-2.3234,-2.3513,-2.364,-2.364,-2.364,-2.3403,-2.3017,-2.28,-2.269,-2.269,-2.2432,-2.2309,-2.2309,-2.2309,-2.2309,-2.2333,-2.2773,-2.335,-2.4005,-2.448,-2.4884,-2.5234,-2.5166,-2.489,-2.467,-2.492,-2.4538,-2.4006,-2.4529,-2.4402,-2.3999,-2.3688,-2.361,-2.3537,-2.3095,-2.2734,-2.251,-2.251,-2.1907,-2.1308,-2.1308,-2.0944,-2.0566,-2.0489,-2.0489,-2.0566,-2.0908,-2.0878,-2.0798,-2.0798,-2.0507,-2.0255,-2.0177,-2.0255,-2.0341,-2.0282,-2.0382,-2.0498,-2.0733,-2.0382,-2.017,-2.0333,-1.9789,-1.9469,-1.9469,-1.9381,-1.9301,-1.9301,-1.9705,-2.0035,-2.0264,-2.0824,-2.1319,-2.1741,-2.1741,-2.1741,-2.1741,-2.1741,-2.1741,0.0,0.0,0.0,0.0,0.0,0.0,-2.3829,-2.3975,-2.4181,0.0,0.0,0.0,0.0,0.0,0.0,0.0,0.0,0.0,0.0,0.0,0.0,0.0,0.0,0.0,0.0,-2.3276,-2.2852,-2.2852,-2.2134,-2.1704,-2.1652,-2.2083,-2.2321,-2.2321,-2.2766,-2.2971,-2.2971,-2.3044,-2.2946,-2.2775,-2.2678,-2.2678,-2.2678,-2.2359,-2.2285,-2.2223,-2.2161,-2.2111,-2.1999,-2.2059,-2.2609,-2.3475,-2.3745,-2.403,-2.4222,-2.4025,-2.3911,-2.373,-2.367,-2.3167,-2.2571,-2.3132,-2.2809,-2.2385,-2.2731,-2.2883,-2.2883,-2.2734,-2.2209,-2.169,-2.169,-2.1125,-2.0498,-2.0498,-2.0459,-2.043,-2.0198,-2.0236,-2.0265,-2.0498,-2.0382,-2.0264,-2.0264,-2.002,-1.9863,-1.9863,-1.9863,-1.9863,-1.9863,-2.0024,-2.0086,-2.0086,-1.9942,-1.9861,-1.9861,-1.9522,-1.9301,-1.9301,-1.9301,-1.9301,-1.9301,-1.9659,-1.9879,-1.9934,-2.0704,-2.1273,-2.1603,-2.1695,-2.1741,-2.1741,-2.1686,-2.1667,0.0,0.0,0.0,0.0,0.0,0.0,-2.3169,-2.3243,-2.3132,0.0,0.0,0.0,0.0,0.0,0.0,0.0,0.0,0.0,0.0,0.0,0.0,0.0,0.0,0.0,0.0,-2.2467,-2.2025,-2.2025,-2.153,-2.1093,-2.071,-2.093,-2.1162,-2.1218,-2.1801,-2.2087,-2.1969,-2.2507,-2.2495,-2.1877,-2.2285,-2.2482,-2.242,-2.1702,-2.1313,-2.1325,-2.0805,-2.0549,-2.0518,-2.0984,-2.1932,-2.3119,-2.3152,-2.3453,-2.3905,-2.3827,-2.3209,-2.2352,-2.2771,-2.2161,-2.1362,-2.2236,-2.2441,-2.2241,-2.2062,-2.2059,-2.1907,-2.1242,-2.0944,-2.0867,-2.0867,-2.0456,-2.0039,-2.0039,-1.9785,-1.9541,-1.9541,-1.973,-1.9973,-1.9821,-1.9869,-1.9942,-1.9942,-1.9942,-1.9872,-1.9715,-1.9794,-1.9784,-1.946,-1.9622,-1.9678,-1.95,-1.9421,-1.9421,-1.9421,-1.9347,-1.9301,-1.9301,-1.9301,-1.9301,-1.9301,-1.9384,-1.9586,-1.9925,-2.0704,-2.0998,-2.0759,-2.141,-2.1741,-2.1722,-2.1392,-2.1227,0.0,0.0,0.0,-2.3051,0.0,0.0,0.0,-2.2435,-2.2435,0.0,0.0,0.0,0.0,0.0,0.0,0.0,0.0,0.0,0.0,0.0,0.0,0.0,0.0,0.0,0.0,-2.168,-2.1362,-2.1135,-2.1114,-2.0917,-2.0452,-2.0679,-2.0828,-2.0817,-2.1291,-2.1479,-2.1426,-2.176,-2.1886,-2.1753,-2.1951,-2.2013,-2.1951,-2.1514,-2.106,-2.0666,-2.0344,-2.0161,-2.0118,-2.0358,-2.0917,-2.1613,-2.1866,-2.212,-2.2315,-2.205,-2.1684,-2.1341,-2.1407,-2.1027,-2.069,-2.1147,-2.125,-2.1092,-2.1176,-2.1165,-2.1088,-2.0712,-2.041,-2.0244,-2.0244,-1.9922,-1.96,-1.96,-1.9443,-1.9214,-1.9058,-1.9322,-1.9468,-1.925,-1.9425,-1.9627,-1.9715,-1.9706,-1.9548,-1.9469,-1.9548,-1.9548,-1.9301,-1.939,-1.939,-1.9301,-1.9301,-1.9301,-1.9301,-1.9301,-1.9301,-1.9301,-1.9301,-1.9301,-1.9301,-1.9301,-1.9503,-1.9916,-2.0319,-2.0521,-2.0521,-2.0934,-2.1126,-2.1126,-2.0915,-2.0549,0.0,0.0,0.0,0.0,0.0,-2.1164,0.0,0.0,0.0,0.0,0.0,0.0,0.0,0.0,0.0,0.0,0.0,0.0,0.0,0.0,0.0,0.0,0.0,0.0,0.0,-2.0979,-2.0824,-2.0452,-2.069,-2.069,-2.0317,-2.0403,-2.0485,-2.0485,-2.0631,-2.0677,-2.0677,-2.0816,-2.106,-2.1439,-2.1376,-2.1365,-2.1376,-2.1152,-2.0747,-2.0151,-2.0009,-1.9888,-1.9833,-1.9747,-1.9715,-1.9747,-2.0455,-2.0742,-2.0698,-2.0238,-2.0204,-2.0342,-2.003,-1.986,-1.989,-2.0063,-2.0052,-2.0107,-2.0459,-2.0566,-2.0547,-2.0469,-2.0185,-1.9893,-1.9814,-1.9482,-1.916,-1.916,-1.9102,-1.8889,-1.859,-1.8786,-1.8958,-1.8739,-1.8994,-1.9298,-1.9539,-1.939,-1.9301,-1.9301,-1.9301,-1.9301,-1.9301,-1.9301,-1.9301,-1.9301,-1.9301,-1.9301,-1.9301,-1.9301,-1.9301,-1.9301,-1.9301,-1.9301,-1.9301,-1.9301,-1.9377,-1.9553,-1.9634,-1.9705,-1.9773,-1.9844,-2.0093,-2.0521,-2.0271,-1.972,0.0,0.0,0.0,0.0,-2.1017,0.0,0.0,0.0,0.0,0.0,0.0,0.0,0.0,0.0,0.0,0.0,0.0,0.0,0.0,0.0,0.0,0.0,0.0,0.0,0.0,0.0,-2.0483,-2.0431,-2.011,-1.9893,-1.9841,-1.9531,-1.9281,-1.9281,-1.9295,-1.9264,-1.9065,-1.9736,-1.9987,-1.9857,-2.0302,-2.0549,-2.0506,-2.0066,-1.986,-1.9723,-1.9103,-1.8765,-1.8735,-1.836,-1.8269,-1.8347,-1.9703,-2.0183,-2.0172,-2.0118,-1.9736,-1.9173,-1.9121,-1.8724,-1.8419,-1.9177,-1.9909,-2.0498,-2.0547,-2.0566,-2.0478,-2.0098,-1.9951,-1.9824,-1.9453,-1.9043,-1.8711,-1.8711,-1.8269,-1.785,-1.785,-1.8056,-1.826,-1.8406,-1.8797,-1.9112,-1.9325,-1.9301,-1.9301,-1.9301,-1.9301,-1.9301,-1.9301,-1.9301,-1.9301,-1.9301,-1.9301,-1.9301,-1.9301,-1.9301,-1.9301,-1.9301,-1.9301,-1.9301,-1.9301,-1.9301,-1.8993,-1.8227,-1.8573,-1.8186,-1.7147,-1.7454,-1.8625,-2.0512,-1.9314,-1.8731,0.0,0.0,0.0,0.0,0.0,0.0,-2.0625,0.0,-2.0508,0.0,0.0,0.0,0.0,0.0,0.0,0.0,0.0,0.0,0.0,0.0,0.0,0.0,0.0,0.0,0.0,0.0,0.0,0.0,0.0,-1.9507,-1.924,-1.891,-1.8741,-1.8741,-1.8741,-1.8674,-1.8617,-1.8942,-1.9198,-1.9452,-1.9916,-2.0122,-1.9998,-2.0052,-1.9849,-1.9423,-1.8882,-1.8562,-1.8603,-1.8184,-1.8008,-1.8076,-1.8664,-1.8854,-1.8854,-1.8854,-1.8826,-1.8724,-1.8484,-1.8606,-1.8809,-1.917,-1.9531,-1.9824,-1.9824,-1.9824,-1.9785,-1.96,-1.9365,-1.9131,-1.8955,-1.8594,-1.8202,-1.8123,-1.7909,-1.7638,-1.7432,-1.7713,-1.7993,-1.8193,-1.8591,-1.8911,-1.9228,-1.9301,-1.9301,-1.9301,-1.9301,-1.9301,-1.9301,-1.9301,-1.9301,-1.9301,-1.9301,-1.9301,-1.9301,-1.9301,-1.9301,-1.9301,-1.9301,-1.9054,-1.8567,-1.8567,-1.8158,-1.7269,-1.7425,-1.7261,-1.6698,-1.6841,-1.7399,-1.8303,-1.7738,-1.726,-2.0381,0.0,0.0,0.0,0.0,0.0,0.0,0.0,0.0,0.0,0.0,0.0,0.0,0.0,0.0,0.0,0.0,0.0,0.0,0.0,0.0,0.0,0.0,0.0,0.0,0.0,0.0,-1.9116,-1.925,-1.9233,-1.8828,-1.8674,-1.8549,-1.8482,-1.8482,-1.8482,-1.8482,-1.8482,-1.8674,-1.9121,-1.951,-1.9589,-1.9481,-1.9971,-1.9945,-1.9443,-1.9121,-1.8926,-1.8779,-1.8359,-1.8115,-1.8008,-1.8008,-1.8008,-1.8008,-1.8008,-1.8203,-1.8418,-1.8115,-1.8496,-1.9111,-1.9111,-1.9189,-1.9287,-1.9287,-1.9287,-1.9268,-1.9141,-1.8877,-1.8543,-1.8416,-1.8163,-1.7862,-1.7716,-1.7579,-1.7501,-1.7235,-1.7418,-1.7648,-1.8027,-1.8357,-1.8715,-1.9219,-1.9301,-1.9301,-1.9301,-1.9301,-1.9301,-1.9301,-1.9301,-1.9301,-1.9301,-1.9301,-1.9301,-1.9301,-1.9301,-1.9222,-1.8975,-1.8727,-1.8318,-1.7674,-1.7666,-1.7261,-1.637,-1.637,-1.6206,-1.5966,-1.5966,-1.5966,-1.5966,-1.6206,-1.5966,0.0,0.0,0.0,-1.8095,0.0,0.0,0.0,0.0,-1.8078,0.0,0.0,0.0,0.0,0.0,0.0,0.0,0.0,0.0,0.0,0.0,0.0,0.0,0.0,0.0,0.0,0.0,0.0,-1.9075,-1.9085,-1.9019,-1.8808,-1.8808,-1.8684,-1.8482,-1.8482,-1.8482,-1.8482,-1.8482,-1.8482,-1.8549,-1.8775,-1.8904,-1.8934,-1.9576,-1.9893,-1.9893,-1.9883,-1.9639,-1.9238,-1.8799,-1.8379,-1.8008,-1.8008,-1.8008,-1.8008,-1.8008,-1.8018,-1.8027,-1.8018,-1.8291,-1.8592,-1.8592,-1.8945,-1.9287,-1.9287,-1.9287,-1.9199,-1.8779,-1.8582,-1.8465,-1.7909,-1.7716,-1.7647,-1.7529,-1.7382,-1.7235,-1.7166,-1.7047,-1.7165,-1.7963,-1.8137,-1.8394,-1.9164,-1.9301,-1.9301,-1.9301,-1.9301,-1.9301,-1.9301,-1.9301,-1.9301,-1.9301,-1.9301,-1.9301,-1.9301,-1.9301,-1.8975,-1.8078,-1.7269,-1.678,-1.678,-1.678,-1.6288,-1.5477,-1.5477,-1.5068,-1.4166,-1.4166,-1.4166,-1.4166,-1.5068,-1.5394,0.0,0.0,-1.7997,-1.7997,0.0,0.0,0.0,0.0,0.0,0.0,0.0,0.0,0.0,0.0,0.0,0.0,0.0,0.0,0.0,0.0,0.0,0.0,0.0,0.0,0.0,0.0,0.0,-1.9075,-1.9008,-1.8875,0.0,-1.8674,-1.8539,-1.8337,-1.8347,-1.8279,-1.8144,-1.8144,-1.8144,-1.8154,-1.8507,-1.8703,-1.8723,-1.9238,-1.9648,-1.9902,-1.9619,-1.9424,-1.9248,-1.8818,-1.8389,-1.8008,-1.8008,-1.8008,-1.8008,-1.8008,-1.8008,-1.8008,-1.8008,-1.8105,-1.8223,-1.8223,-1.832,-1.8437,-1.8437,-1.8368,-1.8259,-1.8193,-1.8016,-1.7849,-1.7745,-1.7647,-1.752,-1.7314,-1.7235,-1.7166,-1.7038,-1.6978,-1.7147,-1.7963,-1.8128,-1.8375,-1.9164,-1.9301,-1.9301,-1.9301,-1.9301,-1.9301,-1.9301,-1.9301,-1.9301,-1.9301,-1.9301,-1.9054,-1.8487,-1.7917,-1.7423,-1.7188,-1.6854,-1.6453,-1.5884,-1.5801,-1.5394,-1.458,-1.458,-1.4412,-1.4088,-1.4088,-1.4088,-1.4088,-1.4412,-1.458,-1.7115,-1.7115,0.0,-1.7115,-1.7115,0.0,-1.7115,0.0,0.0,0.0,0.0,0.0,0.0,0.0,0.0,0.0,0.0,0.0,0.0,0.0,0.0,0.0,0.0,0.0,0.0,0.0,-1.9075,-1.8875,-1.8808,-1.8741,0.0,0.0,-1.8347,-1.8212,-1.8202,-1.8144,-1.8008,-1.8008,-1.8008,-1.8018,-1.8437,-1.8562,-1.8652,-1.9092,-1.9434,-1.9678,-1.9404,-1.9199,-1.9033,-1.875,-1.8389,-1.8008,-1.8008,-1.8008,-1.8008,-1.8008,-1.8008,-1.8008,-1.8008,-1.8008,-1.8008,-1.8008,-1.8008,-1.8008,-1.794,-1.7784,-1.7745,-1.7977,-1.7781,-1.7567,-1.77,-1.7565,-1.7323,-1.7176,-1.7107,-1.7038,-1.6908,-1.7018,-1.7312,-1.799,-1.8238,-1.854,-1.9191,-1.9301,-1.9301,-1.9301,-1.9301,-1.9301,-1.9301,-1.9301,-1.9213,-1.8895,-1.8816,-1.8487,-1.7594,-1.678,-1.6206,-1.6206,-1.5966,-1.556,-1.4985,-1.4901,-1.4713,-1.4242,-1.4142,-1.4135,-1.4242,-1.4135,-1.4088,-1.4088,-1.4088,-1.4088]},{"header":{"parameterUnit":"m.s-1","parameterCategory":1,"la1":30.6,"la2":29.2853,"lo1":-89.7004,"lo2":-87.6739,"dy":0.0162,"dx":0.0183,"nx":112,"ny":82,"refTime":"2023-07-21T12:00:00:Z","depth":0,"parameterNumber":3,"parameterNumberName":"V-component_of_WINDS"},"data":[0.0,0.0,0.0,0.0,0.0,0.0,0.0,0.0,0.0,0.0,0.0,0.0,0.0,0.0,0.0,0.0,0.0,0.0,0.0,0.0,0.0,0.0,0.0,0.0,0.0,0.0,0.0,0.0,0.0,0.0,0.0,0.0,0.0,0.0,0.0,0.0,0.0,0.0,0.0,0.0,0.0,0.0,0.0,0.0,0.0,0.0,0.0,0.0,0.0,0.0,0.0,0.0,0.0,0.0,0.0,0.0,0.0,0.0,0.0,0.0,0.0,0.0,0.0,0.0,0.0,0.0,0.0,0.0,0.0,0.0,0.0,0.0,0.0,0.0,0.0,0.0,0.0,0.0,0.0,0.0,0.0,0.0,0.0,0.0,0.0,0.0,0.0,0.0,0.0,0.0,-2.4005,-2.381,-2.4464,-2.4912,-2.4912,-2.4912,-2.4269,-2.2777,0.0,0.0,0.0,0.0,0.0,0.0,0.0,0.0,0.0,0.0,0.0,0.0,0.0,0.0,0.0,0.0,0.0,0.0,0.0,0.0,0.0,0.0,0.0,0.0,0.0,0.0,0.0,0.0,0.0,0.0,0.0,0.0,0.0,0.0,0.0,0.0,0.0,0.0,0.0,0.0,0.0,0.0,0.0,0.0,0.0,0.0,0.0,0.0,0.0,0.0,0.0,0.0,0.0,0.0,0.0,0.0,0.0,0.0,0.0,0.0,0.0,0.0,0.0,0.0,0.0,0.0,0.0,0.0,0.0,0.0,0.0,0.0,0.0,0.0,0.0,0.0,0.0,0.0,0.0,0.0,0.0,0.0,0.0,0.0,0.0,0.0,0.0,0.0,0.0,0.0,0.0,0.0,0.0,0.0,0.0,0.0,0.0,0.0,0.0,0.0,0.0,0.0,0.0,0.0,-2.4028,-2.5233,-2.5096,-2.4912,-2.4912,-2.4912,-2.4269,-2.2777,0.0,0.0,0.0,0.0,0.0,0.0,0.0,0.0,0.0,0.0,0.0,0.0,0.0,0.0,0.0,0.0,0.0,0.0,0.0,0.0,0.0,0.0,0.0,0.0,0.0,0.0,0.0,0.0,0.0,0.0,0.0,0.0,0.0,0.0,0.0,0.0,0.0,0.0,0.0,0.0,0.0,0.0,0.0,0.0,0.0,0.0,0.0,0.0,0.0,0.0,0.0,0.0,0.0,0.0,0.0,0.0,0.0,0.0,0.0,0.0,0.0,0.0,0.0,0.0,0.0,0.0,0.0,0.0,0.0,0.0,0.0,0.0,0.0,0.0,0.0,0.0,0.0,0.0,0.0,0.0,0.0,0.0,0.0,0.0,0.0,0.0,0.0,0.0,0.0,0.0,0.0,0.0,0.0,0.0,0.0,0.0,0.0,0.0,0.0,0.0,0.0,0.0,0.0,-2.4174,-2.4761,-2.6036,-2.5703,-2.5269,-2.4985,-2.5207,-2.4716,-2.3218,-2.3124,0.0,0.0,0.0,0.0,0.0,0.0,0.0,0.0,0.0,0.0,0.0,0.0,0.0,0.0,0.0,0.0,0.0,0.0,0.0,0.0,0.0,0.0,0.0,0.0,0.0,0.0,0.0,0.0,0.0,0.0,0.0,0.0,0.0,0.0,0.0,0.0,0.0,0.0,0.0,0.0,0.0,0.0,0.0,0.0,0.0,0.0,0.0,0.0,0.0,0.0,0.0,0.0,0.0,0.0,0.0,0.0,0.0,0.0,0.0,0.0,0.0,0.0,0.0,0.0,0.0,0.0,0.0,0.0,0.0,0.0,0.0,0.0,0.0,0.0,0.0,0.0,0.0,0.0,0.0,0.0,0.0,0.0,0.0,0.0,0.0,0.0,0.0,0.0,0.0,0.0,0.0,0.0,0.0,0.0,0.0,0.0,0.0,0.0,0.0,0.0,0.0,0.0,-2.5583,-2.5742,-2.6908,-2.6517,-2.593,-2.5421,-2.5805,-2.529,-2.3609,-2.3634,0.0,0.0,0.0,0.0,0.0,0.0,0.0,0.0,0.0,0.0,0.0,0.0,0.0,0.0,0.0,0.0,0.0,0.0,0.0,0.0,0.0,0.0,0.0,0.0,0.0,0.0,0.0,0.0,0.0,0.0,0.0,0.0,0.0,0.0,0.0,0.0,0.0,0.0,0.0,0.0,0.0,0.0,0.0,0.0,0.0,0.0,0.0,0.0,0.0,0.0,0.0,0.0,0.0,0.0,0.0,0.0,0.0,0.0,0.0,0.0,0.0,0.0,0.0,0.0,0.0,0.0,0.0,0.0,0.0,0.0,0.0,0.0,0.0,0.0,0.0,0.0,0.0,0.0,0.0,0.0,0.0,0.0,0.0,0.0,0.0,0.0,0.0,0.0,0.0,0.0,0.0,0.0,0.0,0.0,0.0,0.0,0.0,0.0,0.0,0.0,0.0,0.0,-2.6282,-2.6993,-2.811,-2.7716,-2.7262,-2.666,-2.6648,-2.5761,-2.3597,-2.3886,0.0,0.0,0.0,0.0,0.0,0.0,0.0,0.0,0.0,0.0,0.0,0.0,0.0,0.0,0.0,0.0,0.0,0.0,0.0,0.0,0.0,0.0,0.0,0.0,0.0,0.0,0.0,0.0,0.0,0.0,0.0,0.0,0.0,0.0,0.0,0.0,0.0,0.0,0.0,0.0,0.0,0.0,0.0,0.0,0.0,0.0,0.0,0.0,0.0,0.0,0.0,0.0,0.0,0.0,0.0,0.0,0.0,0.0,0.0,0.0,0.0,0.0,0.0,0.0,0.0,0.0,0.0,0.0,0.0,0.0,0.0,0.0,0.0,0.0,0.0,0.0,0.0,0.0,0.0,0.0,0.0,0.0,0.0,0.0,0.0,0.0,0.0,0.0,0.0,0.0,0.0,0.0,0.0,0.0,0.0,0.0,0.0,0.0,0.0,0.0,0.0,0.0,-2.6698,-2.7471,0.0,-2.8139,-2.7854,-2.7331,-2.7243,-2.6332,-2.423,0.0,0.0,0.0,0.0,0.0,0.0,0.0,0.0,0.0,0.0,0.0,0.0,0.0,0.0,0.0,0.0,0.0,0.0,0.0,0.0,0.0,0.0,0.0,0.0,0.0,0.0,0.0,0.0,0.0,0.0,0.0,0.0,0.0,0.0,0.0,0.0,0.0,0.0,0.0,0.0,0.0,0.0,0.0,0.0,0.0,0.0,0.0,0.0,0.0,0.0,0.0,0.0,0.0,0.0,0.0,0.0,0.0,0.0,0.0,0.0,0.0,0.0,0.0,0.0,0.0,0.0,0.0,0.0,0.0,0.0,0.0,0.0,0.0,0.0,0.0,0.0,0.0,0.0,0.0,0.0,0.0,0.0,0.0,0.0,0.0,0.0,0.0,0.0,0.0,0.0,0.0,0.0,0.0,0.0,0.0,0.0,0.0,0.0,0.0,0.0,0.0,0.0,-2.6037,-2.7253,-2.828,0.0,-2.9062,-2.8861,-2.819,-2.7934,-2.6896,-2.4778,0.0,0.0,0.0,0.0,0.0,0.0,0.0,0.0,0.0,0.0,0.0,0.0,0.0,0.0,0.0,0.0,0.0,0.0,0.0,0.0,0.0,0.0,0.0,0.0,0.0,0.0,0.0,0.0,0.0,0.0,0.0,0.0,0.0,0.0,0.0,0.0,0.0,0.0,0.0,0.0,0.0,0.0,0.0,0.0,0.0,0.0,0.0,0.0,0.0,0.0,0.0,0.0,0.0,0.0,0.0,0.0,0.0,0.0,0.0,0.0,0.0,0.0,0.0,0.0,0.0,0.0,0.0,0.0,0.0,0.0,0.0,0.0,0.0,0.0,0.0,0.0,0.0,0.0,0.0,0.0,0.0,0.0,0.0,0.0,0.0,0.0,0.0,0.0,0.0,0.0,0.0,0.0,0.0,0.0,0.0,0.0,0.0,0.0,0.0,0.0,0.0,0.0,-2.6518,-2.819,-2.9483,-3.0059,-3.062,-3.0503,-2.9366,-2.8712,-2.7439,0.0,0.0,0.0,0.0,0.0,0.0,0.0,0.0,0.0,0.0,0.0,0.0,0.0,0.0,0.0,0.0,0.0,0.0,0.0,0.0,0.0,0.0,0.0,0.0,0.0,0.0,0.0,0.0,0.0,0.0,0.0,0.0,0.0,0.0,0.0,0.0,0.0,0.0,0.0,0.0,0.0,0.0,0.0,0.0,0.0,0.0,0.0,0.0,0.0,0.0,0.0,0.0,0.0,0.0,0.0,0.0,0.0,0.0,0.0,0.0,0.0,0.0,0.0,0.0,0.0,0.0,0.0,0.0,0.0,0.0,0.0,0.0,0.0,0.0,0.0,0.0,0.0,0.0,0.0,0.0,0.0,0.0,0.0,0.0,0.0,0.0,0.0,0.0,0.0,0.0,0.0,0.0,0.0,0.0,0.0,0.0,0.0,0.0,0.0,0.0,0.0,0.0,0.0,-2.6007,-2.7236,-2.8268,-2.883,-2.9431,-2.947,-2.8712,-2.8111,-2.7024,-2.5205,0.0,0.0,0.0,0.0,0.0,0.0,0.0,0.0,0.0,0.0,0.0,0.0,0.0,0.0,0.0,0.0,0.0,0.0,0.0,0.0,0.0,0.0,0.0,0.0,0.0,0.0,0.0,0.0,0.0,0.0,0.0,0.0,0.0,0.0,0.0,0.0,0.0,0.0,0.0,0.0,0.0,0.0,0.0,0.0,0.0,0.0,0.0,0.0,0.0,0.0,0.0,0.0,0.0,0.0,0.0,0.0,0.0,0.0,0.0,0.0,0.0,0.0,0.0,0.0,0.0,0.0,0.0,0.0,0.0,0.0,0.0,0.0,0.0,0.0,0.0,0.0,0.0,0.0,0.0,0.0,0.0,0.0,0.0,0.0,0.0,0.0,0.0,0.0,0.0,0.0,0.0,0.0,0.0,0.0,0.0,0.0,0.0,0.0,0.0,0.0,0.0,0.0,-2.5746,-2.6817,-2.7745,-2.832,-2.8922,-2.9039,-2.8438,-2.7863,-2.6908,-2.5447,0.0,0.0,0.0,0.0,0.0,0.0,0.0,0.0,0.0,0.0,0.0,0.0,0.0,0.0,0.0,0.0,0.0,0.0,0.0,0.0,0.0,0.0,0.0,0.0,0.0,0.0,0.0,0.0,0.0,0.0,0.0,0.0,0.0,0.0,0.0,0.0,0.0,0.0,0.0,0.0,0.0,0.0,0.0,0.0,0.0,0.0,0.0,0.0,0.0,0.0,0.0,0.0,0.0,0.0,0.0,0.0,0.0,0.0,0.0,0.0,0.0,0.0,0.0,0.0,0.0,0.0,0.0,0.0,0.0,0.0,0.0,0.0,0.0,0.0,0.0,0.0,0.0,0.0,0.0,0.0,0.0,0.0,0.0,0.0,0.0,0.0,0.0,0.0,0.0,0.0,0.0,0.0,0.0,0.0,0.0,0.0,0.0,0.0,0.0,0.0,0.0,0.0,-2.5746,-2.6726,-2.7615,-2.8242,-2.8791,-2.8895,-2.8347,-2.7785,-2.6987,-2.589,0.0,0.0,0.0,0.0,0.0,0.0,0.0,0.0,0.0,0.0,0.0,0.0,0.0,0.0,0.0,0.0,0.0,0.0,0.0,0.0,0.0,0.0,0.0,0.0,0.0,0.0,0.0,0.0,0.0,0.0,0.0,0.0,0.0,0.0,0.0,0.0,0.0,0.0,0.0,0.0,0.0,0.0,0.0,0.0,0.0,0.0,0.0,0.0,0.0,0.0,0.0,0.0,0.0,0.0,0.0,0.0,0.0,0.0,0.0,0.0,-2.0781,0.0,0.0,0.0,0.0,0.0,0.0,0.0,0.0,0.0,0.0,0.0,0.0,0.0,0.0,0.0,0.0,0.0,0.0,0.0,0.0,0.0,0.0,0.0,0.0,0.0,0.0,0.0,0.0,0.0,0.0,0.0,0.0,0.0,0.0,0.0,0.0,0.0,0.0,0.0,0.0,0.0,-2.5694,-2.6033,-2.6582,-2.7602,-2.7824,-2.785,-2.7719,-2.7183,-2.6556,-2.5876,-2.5288,0.0,0.0,0.0,0.0,0.0,0.0,0.0,0.0,0.0,0.0,0.0,0.0,0.0,0.0,0.0,0.0,0.0,0.0,0.0,0.0,0.0,0.0,0.0,0.0,0.0,0.0,0.0,0.0,0.0,0.0,0.0,0.0,0.0,0.0,0.0,0.0,0.0,0.0,0.0,0.0,0.0,0.0,0.0,0.0,0.0,0.0,0.0,0.0,0.0,0.0,0.0,0.0,0.0,0.0,0.0,0.0,0.0,0.0,0.0,0.0,-2.2145,0.0,0.0,0.0,0.0,0.0,0.0,0.0,0.0,0.0,0.0,0.0,0.0,0.0,0.0,0.0,0.0,0.0,0.0,0.0,0.0,0.0,0.0,0.0,0.0,0.0,0.0,0.0,0.0,0.0,0.0,0.0,0.0,0.0,0.0,0.0,0.0,0.0,0.0,0.0,0.0,-2.568,-2.5824,-2.6269,-2.7406,-2.7523,-2.7523,-2.7523,-2.7,-2.6425,-2.5863,-2.5288,0.0,0.0,0.0,0.0,0.0,0.0,0.0,0.0,0.0,0.0,0.0,0.0,0.0,0.0,0.0,0.0,0.0,0.0,0.0,0.0,0.0,0.0,0.0,0.0,0.0,0.0,0.0,0.0,0.0,0.0,0.0,0.0,0.0,0.0,0.0,0.0,0.0,0.0,0.0,0.0,0.0,0.0,0.0,0.0,0.0,0.0,0.0,0.0,0.0,0.0,0.0,0.0,0.0,-2.1636,-2.2134,-2.2569,-2.3022,-2.3254,-2.3452,-2.3369,-2.3199,-2.2896,0.0,0.0,0.0,0.0,0.0,0.0,0.0,0.0,0.0,0.0,0.0,0.0,0.0,0.0,0.0,0.0,0.0,0.0,0.0,0.0,0.0,0.0,0.0,0.0,0.0,-2.6478,-2.6687,0.0,0.0,0.0,0.0,0.0,0.0,0.0,0.0,0.0,0.0,0.0,0.0,-2.5694,-2.5903,-2.6373,-2.7419,-2.7523,-2.7523,-2.7523,-2.7,-2.6425,-2.5863,-2.5288,-2.4713,0.0,0.0,0.0,0.0,0.0,0.0,0.0,0.0,0.0,0.0,0.0,0.0,0.0,0.0,0.0,0.0,0.0,0.0,0.0,0.0,0.0,0.0,0.0,0.0,0.0,0.0,0.0,0.0,0.0,0.0,0.0,0.0,-1.7478,-1.7239,0.0,0.0,0.0,0.0,0.0,0.0,0.0,0.0,0.0,0.0,0.0,0.0,0.0,-2.1256,-2.1711,-2.2683,-2.3156,-2.3226,-2.3801,-2.4098,-2.4183,-2.4245,-2.433,-2.4333,-2.4598,0.0,-2.2678,-2.3579,0.0,0.0,0.0,0.0,0.0,0.0,0.0,0.0,0.0,0.0,0.0,0.0,0.0,0.0,0.0,0.0,0.0,0.0,0.0,0.0,0.0,0.0,-2.7377,-2.7298,-2.7352,-2.7352,0.0,-2.657,-2.5746,-2.5092,-2.5022,0.0,0.0,0.0,0.0,0.0,0.0,0.0,-2.5733,-2.6255,-2.6817,-2.7458,-2.7523,-2.7523,-2.7523,-2.7,-2.6425,-2.5863,-2.5288,-2.4713,-2.4138,-2.4112,0.0,0.0,0.0,0.0,0.0,0.0,0.0,0.0,0.0,0.0,0.0,0.0,0.0,0.0,0.0,0.0,0.0,0.0,0.0,0.0,0.0,0.0,0.0,0.0,0.0,0.0,0.0,0.0,0.0,-1.7336,-1.8061,-1.8237,-1.7543,-1.7313,0.0,0.0,0.0,0.0,0.0,0.0,0.0,0.0,0.0,-2.1894,-2.2334,-2.2827,-2.3368,-2.3912,-2.4232,-2.4486,-2.4995,-2.5295,-2.5306,-2.5564,-2.5409,-2.4902,-2.4756,-2.4189,-2.3398,-2.4502,-2.4659,-2.4197,0.0,0.0,0.0,0.0,-2.3706,-2.3925,-2.4696,-2.5122,0.0,0.0,0.0,0.0,0.0,0.0,0.0,0.0,0.0,0.0,0.0,0.0,0.0,-2.7523,-2.7523,-2.7523,-2.7523,-2.7131,-2.6608,0.0,-2.5929,-2.5641,-2.4739,0.0,0.0,0.0,0.0,-2.5288,-2.619,-2.6517,-2.6896,-2.7471,-2.7523,-2.7523,-2.7523,-2.6713,-2.6086,-2.5837,-2.4988,-2.4387,-2.4125,-2.4112,-2.4112,0.0,0.0,0.0,0.0,0.0,0.0,0.0,0.0,0.0,0.0,0.0,0.0,0.0,0.0,0.0,0.0,0.0,0.0,0.0,0.0,0.0,0.0,0.0,0.0,0.0,0.0,0.0,0.0,-1.7805,-1.8931,-1.9316,-1.8579,-1.8354,0.0,0.0,0.0,0.0,0.0,0.0,-2.1575,-2.1765,-2.2363,-2.3488,-2.3931,-2.4547,-2.5233,-2.5347,-2.5637,-2.6103,-2.631,-2.6403,-2.6403,-2.6517,-2.6206,-2.5544,-2.4974,-2.4775,-2.489,-2.5408,-2.5645,-2.5695,-2.5534,-2.5078,-2.4584,-2.4719,-2.495,-2.5252,-2.6042,-2.6536,-2.6804,-2.6514,0.0,-2.5904,-2.508,0.0,0.0,0.0,0.0,-2.6435,-2.6803,-2.7188,-2.7523,-2.7523,-2.7523,-2.7523,-2.7523,-2.7523,-2.7353,0.0,-2.6674,-2.636,-2.5367,0.0,0.0,0.0,0.0,-2.5707,-2.6569,-2.6804,-2.7053,-2.7484,-2.7523,-2.7471,-2.7327,-2.6399,-2.5759,-2.5615,-2.4661,-2.4112,-2.4112,-2.4112,-2.4112,-2.4112,0.0,0.0,0.0,0.0,0.0,0.0,0.0,0.0,0.0,0.0,0.0,0.0,0.0,0.0,0.0,0.0,0.0,0.0,0.0,0.0,0.0,0.0,0.0,0.0,0.0,0.0,0.0,0.0,0.0,-2.0485,-2.0473,0.0,0.0,0.0,0.0,-2.1779,-2.2242,-2.2571,-2.279,-2.3272,-2.3971,-2.5052,-2.5585,-2.6227,-2.7117,-2.7541,-2.7986,-2.8442,-2.8017,-2.7821,-2.779,-2.6951,-2.6548,-2.6455,-2.5575,-2.6109,-2.7474,-2.6165,-2.5226,-2.4748,-2.6188,-2.634,-2.5796,-2.6467,-2.6928,-2.7262,-2.7996,-2.8503,-2.8782,-2.8169,-2.7227,-2.631,-2.597,-2.6023,0.0,0.0,-2.6644,-2.743,-2.7456,-2.7469,-2.7523,-2.7523,-2.7523,-2.7523,-2.7523,-2.7523,-2.7353,0.0,-2.6674,-2.6491,-2.589,0.0,-2.5785,-2.5785,-2.6242,-2.6608,-2.6661,-2.7144,-2.7497,-2.7523,-2.7523,-2.7301,-2.6765,-2.6164,-2.5589,-2.504,-2.4452,-2.4112,-2.4112,-2.4112,-2.4112,-2.4112,-2.4112,0.0,0.0,0.0,0.0,0.0,0.0,0.0,0.0,0.0,0.0,0.0,0.0,0.0,0.0,0.0,0.0,0.0,0.0,0.0,0.0,0.0,0.0,0.0,0.0,0.0,0.0,0.0,0.0,-2.026,-2.0031,0.0,-2.1253,-2.2035,-2.2461,-2.2565,-2.3683,-2.432,-2.437,-2.4798,-2.556,-2.6506,-2.6962,-2.7489,-2.8131,-2.8286,-2.8452,-2.8618,-2.8442,-2.8369,-2.8349,-2.7728,-2.7282,-2.6982,-2.6361,-2.6626,-2.7487,-2.713,-2.7114,-2.738,-2.8,-2.7791,-2.7335,-2.7558,-2.7791,-2.8036,-2.8328,-2.869,-2.8899,-2.8443,-2.7782,-2.7077,-2.6945,-2.7011,-2.7077,-2.6945,-2.7494,-2.7994,-2.7628,-2.7798,-2.7981,-2.7615,-2.7523,-2.7523,-2.7523,-2.7523,-2.7471,-2.7262,-2.7223,-2.704,-2.6465,-2.6373,-2.6373,-2.6373,-2.6543,-2.6804,-2.7183,-2.7406,-2.7523,-2.7523,-2.7523,-2.7301,-2.6726,-2.6151,-2.5576,-2.5001,-2.4426,-2.4112,-2.4112,-2.4112,-2.4112,-2.4112,-2.4112,-2.4157,0.0,0.0,0.0,0.0,0.0,0.0,0.0,0.0,0.0,0.0,0.0,0.0,0.0,0.0,0.0,0.0,0.0,0.0,0.0,0.0,0.0,0.0,0.0,0.0,0.0,0.0,-1.9678,-2.0236,-2.0254,-2.0668,-2.1784,-2.3115,-2.381,-2.3657,-2.5377,-2.6237,-2.5668,-2.6456,-2.698,-2.7336,-2.7733,-2.8108,-2.838,-2.838,-2.8452,-2.8618,-2.8452,-2.838,-2.8359,-2.7748,-2.7303,-2.7003,-2.6537,-2.67,-2.7338,-2.7702,-2.8256,-2.8978,-2.9124,-2.9001,-2.8674,-2.8674,-2.8823,-2.9119,-2.9193,-2.9297,-2.934,-2.8882,-2.8425,-2.8085,-2.7876,-2.7811,-2.7811,-2.7811,-2.7941,-2.8007,-2.7628,-2.7811,-2.8007,-2.7628,-2.7523,-2.7523,-2.7523,-2.7523,-2.7523,-2.7523,-2.7523,-2.7406,-2.7027,-2.6961,-2.6961,-2.6961,-2.6961,-2.7105,-2.7471,-2.7523,-2.7523,-2.7523,-2.7523,-2.7223,-2.6452,-2.6216,-2.5694,-2.4739,-2.4504,-2.4321,-2.4125,-2.4112,-2.4112,-2.4112,-2.4157,-2.4305,-2.4509,0.0,0.0,0.0,0.0,0.0,0.0,0.0,0.0,0.0,0.0,0.0,0.0,0.0,0.0,0.0,0.0,0.0,0.0,0.0,0.0,0.0,0.0,0.0,-1.8287,-1.9301,-2.0271,-2.0736,-2.1296,-2.2048,-2.3271,-2.467,-2.5401,-2.5168,-2.7403,-2.8138,-2.6774,-2.7939,-2.829,-2.7398,-2.7852,-2.7989,-2.7976,-2.7955,-2.8173,-2.8628,-2.8173,-2.7945,-2.7914,-2.7013,-2.661,-2.6589,-2.6123,-2.6446,-2.7282,-2.764,-2.8349,-2.9196,-2.9588,-2.9792,-2.9792,-2.9792,-3.0088,-3.0444,-3.0823,-3.0607,-3.0045,-2.9483,-2.9274,-2.9144,-2.8556,-2.8386,-2.8386,-2.836,-2.7981,-2.7575,-2.7536,-2.7536,-2.7549,-2.7523,-2.7523,-2.7523,-2.7523,-2.7523,-2.7523,-2.7523,-2.7523,-2.7523,-2.7523,-2.7549,-2.7549,-2.7523,-2.7549,0.0,-2.7523,-2.7523,-2.7523,-2.7523,-2.7523,-2.7066,-2.5929,-2.6334,-2.5929,-2.423,-2.4635,-2.4687,-2.4138,-2.4112,-2.4112,-2.4112,-2.4363,-2.4509,-2.4509,0.0,0.0,0.0,0.0,0.0,0.0,0.0,0.0,0.0,0.0,0.0,0.0,0.0,0.0,0.0,0.0,0.0,0.0,0.0,0.0,0.0,0.0,-1.9141,-1.9251,-2.0124,-2.098,-2.1719,-2.1946,-2.282,-2.4908,-2.5869,-2.6616,-2.7185,-2.8539,-2.8907,-2.8157,-2.882,-2.935,-2.9419,-2.9127,-2.9303,-2.9997,-2.8953,-2.8659,-2.9104,-2.8649,-2.8421,-2.8411,-2.7821,-2.7552,-2.7521,-2.7076,-2.7429,-2.8254,-2.7602,-2.8288,-2.9737,-2.9829,-2.9792,-2.9792,-2.9934,-3.0152,-3.0444,-3.0685,-3.0384,-2.9865,-2.9868,-2.9327,-2.8595,-2.8438,-2.8386,-2.8294,-2.7876,-2.8268,-2.8595,-2.7745,-2.7837,-2.8033,-2.7628,-2.7523,-2.7523,-2.7523,-2.7523,-2.7523,-2.7523,-2.7523,-2.7523,-2.7523,-2.7863,-2.8007,-2.7589,-2.7876,0.0,-2.7589,-2.7523,-2.7523,-2.7523,-2.7523,-2.7066,-2.5929,-2.5968,-2.5497,-2.4204,-2.4269,-2.4282,-2.4125,-2.4112,-2.4112,-2.4112,-2.4363,-2.4509,0.0,0.0,0.0,0.0,0.0,0.0,0.0,0.0,0.0,0.0,0.0,0.0,0.0,0.0,0.0,0.0,0.0,0.0,0.0,0.0,0.0,0.0,-1.8953,-2.0248,-2.0793,-2.1299,-2.1933,-2.2832,-2.2965,-2.3777,-2.5816,-2.6717,-2.74,-2.7974,-2.9524,-3.0023,-2.9052,-2.9703,-3.0097,-2.9904,-2.96,-2.9656,-3.0213,-2.8982,-2.8572,-2.9032,-2.8364,-2.8048,-2.8038,-2.7769,-2.7645,0.0,-2.7169,-2.7514,-2.8353,-2.7723,-2.8344,0.0,0.0,0.0,0.0,0.0,-3.047,-3.0533,-3.0773,-3.0615,-3.029,-3.0129,-2.9836,-2.9431,-2.9183,-2.9118,-2.9,-2.8425,-2.8569,-2.8686,-2.7771,-2.7771,-2.7941,-2.7602,-2.7523,-2.7523,-2.7523,-2.7523,-2.7523,-2.7523,-2.7523,0.0,-2.7523,-2.8007,-2.8268,-2.7941,-2.8177,-2.8177,-2.7602,-2.7523,-2.7523,-2.7523,-2.7523,-2.717,-2.6255,-2.6177,0.0,0.0,0.0,-2.436,-2.4125,-2.4112,0.0,0.0,0.0,-2.458,-2.4694,0.0,0.0,0.0,-2.6028,-2.6443,0.0,0.0,0.0,0.0,0.0,0.0,0.0,0.0,0.0,0.0,0.0,0.0,0.0,0.0,0.0,0.0,-2.012,-2.1406,-2.2406,-2.2699,-2.3044,-2.3865,-2.4117,-2.4734,-2.6121,-2.7236,-2.7955,-2.8113,-3.0303,-3.1009,-2.9613,0.0,0.0,0.0,0.0,-2.9791,-2.9814,-2.8698,-2.8381,-2.8903,-2.785,-2.7398,-2.7347,-2.7347,-2.7357,-2.7326,-2.6921,-2.7073,-2.7757,-2.7704,-2.8254,-2.9006,-2.8802,-2.9275,-3.0228,-3.0546,-3.0698,-3.0773,-3.0911,0.0,0.0,-3.032,-3.0438,-3.0686,-3.0111,-2.9941,-2.9823,-2.9248,-2.8739,-2.8242,-2.768,-2.7523,-2.7523,-2.7523,-2.7523,-2.7523,-2.7523,-2.7523,-2.7549,-2.7615,-2.7628,-2.7667,-2.7798,-2.819,-2.8464,-2.8386,-2.849,-2.8347,-2.7706,-2.7628,-2.7602,-2.7536,0.0,0.0,-2.6726,-2.6621,-2.6112,-2.5101,-2.4909,-2.4648,-2.4138,-2.4112,-2.4112,-2.4112,-2.4363,-2.4694,-2.5061,-2.5411,-2.5948,-2.6616,-2.6336,-2.6759,0.0,0.0,0.0,0.0,0.0,0.0,0.0,0.0,0.0,0.0,0.0,0.0,0.0,0.0,0.0,-1.9284,-2.0668,-2.1969,-2.3155,-2.3648,-2.3971,-2.3881,-2.4198,-2.4738,-2.5742,-2.6759,-2.7673,-2.8549,-2.9746,-3.0377,-3.0091,-3.1075,-3.1521,-3.1308,-3.1315,-3.1502,-3.1895,-3.0045,-2.9189,-2.9274,0.0,0.0,-2.7809,-2.7441,-2.7536,-2.7799,-2.7348,-2.7004,-2.6886,-2.7203,-2.7866,-2.8674,-2.9468,-3.0152,-3.0622,-3.0698,-3.0773,-3.0911,-3.0986,-3.0986,-3.0895,-3.032,-2.9902,-2.9497,-2.8895,-2.8726,0.0,-2.802,-2.8111,-2.8242,-2.768,-2.7523,-2.7523,-2.7523,-2.7523,-2.7523,-2.7523,-2.7523,-2.7667,-2.8124,-2.8216,-2.8516,-2.947,-2.934,-2.8935,-2.8451,-2.9183,-2.9418,-2.8347,-2.8216,-2.8033,-2.7575,-2.7523,-2.7301,-2.6726,-2.6242,-2.5694,-2.5014,-2.453,-2.423,-2.4112,-2.4112,-2.4112,-2.4112,-2.4363,-2.4851,-2.5467,-2.5797,-2.651,-2.7524,-2.7137,-2.724,0.0,0.0,0.0,0.0,0.0,0.0,0.0,0.0,0.0,0.0,0.0,-1.6461,0.0,0.0,-1.9398,-2.0704,-2.1624,-2.2711,-2.41,-2.4328,-2.436,-2.4368,-2.4461,-2.4987,-2.5937,-2.6972,-2.8126,-2.9328,-3.0627,-3.1467,-3.1743,-3.1984,-3.2121,-3.211,-3.1928,-3.1973,-3.2449,-3.071,-2.9969,-3.0177,-2.8871,-2.8305,-2.8362,-2.8081,-2.8081,-2.833,-2.759,-2.7431,-2.7666,-2.8122,-2.8757,-2.9496,-3.0139,-3.0457,-3.0609,-3.0761,-3.0911,-3.0947,-3.066,-3.0555,-3.0464,-2.9889,-2.951,-2.9222,-2.8922,-2.883,-2.8712,-2.8124,-2.8164,-2.8242,-2.768,-2.7523,-2.7523,-2.7523,-2.7745,-2.7954,-2.7954,-2.7954,-2.8124,-2.8712,-2.8582,-2.866,-2.9562,-2.9706,-2.9614,-2.9301,-2.9758,-2.9823,-2.8948,-2.8569,-2.8268,-2.7981,-2.7693,-2.7406,-2.7131,-2.6582,-2.589,-2.5014,-2.47,-2.4413,-2.4125,-2.4112,-2.4112,-2.4112,-2.4216,-2.4751,-2.5618,-2.5783,-2.6707,-2.8288,-2.8053,-2.8156,0.0,0.0,0.0,0.0,0.0,0.0,0.0,0.0,-1.4873,-1.6234,-1.6957,-1.7772,-1.9082,-1.9772,-2.0608,-2.2282,-2.2776,-2.339,-2.4742,-2.479,-2.4781,-2.4837,-2.4866,-2.5135,-2.6112,-2.7175,-2.8442,-2.9991,-3.1371,-3.2466,-3.3097,-3.2718,-3.2535,-3.2638,-3.2259,-3.2248,-3.2638,-3.1366,-3.0785,-3.0953,-2.9675,-2.891,-2.8817,-2.8724,-2.8669,-2.8631,-2.7755,-2.7925,-2.8862,-2.9168,-2.9729,-3.0444,-3.0609,-3.0609,-3.052,-3.0911,-3.0986,-3.0921,-3.0451,-3.0228,-3.0045,-2.947,-2.9196,-2.9078,-2.8974,-2.8935,-2.8843,-2.8347,-2.8216,-2.8111,-2.7654,-2.7523,-2.7523,-2.7523,-2.7876,-2.8216,-2.8216,-2.8307,-2.8516,-2.9013,-2.8895,-2.8869,-2.9366,-2.9915,-3.0268,-3.015,-3.0228,-3.0098,-2.9523,-2.8922,-2.8503,-2.8386,-2.7863,-2.7484,-2.7366,-2.6935,-2.6229,-2.5197,-2.5132,-2.4983,-2.4629,-2.4662,-2.4667,-2.4606,-2.4606,-2.5043,-2.5892,-2.5837,-2.6852,-2.894,-2.894,-2.9169,-0.7051,-0.836,-0.9749,-0.9836,-1.139,-1.3324,0.0,0.0,-1.6578,-1.8476,-1.9579,-2.0271,-2.0456,-2.1337,-2.229,-2.2815,-2.3486,-2.4097,-2.4499,-2.5031,-2.5216,-2.4829,-2.4803,-2.5023,-2.5703,-2.6709,-2.7936,-2.9478,-3.0559,-3.1582,-3.2523,-3.2512,-3.2707,-3.3178,-3.3143,-3.3143,-3.3201,-3.2542,-3.1759,-3.0964,-3.0381,-2.9778,-2.9393,-2.891,-2.8679,-2.8679,-2.7847,-2.8312,-2.9582,-2.9248,-2.9639,-3.0444,-3.0609,-3.0698,-3.0698,-3.0911,-3.0986,-3.0973,-3.0908,-3.0555,-3.0045,-2.947,-2.8922,-2.8386,-2.7876,-2.7719,-2.7719,-2.7641,-2.7628,-2.7615,-2.7549,-2.7523,-2.7523,-2.7523,-2.7575,-2.7628,-2.7628,-2.802,-2.8399,-2.8464,-2.9261,-2.9954,-3.0032,-3.0503,-3.0725,-3.0215,-3.0568,-3.0686,-3.0111,-2.9536,-2.8974,-2.8438,-2.7863,-2.7327,-2.6817,-2.6713,-2.6399,-2.5772,-2.5733,-2.5915,-2.6478,-2.6598,-2.6634,-2.6497,-2.637,-2.6551,-2.6901,-2.6678,-2.755,-2.9311,-2.9311,-2.9684,-0.836,-0.9238,-1.0066,0.0,-1.2411,-1.3592,-1.5654,-1.6228,-1.6911,-1.9095,-2.0013,-2.0603,-2.1052,-2.1708,-2.2412,0.0,-2.351,-2.3982,-2.4396,-2.4436,-2.4479,-2.4254,-2.4108,-2.4473,-2.5586,-2.6871,-2.8389,-3.022,-3.1269,-3.2305,-3.3315,-3.3097,-3.3051,-3.3281,-3.3281,-3.3281,-3.3281,-3.275,-3.215,-3.1467,-3.0886,-3.0379,-2.9943,-2.9658,-2.9499,-2.9248,-2.8579,-2.8889,-2.9874,-2.9649,-2.996,-3.0609,-3.0761,-3.0773,-3.0698,-3.0911,-3.0986,-3.0934,-3.0607,-3.0333,-2.998,-2.9052,-2.8582,-2.8281,-2.7693,-2.7523,-2.7523,-2.7523,-2.7523,-2.7523,-2.7523,-2.7771,-2.802,-2.802,-2.8294,-2.8634,-2.8974,-2.8974,-2.9104,-2.9758,-3.0019,-3.0241,-3.0568,-3.083,-3.0895,-3.066,-3.083,-3.0895,-3.066,-3.0124,-2.9418,-2.8477,-2.7863,-2.7432,-2.7196,-2.717,-2.6922,-2.6347,-2.6321,-2.6466,-2.6802,-2.6849,-2.6903,-2.6919,-2.7258,-2.7467,-2.7682,-2.8036,-2.8996,-3.0462,-3.0514,-3.092,-0.92,0.0,0.0,-1.2374,-1.31,-1.3823,-1.561,-1.6081,-1.675,-1.9011,-1.9819,-2.0424,-2.126,-2.1672,-2.2256,-2.3125,-2.3432,-2.3732,-2.435,-2.4216,-2.4081,-2.3963,-2.3697,-2.4131,-2.5767,-2.7176,-2.8911,-3.1031,-3.2007,-3.2925,-3.3947,-3.3545,-3.3338,-3.3476,-3.3361,-3.3281,-3.3281,-3.2902,-3.2454,-3.1961,-3.1467,-3.095,-3.0422,-3.0147,-2.998,-2.9954,-2.9414,-2.9598,-3.0279,-3.0279,-3.0444,-3.0773,-3.0911,-3.0911,-3.0773,-3.0911,-3.0986,-3.0934,-3.0516,-3.0163,-2.9758,-2.8908,-2.8412,-2.8072,-2.7654,-2.7523,-2.7562,-2.7719,-2.7771,-2.7798,-2.7968,-2.832,-2.8634,-2.8634,-2.8961,-2.9392,-2.981,-2.9693,-2.9706,-3.0385,-3.0438,-3.0451,-3.0712,-3.0882,-3.0986,-3.0986,-3.0986,-3.0986,-3.0986,-3.049,-2.9745,-2.8739,-2.8111,-2.7771,-2.7771,-2.7628,-2.7406,-2.7182,-2.722,-2.739,-2.7778,-2.7931,-2.7992,-2.8047,-2.841,-2.8633,-2.8681,-2.9074,-2.9982,-3.1236,-3.1328,-3.1751,0.0,0.0,-1.1429,-1.1988,-1.3026,-1.4155,-1.5167,-1.5665,-1.6425,-1.8395,-1.9338,-2.0083,-2.1162,-2.156,-2.204,-2.2735,-2.3116,-2.3607,-2.4314,-2.4563,-2.4611,-2.4198,-2.3794,-2.4297,0.0,-2.7471,-2.9074,-3.1552,-3.2225,-3.2925,-3.3947,-3.3545,-3.3499,-3.3958,-3.3534,-3.3281,-3.3281,-3.3269,-3.2994,-3.2454,-3.1972,-3.1479,-3.0962,-2.9975,-2.9903,-3.0514,-3.0069,-3.0256,-3.0986,-3.0986,-3.0986,-3.0986,-3.0986,-3.0986,-3.0986,-3.0986,-3.0986,-3.0986,-3.096,-3.0228,-2.9301,-2.9261,-2.8477,-2.7549,-2.7536,-2.7523,-2.7641,-2.8203,-2.8347,-2.849,-2.9065,-2.9248,-2.9248,-2.9248,-2.9274,-2.9287,-2.9301,-2.9732,-2.9954,-2.9431,-3.0215,-3.079,-3.0255,-3.062,-3.0986,-3.0986,-3.0986,-3.0986,-3.0986,-3.049,-2.9915,-2.9314,-2.8712,-2.8347,-2.8347,-2.785,-2.7776,-2.839,-2.8454,-2.9002,-3.0332,-3.069,-3.0804,-3.0699,-3.0376,-3.0228,-3.0158,-2.9582,-3.0036,-3.1382,-3.1382,-3.1751,-1.042,0.0,-1.1943,-1.2986,-1.3554,-1.4222,-1.5424,-1.5732,-1.6303,-1.804,-1.8549,-1.9092,-2.003,-2.0511,-2.1154,-2.2274,-2.2823,-2.33,-2.3634,-2.3962,-2.3998,-2.3774,-2.3312,0.0,0.0,0.0,0.0,-3.1579,-3.1903,-3.2431,-3.3465,-3.3373,-3.3361,-3.3522,-3.3373,-3.3281,-3.3281,-3.3281,-3.3017,-3.2477,-3.1662,-3.0996,-3.0445,-2.9875,-2.9976,-3.0572,-3.0169,-3.0381,-3.0986,-3.0986,-3.0986,-3.0986,-3.0986,-3.0986,-3.0986,-3.0986,-3.0986,-3.0986,-3.0986,-3.0738,-3.0346,-2.9967,-2.9327,-2.8686,-2.8686,-2.815,-2.7654,-2.8216,-2.8111,-2.7863,-2.8059,-2.8699,-2.9274,-2.9274,-2.9575,-2.9954,-3.0333,-3.0268,-3.0189,-3.0385,-3.0725,-3.0934,-3.0725,-3.0869,-3.0986,-3.0986,-3.0986,-3.0986,-3.0986,-3.049,-3.0059,-2.9862,-2.9327,-2.9013,-2.9067,-2.8853,-2.8888,-2.917,-2.9142,-2.958,-3.045,-3.0763,-3.0878,-3.094,-3.1334,-3.1338,-3.0846,-3.1219,-3.154,-3.191,-3.2004,-3.2167,-1.1673,-1.217,-1.2744,-1.3818,-1.4045,-1.4276,-1.5102,-1.5158,-1.5591,-1.7326,-1.755,-1.7911,-1.9267,-1.9735,-2.0274,-2.1265,-2.1793,-2.2451,-2.3532,-2.339,-2.3583,-2.4536,-2.3935,-2.4545,0.0,0.0,0.0,-3.1281,-3.1984,-3.25,-3.2971,-3.3178,-3.3281,-3.3281,-3.3281,-3.3281,-3.3281,-3.3097,-3.265,-3.1949,-3.1318,-3.0825,-3.0554,-3.0142,-3.0326,-3.0996,-3.0498,-3.0548,-3.0986,-3.0986,-3.0986,-3.0986,-3.0986,-3.0986,-3.0986,-3.0986,-3.0986,-3.0986,-3.0986,-3.0856,-3.062,-3.0255,-2.9745,-2.9274,-2.9274,-2.8752,-2.8229,-2.8595,-2.8438,-2.8203,-2.8399,-2.9013,-2.964,-2.9849,-3.0019,-3.0294,-3.0869,-3.0542,-3.0307,-3.0869,-3.0986,-3.0986,-3.0986,-3.0986,-3.0986,-3.0986,-3.0986,-3.0986,-3.0986,-3.0869,-3.0838,-3.0838,-3.0606,-3.0431,-3.0498,-3.0124,-2.9956,-3.0182,-3.0078,-3.0208,-3.0837,-3.1087,-3.1243,-3.1359,-3.1977,-3.2087,-3.1658,-3.2127,-3.2342,-3.2287,-3.2342,-3.2398,-1.235,-1.2985,-1.3676,-1.4171,-1.4298,-1.4292,-1.428,-1.4087,-1.4446,-1.6239,-1.6431,-1.6828,0.0,0.0,-1.9385,-2.0027,-2.0325,-2.1355,-2.3779,-2.3093,-2.3426,0.0,0.0,0.0,0.0,0.0,0.0,-3.0812,0.0,-3.2982,-3.2546,-3.3005,-3.3281,-3.3281,-3.3281,-3.3269,-3.3247,-3.2718,-3.1961,-3.1019,-3.1019,-3.1089,-3.1247,-3.07,-3.0846,-3.158,-3.1077,-3.0842,-3.0986,-3.0986,-3.0986,-3.0986,-3.0986,-3.0986,-3.0986,-3.0986,-3.0986,-3.0986,-3.0986,-3.0634,-3.0176,-3.0176,-2.9784,-2.9327,-2.9366,-2.9327,-2.9287,-2.9314,-2.9301,-2.9405,-2.9954,-3.0111,-3.0268,-3.0817,-3.0555,-3.032,-3.0869,-3.0555,-3.0346,-3.0882,-3.0986,-3.0986,-3.0986,-3.0986,-3.0986,-3.0986,-3.0986,-3.0986,-3.0986,-3.1603,-3.2087,-3.2074,-3.2277,-3.241,-3.245,-3.1452,-3.0982,-3.1544,-3.1128,-3.1029,-3.1482,-3.1826,-3.1996,-3.1996,-3.2247,-3.2398,-3.2398,-3.2398,-3.2398,-3.2398,-3.2398,-3.2398,-1.3401,-1.3761,-1.4129,-1.4262,-1.4298,-1.4244,-1.4051,-1.3954,-1.4339,-1.5775,-1.5958,-1.642,0.0,0.0,0.0,-2.0027,-2.0711,0.0,-2.4004,-2.3625,0.0,-2.7452,0.0,-2.6607,-2.9352,-2.9301,0.0,0.0,-3.1375,-3.203,-3.3028,-3.3212,-3.3281,-3.3281,-3.3281,-3.3097,-3.2695,-3.2202,-3.1639,-3.1019,-3.1019,-3.0891,-3.0589,-3.0567,-3.07,-3.1064,-3.0971,-3.0966,-3.0986,-3.0986,-3.0986,-3.0986,-3.0986,-3.0986,-3.0986,-3.0986,-3.0986,-3.0986,-3.0986,-3.0895,-3.0764,-3.0764,-3.0385,-2.9993,-3.0424,-2.9954,-2.9366,-2.9797,-2.9614,-2.9314,-2.9457,-2.981,-3.0176,-3.032,-3.0568,-3.0803,-3.096,-3.0869,-3.0817,-3.096,-3.0986,-3.0986,-3.0986,-3.0986,-3.0986,-3.0986,-3.0986,-3.0986,-3.0986,-3.1198,-3.1455,-3.2015,-3.2154,-3.2444,-3.3111,-3.24,-3.2067,-3.2227,-3.1634,-3.1409,-3.1727,-3.1883,-3.2053,-3.215,-3.2287,-3.2398,-3.2398,-3.2398,-3.2398,-3.2398,-3.2398,-3.2398,-1.4248,-1.437,-1.4479,-1.4479,-1.4304,-1.4181,-1.4403,-1.4264,-1.4532,-1.6029,-1.6261,0.0,0.0,0.0,0.0,0.0,0.0,0.0,-2.3855,-2.4022,-2.5202,0.0,-2.8169,0.0,-3.0376,-3.0337,-3.0413,0.0,-3.1421,-3.2041,-3.2879,-3.3155,-3.3281,-3.3281,-3.3063,-3.2581,-3.1846,-3.157,-3.1367,-3.1122,-3.1122,-3.1217,-3.1321,-3.1129,-3.1165,-3.1241,0.0,-3.0986,-3.0986,-3.0986,-3.0986,-3.0986,-3.0986,-3.0986,-3.0986,-3.0986,-3.0986,-3.0986,-3.0986,-3.083,-3.066,-3.0895,-3.0764,-3.0568,-3.0895,-3.0529,-3.0045,-3.0111,-2.9902,-2.9653,-2.9653,-2.9889,-3.0202,-3.0451,-3.0555,-3.0686,-3.0934,-3.079,-3.0686,-3.0934,-3.0986,-3.0986,-3.0986,-3.0986,-3.0986,-3.0986,-3.1259,-3.1468,-3.1468,-3.175,-3.2101,-3.2506,-3.3213,-3.379,-3.4288,-3.3785,-3.3262,-3.2991,-3.245,-3.2071,-3.1799,-3.1996,-3.215,-3.2191,-3.2342,-3.2398,-3.2398,-3.2398,-3.2398,-3.2398,-3.2398,-3.2398,-1.5303,-1.5128,-1.5103,-1.5103,-1.4682,-1.4446,-1.5134,-1.4966,-1.5067,-1.6669,0.0,-1.6952,-1.787,-1.8074,-1.8228,-1.8763,0.0,-2.109,-2.3792,-2.4436,-2.5996,-2.9724,-2.9792,-2.993,-3.0915,-3.1019,-3.1019,-3.1019,-3.1869,-3.2408,-3.2489,-3.2994,-3.3258,-3.3178,-3.2604,-3.188,-3.1101,-3.1032,-3.1134,-3.1472,-3.1323,-3.1686,-3.2409,-3.1876,-3.1637,-3.1692,0.0,0.0,-3.0986,-3.0986,-3.0986,-3.0986,-3.0986,-3.0986,-3.0986,-3.0986,-3.0986,-3.0986,-3.0986,-3.0607,-3.0228,-3.079,-3.0934,-3.0895,-3.096,-3.0986,-3.0882,-3.0385,-3.0255,-3.0255,-3.0255,-3.0255,-3.0372,-3.0869,-3.0607,-3.0385,-3.0882,-3.0594,-3.0385,-3.0895,-3.0986,-3.1061,-3.1123,-3.1123,-3.1198,-3.1272,-3.1809,-3.2218,-3.2218,-3.2791,-3.3213,-3.3353,-3.4558,-3.5329,-3.5385,-3.4883,-3.4207,-3.3471,-3.3049,-3.2546,-3.1856,-3.2094,-3.2191,-3.2247,-3.2342,-3.2398,-3.2398,-3.2398,-3.2398,-3.2398,-3.2398,-3.2398,-1.7681,-1.7595,-1.7312,-1.7312,-1.6749,-1.6211,-1.612,-1.5864,0.0,0.0,-1.6746,-1.6952,-1.787,-1.8288,0.0,-1.9742,0.0,0.0,0.0,0.0,-2.6285,0.0,0.0,0.0,0.0,0.0,0.0,0.0,0.0,-3.2041,-3.2466,-3.2994,-3.3086,-3.2638,-3.1743,-3.1449,-3.1781,-3.147,-3.1555,-3.214,-3.1712,-3.1573,-3.1851,-3.12,-3.1035,-3.113,-3.1026,0.0,-3.0986,-3.0986,-3.0986,-3.0986,-3.0986,-3.0986,-3.0986,-3.0986,-3.0986,-3.0986,-3.0986,-3.0607,-3.0228,-3.079,-3.066,-3.0372,-3.0843,-3.0986,-3.096,-3.0869,-3.083,-3.083,-3.083,-3.083,-3.0869,-3.096,-3.0908,-3.0869,-3.096,-3.0908,-3.0869,-3.096,-3.0986,-3.1185,-3.1809,-3.1869,-3.2087,-3.2733,-3.2946,-3.3003,-3.3003,-3.3143,-3.3422,-3.4027,-3.4327,-3.4604,-3.4838,-3.4115,-3.3502,-3.3078,-3.2428,-3.2061,-3.215,-3.2206,-3.2247,-3.2342,-3.2398,-3.2398,-3.2398,-3.2398,-3.2398,-3.2398,-3.2398,-3.2398,-1.82,-1.811,-1.8096,-1.7823,-1.7165,-1.661,-1.6984,0.0,0.0,0.0,-1.7367,-1.7529,-1.7951,0.0,0.0,0.0,0.0,0.0,0.0,0.0,0.0,0.0,0.0,0.0,0.0,0.0,0.0,0.0,0.0,-3.1582,-3.2087,-3.2351,-3.2259,-3.1743,-3.126,-3.124,-3.1663,-3.1425,-3.1668,-3.2397,-3.2147,-3.194,-3.177,-3.1486,-3.1203,-3.0986,-3.0986,0.0,-3.0986,-3.0986,-3.0986,-3.0986,-3.0986,-3.0986,-3.0986,-3.0986,-3.0986,-3.0986,-3.0986,-3.0607,-3.0228,-3.079,-3.0594,-3.0241,-3.0817,-3.0986,-3.0986,-3.0986,-3.0986,-3.0986,-3.0986,-3.0986,-3.0986,-3.0986,-3.0986,-3.0986,-3.0986,-3.0986,-3.0986,-3.0986,-3.1334,-3.1663,-3.2015,-3.2434,-3.2791,-3.3143,-3.3561,-3.3768,-3.3768,-3.4138,-3.4341,-3.4312,-3.4369,-3.4466,-3.4565,-3.3935,-3.3321,-3.2896,-3.2579,-3.2361,-3.2206,-3.2247,-3.2342,-3.2398,-3.2398,-3.2398,-3.2398,-3.2398,-3.2398,-3.2398,-3.2398,-3.2398,-1.8885,-1.8859,-1.8981,-1.8631,-1.7796,-1.7213,-1.7858,-1.7467,0.0,0.0,-1.804,-1.804,-1.804,0.0,0.0,0.0,0.0,0.0,0.0,0.0,0.0,0.0,0.0,0.0,0.0,0.0,0.0,0.0,0.0,0.0,-3.1731,-3.1662,-3.1515,-3.1194,-3.109,-3.1281,-3.1749,-3.1616,-3.1945,-3.2702,-3.2459,-3.2127,-3.1759,-3.1718,-3.1418,-3.0986,-3.0986,0.0,0.0,-3.0986,-3.0986,-3.0986,-3.0986,-3.0986,-3.0986,-3.0986,-3.0986,-3.0986,-3.0986,-3.0607,-3.0215,-3.066,-3.0503,-3.0241,-3.0817,-3.0986,-3.0986,-3.0986,-3.0986,-3.0986,-3.0986,-3.0986,-3.0986,-3.0986,-3.0986,-3.0986,-3.0986,-3.0986,-3.0986,-3.0986,-3.1603,-3.2146,-3.229,-3.2932,-3.3492,-3.3644,-3.4192,-3.4528,-3.4528,-3.5133,-3.5279,-3.461,-3.4644,-3.4637,-3.455,-3.3935,-3.3321,-3.2823,-3.2846,-3.2642,-3.2262,-3.2342,-3.2398,-3.2398,-3.2398,-3.2398,-3.2398,-3.2398,-3.2398,-3.2398,-3.2398,-3.2398,-2.1413,-2.1615,-2.1548,-2.1159,-2.023,-1.9326,-1.9075,0.0,0.0,-1.7959,-1.804,-1.804,-1.804,-1.804,-1.8322,0.0,0.0,0.0,0.0,0.0,0.0,0.0,0.0,0.0,0.0,0.0,0.0,0.0,0.0,0.0,-3.1697,-3.1329,-3.1321,-3.1872,-3.1525,-3.1874,-3.3227,-3.2697,-3.2765,-3.3493,-3.2424,-3.1863,-3.1746,-3.13,-3.1039,-3.0986,-3.0986,0.0,0.0,-3.0986,-3.0986,-3.0986,-3.0986,-3.0986,-3.0986,-3.0986,-3.0986,-3.0986,-3.0986,-3.0607,-3.015,-3.0189,-3.0176,-3.0241,-3.0817,-3.0986,-3.0986,-3.0986,-3.0986,-3.0986,-3.0986,-3.0986,-3.0986,-3.0986,-3.0986,-3.0986,-3.0986,-3.0986,-3.0986,-3.0986,-3.1603,-3.229,-3.3003,-3.3699,-3.4461,-3.5213,-3.5359,-3.5359,-3.5359,-3.5424,-3.5439,-3.5424,-3.5379,-3.5224,-3.4736,-3.4044,-3.3547,-3.3172,-3.2619,-3.2308,-3.2398,-3.2398,-3.2398,-3.2398,-3.2398,-3.2398,-3.2398,-3.2398,-3.2398,-3.2398,-3.2398,-3.2398,-2.0617,-2.0977,-2.1225,-2.084,-2.0061,-1.9358,-1.9204,0.0,-1.804,-1.804,-1.804,-1.804,-1.804,-1.804,-1.8164,0.0,0.0,0.0,0.0,0.0,0.0,0.0,0.0,0.0,0.0,0.0,0.0,0.0,0.0,0.0,-3.0898,-3.08,-3.0631,-3.0589,-3.112,-3.1712,-3.2409,-3.2168,-3.2213,-3.2529,-3.2058,-3.1666,-3.1313,-3.1091,-3.0986,-3.0986,-3.0986,0.0,0.0,-3.0986,-3.0986,-3.0986,-3.0986,-3.0986,-3.0986,-3.0986,-3.0986,-3.0986,-3.0986,-3.083,-3.0594,-3.0255,-3.0137,-3.0111,-2.9993,-3.0202,-3.0477,-3.0477,-3.0725,-3.0986,-3.0986,-3.0986,-3.0986,-3.0986,-3.0986,-3.0986,-3.0986,-3.0986,-3.1123,-3.1603,-3.2232,-3.3003,-3.3768,-3.4476,-3.5133,-3.5424,-3.5539,-3.5604,-3.5504,-3.5539,-3.5589,-3.5589,-3.5228,-3.4946,-3.4738,-3.4166,-3.3681,-3.3245,-3.294,-3.266,-3.2413,-3.2398,-3.2398,-3.2398,-3.2398,-3.2398,-3.2398,-3.2398,-3.2398,-3.2398,-3.2398,-3.2398,-1.9915,-2.0386,-2.0788,-2.0386,-1.9812,-1.9281,0.0,0.0,-1.804,-1.804,-1.804,-1.804,-1.804,-1.8201,-1.8353,0.0,0.0,0.0,0.0,0.0,0.0,0.0,0.0,0.0,0.0,0.0,0.0,0.0,0.0,0.0,0.0,-3.0603,-3.0689,-3.0337,-3.1109,-3.1718,-3.1979,-3.1813,-3.177,-3.1759,-3.1666,-3.1378,-3.0986,-3.0986,-3.0986,-3.0986,0.0,0.0,0.0,-3.0986,-3.0986,-3.0986,-3.0986,-3.0986,-3.0986,-3.0986,-3.0986,-3.0986,-3.0986,-3.0869,-3.0647,-3.0072,-2.9758,-2.951,-2.8935,-2.9405,-3.0176,-3.0346,-3.0673,-3.0986,-3.0986,-3.0986,-3.0986,-3.0986,-3.0986,-3.0986,-3.0986,-3.1198,-3.1468,-3.2015,-3.2847,-3.3699,-3.4245,-3.4986,-3.5504,-3.5504,-3.5604,-3.5604,-3.5504,-3.5589,-3.5688,-3.5688,-3.5407,-3.512,-3.5057,-3.4471,-3.3891,-3.3521,-3.3165,-3.2778,-3.2413,-3.2398,-3.2398,-3.2398,-3.2398,-3.2398,-3.2398,-3.2398,-3.2398,-3.2398,-3.2398,-3.2398,-2.0086,-2.0574,-2.0788,-2.0386,-2.0009,-1.9538,0.0,0.0,-1.804,-1.804,-1.804,-1.804,-1.804,-1.8523,-1.9152,-1.952,0.0,0.0,0.0,0.0,0.0,0.0,0.0,0.0,0.0,0.0,0.0,0.0,0.0,0.0,0.0,-3.1001,-3.1737,-3.1655,-3.1668,-3.1992,-3.2698,-3.2136,-3.1772,-3.1759,-3.1261,-3.0999,-3.0986,-3.0986,-3.0986,0.0,0.0,0.0,0.0,-3.0986,-3.0986,-3.0986,-3.0986,-3.0986,-3.0986,-3.0986,-3.0986,-3.0986,-3.0986,-3.062,-3.0045,-2.947,-2.8882,-2.8294,-2.7719,-2.8765,-3.0255,-3.0817,-3.0986,-3.0986,-3.0986,-3.0986,-3.0986,-3.0986,-3.0986,-3.0986,-3.0986,-3.1603,-3.2074,-3.2074,-3.3255,-3.4312,-3.4312,-3.4986,-3.5504,-3.5504,-3.5504,-3.5504,-3.5504,-3.5589,-3.5688,-3.5688,-3.6006,-3.6133,-3.6022,-3.4912,-3.4193,-3.4193,-3.3095,-3.2398,-3.2398,-3.2398,-3.2398,-3.2398,-3.2398,-3.2398,-3.2398,-3.2398,-3.2398,-3.2398,-3.2398,-3.2398,-1.9059,-1.9418,-1.9684,-1.9555,-1.9239,-1.8888,-1.8639,0.0,-1.8193,-1.8975,-1.8904,-1.8904,-1.958,-1.9668,-1.9678,-1.9747,-2.0353,0.0,0.0,0.0,0.0,0.0,0.0,0.0,0.0,0.0,0.0,0.0,0.0,0.0,0.0,-3.1115,-3.0963,-3.0517,-3.1356,-3.1695,-3.1535,-3.1352,-3.1261,-3.1248,-3.1065,-3.0986,-3.0986,-3.0986,0.0,0.0,0.0,0.0,0.0,-3.0986,-3.0986,-3.0986,-3.0986,-3.0986,-3.0986,-3.0986,-3.0986,-3.0986,-3.0986,-3.0869,-3.062,-3.0059,-2.947,-2.9039,-2.9248,-2.9418,-2.9758,-3.0712,-3.0986,-3.0986,-3.0986,-3.0986,-3.0986,-3.0986,-3.1408,-3.1736,-3.1736,-3.2304,-3.3003,-3.3547,-3.3959,-3.4461,-3.5052,-3.5344,-3.5504,-3.5504,-3.5604,-3.5653,-3.5653,-3.5767,-3.5958,-3.6006,-3.6148,-3.6211,-3.6148,-3.5462,-3.4893,-3.4432,-3.3598,-3.2875,-3.2413,-3.2398,-3.2398,-3.2398,-3.2398,-3.2398,-3.2398,-3.2398,-3.2398,-3.2398,-3.2398,-3.2398,0.0,-1.8768,-1.8956,-1.8956,-1.8935,0.0,0.0,0.0,-1.8816,-1.9292,-1.945,-1.9756,-2.0343,-2.0663,-2.075,-2.0894,-2.1201,0.0,0.0,0.0,0.0,0.0,0.0,0.0,0.0,0.0,0.0,0.0,0.0,0.0,0.0,-3.1223,-3.0932,-3.0368,-3.1098,-3.1352,-3.0986,-3.0986,-3.0986,-3.0986,-3.0986,-3.0986,-3.0986,-3.0986,0.0,0.0,0.0,0.0,0.0,-3.0986,-3.0986,-3.0986,-3.0986,-3.0986,-3.0986,-3.0986,-3.0986,-3.0986,-3.0986,-3.0843,-3.0568,-3.0006,-2.9418,-2.9091,-2.9889,-3.0045,-3.0072,-3.079,-3.0986,-3.0986,-3.0986,-3.0986,-3.1048,-3.1334,-3.1736,-3.2146,-3.2434,-3.3073,-3.3768,-3.4245,-3.4543,-3.4905,-3.5424,-3.5504,-3.5504,-3.5504,-3.5589,-3.5688,-3.5688,-3.5894,-3.6085,-3.6196,-3.6274,-3.6274,-3.6274,-3.5799,-3.5183,-3.4506,-3.3798,-3.3106,-3.2428,-3.2398,-3.2521,-3.2767,-3.2521,-3.2521,-3.2782,-3.2521,-3.2398,-3.2398,-3.2398,-3.2398,0.0,0.0,0.0,0.0,0.0,0.0,0.0,0.0,0.0,-1.9381,-1.9982,-2.0653,-2.073,-2.1507,-2.2285,-2.266,-2.2905,0.0,0.0,0.0,0.0,0.0,0.0,0.0,0.0,0.0,0.0,0.0,0.0,0.0,0.0,-3.141,-3.1535,-3.0999,-3.0986,-3.0986,-3.0986,-3.0986,-3.0986,-3.0986,-3.0986,-3.0986,-3.0986,-3.0986,0.0,0.0,0.0,0.0,0.0,-3.0986,-3.0986,-3.0986,-3.0986,-3.0986,-3.0986,-3.0986,-3.0986,-3.0986,-3.0986,-3.0634,-3.0098,-2.9523,-2.9057,-2.8821,-2.9882,-3.0503,-3.0934,-3.0973,-3.0986,-3.0986,-3.0986,-3.1061,-3.1259,-3.1942,-3.2146,-3.2434,-3.3143,-3.3837,-3.438,-3.438,-3.4986,-3.5504,-3.5504,-3.5504,-3.5504,-3.5504,-3.5589,-3.5688,-3.5752,-3.6006,-3.6211,-3.6211,-3.6414,-3.6492,-3.6492,-3.5876,-3.5183,-3.4506,-3.3844,-3.3183,-3.249,-3.2505,-3.2813,-3.3398,-3.2736,-3.2705,-3.3336,-3.269,-3.2398,-3.2398,-3.2398,-3.2398,-1.9667,0.0,-1.825,-1.8816,-1.8977,0.0,0.0,0.0,0.0,0.0,0.0,0.0,0.0,-2.283,-2.2841,-2.2916,-2.3224,0.0,0.0,0.0,0.0,0.0,0.0,0.0,0.0,0.0,0.0,0.0,0.0,0.0,0.0,-3.1341,-3.1117,-3.0986,-3.0986,-3.0986,-3.0986,-3.0986,-3.0986,-3.0986,-3.0986,-3.0986,-3.0986,-3.0986,0.0,0.0,0.0,0.0,-3.0986,-3.0986,-3.0986,-3.0986,-3.0986,-3.0986,-3.0986,-3.0986,-3.0986,-3.0986,-3.0986,-3.0895,-3.0699,-3.0124,-3.0533,-3.1209,-3.0976,-3.0626,-3.0424,-3.0869,-3.0986,-3.0986,-3.0986,-3.1394,-3.1869,-3.2074,-3.2989,-3.3822,-3.4027,-3.4691,-3.5213,-3.5213,-3.5359,-3.5504,-3.5504,-3.5504,-3.5554,-3.5638,-3.5688,-3.5816,-3.607,-3.6133,-3.6274,-3.6414,-3.6492,-3.6492,-3.6492,-3.5876,-3.5183,-3.4506,-3.4321,-3.3906,-3.3183,-3.369,-3.3798,-3.3413,-3.2736,-3.2475,-3.2628,-3.2475,-3.2398,-3.2398,-3.2398,-3.2398,-2.0493,-1.985,-1.9153,-1.9622,-1.9968,-2.0229,0.0,0.0,0.0,0.0,0.0,0.0,0.0,0.0,0.0,0.0,-2.4166,0.0,0.0,0.0,0.0,0.0,0.0,0.0,0.0,0.0,0.0,0.0,0.0,0.0,0.0,-3.1156,-3.0986,-3.0986,-3.0986,-3.0986,-3.0986,-3.0986,-3.0986,-3.0986,-3.0986,-3.0986,-3.0986,-3.0986,-3.0986,0.0,0.0,0.0,-3.0986,-3.0986,-3.0986,-3.0986,-3.0986,-3.1185,-3.1502,-3.1163,-3.1243,-3.1502,-3.1163,-3.107,-3.1017,-3.0698,-3.1365,-3.222,-3.2179,-3.1826,-3.1478,-3.1523,-3.1529,-3.1529,-3.1529,-3.2028,-3.272,-3.3059,-3.3754,-3.438,-3.4758,-3.5198,-3.5504,-3.5504,-3.5504,-3.5504,-3.5604,-3.5604,-3.5653,-3.5831,-3.5879,-3.6006,-3.6211,-3.6274,-3.6352,-3.6492,-3.6492,-3.6492,-3.6492,-3.6153,-3.566,-3.4983,-3.4937,-3.4629,-3.3921,-3.4275,-3.4137,-3.3413,-3.3044,-3.2705,-3.2398,-3.2398,-3.2398,-3.2398,-3.2398,-3.2398,-2.1511,-2.1259,-2.081,-2.091,-2.135,-2.1709,0.0,0.0,0.0,0.0,0.0,0.0,0.0,0.0,0.0,0.0,0.0,0.0,0.0,0.0,0.0,0.0,0.0,0.0,0.0,0.0,0.0,0.0,0.0,0.0,0.0,-3.0986,-3.0986,-3.0986,-3.0986,-3.0986,-3.0986,-3.0986,-3.0986,-3.0986,-3.0986,-3.0986,-3.0986,-3.0895,-3.0895,0.0,0.0,0.0,-3.0856,-3.0856,-3.0878,-3.0861,-3.0861,-3.1349,-3.1891,-3.126,-3.1436,-3.2027,-3.1605,-3.1414,-3.1346,-3.1441,-3.2028,-3.2744,-3.3267,-3.3353,-3.3213,-3.2635,-3.2362,-3.229,-3.229,-3.2791,-3.3561,-3.4177,-3.438,-3.4677,-3.5359,-3.5504,-3.5504,-3.5504,-3.5504,-3.5554,-3.5688,-3.5752,-3.5831,-3.6022,-3.6148,-3.6211,-3.6274,-3.6414,-3.6492,-3.6492,-3.6492,-3.6492,-3.6492,-3.6492,-3.6245,-3.5676,-3.563,-3.5383,-3.4799,-3.4583,-3.4198,-3.3583,-3.3352,-3.2967,-3.2398,-3.249,-3.2552,-3.2552,-3.2659,-3.2705,-2.3408,-2.3589,-2.3388,-2.2675,-2.2948,-2.3382,-2.3689,0.0,0.0,0.0,0.0,0.0,0.0,0.0,0.0,0.0,0.0,0.0,0.0,0.0,0.0,0.0,0.0,0.0,0.0,0.0,0.0,0.0,0.0,0.0,0.0,-3.0986,-3.0986,-3.0986,-3.0986,-3.0986,-3.0986,-3.0986,-3.0986,-3.0986,-3.0986,-3.0986,-3.096,-3.049,-3.0529,0.0,0.0,-3.0268,-3.0268,-3.0268,-3.0328,-3.0427,-3.0427,-3.0815,-3.1318,-3.0651,-3.1185,-3.2222,-3.2723,-3.2528,-3.211,-3.2695,-3.3419,-3.4047,-3.4148,-3.4095,-3.4109,-3.3959,-3.3478,-3.3003,-3.3003,-3.3561,-3.4177,-3.4245,-3.4824,-3.5359,-3.5504,-3.5504,-3.5504,-3.5504,-3.5604,-3.5703,-3.5688,-3.5831,-3.6022,-3.6148,-3.6211,-3.6274,-3.6414,-3.6492,-3.6492,-3.6492,-3.6492,-3.6492,-3.6492,-3.6492,-3.6445,-3.6338,-3.6338,-3.6292,-3.6184,-3.5076,-3.4429,-3.4306,-3.3152,-3.249,-3.2398,-3.2967,-3.3244,-3.326,-3.3875,-3.4152,-2.4402,-2.4999,-2.5398,-2.5355,-2.5209,-2.5047,-2.5188,0.0,0.0,0.0,0.0,0.0,0.0,0.0,0.0,0.0,0.0,0.0,0.0,0.0,0.0,0.0,0.0,0.0,0.0,0.0,0.0,0.0,0.0,0.0,0.0,0.0,-3.0385,-3.0072,-3.066,-3.0686,-3.0072,-3.0712,-3.0857,-3.0516,-3.0215,-3.0059,-3.0045,-2.9797,-3.0026,-3.061,0.0,-3.0408,-3.0744,-3.0744,-3.0774,-3.0841,-3.1226,-3.1758,-3.2468,-3.2461,-3.2628,-3.283,-3.2774,-3.3024,-3.3325,-3.3364,-3.3833,-3.4499,-3.4868,-3.472,-3.4499,-3.4868,-3.4409,-3.3754,-3.3754,-3.4341,-3.4986,-3.4986,-3.5213,-3.5504,-3.5504,-3.5504,-3.5504,-3.5504,-3.5589,-3.5752,-3.5831,-3.6022,-3.6148,-3.6352,-3.6352,-3.6414,-3.6492,-3.6492,-3.6492,-3.6492,-3.6492,-3.6492,-3.6492,-3.6492,-3.6492,-3.6492,-3.6492,-3.6492,-3.6492,-3.5183,-3.4645,-3.5014,-3.3644,-3.3136,-3.3521,-3.3829,-3.3983,-3.3983,-3.4321,-3.4475,-2.5274,-2.603,-2.6693,-2.7244,0.0,-2.6359,-2.6541,0.0,0.0,0.0,0.0,0.0,0.0,0.0,0.0,0.0,0.0,0.0,0.0,0.0,0.0,0.0,0.0,0.0,0.0,0.0,0.0,0.0,0.0,0.0,0.0,0.0,-2.9804,-2.957,-3.0401,-3.0513,-2.9754,-3.0566,-3.0656,-3.0145,-3.0029,-3.0011,-3.0011,-3.0011,-3.0357,-3.0952,-3.0815,-3.1088,-3.1531,-3.1531,-3.158,-3.1627,-3.2093,-3.2625,-3.3253,-3.4076,-3.3849,-3.3158,-3.3116,-3.3599,-3.4098,-3.3856,-3.3987,-3.4367,-3.5055,-3.4906,-3.4622,-3.531,-3.5067,-3.461,-3.461,-3.5052,-3.5504,-3.5504,-3.5504,-3.5504,-3.5504,-3.5504,-3.5504,-3.5504,-3.5668,-3.5831,-3.5973,-3.6148,-3.6336,-3.6492,-3.6492,-3.6492,-3.6492,-3.6492,-3.6492,-3.6492,-3.6492,-3.6492,-3.6492,-3.6492,-3.6492,-3.6492,-3.6492,-3.6492,-3.6492,-3.5337,-3.4953,-3.5476,-3.4275,-3.3921,-3.4475,-3.4629,-3.4706,-3.4722,-3.4876,-3.4953,-2.6185,-2.6445,-2.661,-2.7138,0.0,0.0,-2.796,-2.7698,0.0,0.0,0.0,0.0,0.0,0.0,0.0,0.0,0.0,0.0,0.0,0.0,0.0,0.0,0.0,0.0,0.0,0.0,0.0,0.0,0.0,0.0,0.0,0.0,0.0,-3.0227,-3.0308,-3.0638,-3.1121,-3.0671,-3.037,-3.0294,-3.1461,-3.1971,-3.1971,-3.2108,-3.2484,-3.2989,-3.2483,-3.2312,-3.2312,-3.2312,-3.2359,-3.2425,-3.2469,-3.2483,-3.2698,-3.4025,-3.3657,-3.28,-3.4658,-3.4509,-3.3662,-3.423,-3.4068,-3.3694,-3.4352,-3.4517,-3.4622,-3.531,-3.5439,-3.5424,-3.5424,-3.5439,-3.5504,-3.5504,-3.5504,-3.5504,-3.5504,-3.5504,-3.5504,-3.5504,-3.5733,-3.5973,-3.5973,-3.6304,-3.6492,-3.6492,-3.6492,-3.6492,-3.6492,-3.6492,-3.6492,-3.6492,-3.6492,-3.6492,-3.6492,-3.6492,-3.6492,-3.6492,-3.6492,-3.6492,-3.6492,-3.5799,-3.543,-3.5476,-3.4768,-3.4429,-3.4475,-3.5106,-3.5414,-3.5414,-3.6061,-3.6353,-2.6362,-2.7021,-2.7603,-2.7777,0.0,0.0,0.0,0.0,0.0,0.0,0.0,0.0,0.0,0.0,0.0,0.0,0.0,0.0,0.0,0.0,0.0,0.0,0.0,0.0,0.0,0.0,0.0,0.0,0.0,0.0,0.0,0.0,0.0,-2.9799,-3.0533,-3.0693,-3.0171,-3.1155,-3.1433,-3.1069,-3.1101,-3.1345,-3.1805,-3.1805,-3.2198,-3.2729,-3.2551,-3.2724,-3.3059,-3.3059,-3.3118,-3.3129,-3.3606,-3.4021,-3.4421,-3.4946,-3.4807,-3.4406,-3.4767,-3.4532,-3.4083,-3.3918,-3.3709,-3.3619,-3.4277,-3.4472,-3.4532,-3.4801,-3.5175,-3.5504,-3.5504,-3.5504,-3.5504,-3.5504,-3.5504,-3.5504,-3.5504,-3.5554,-3.5653,-3.5653,-3.591,-3.6148,-3.6148,-3.6352,-3.6492,-3.6492,-3.6492,-3.6492,-3.6492,-3.6492,-3.6492,-3.6492,-3.6492,-3.6492,-3.6492,-3.6492,-3.6492,-3.6492,-3.6492,-3.6492,-3.6492,-3.5845,-3.5691,-3.6107,-3.5445,-3.5306,-3.5722,-3.5984,-3.6107,-3.6122,-3.6368,-3.6492,-2.6857,-2.7603,-2.8259,0.0,0.0,0.0,0.0,0.0,0.0,0.0,0.0,0.0,0.0,0.0,0.0,0.0,0.0,0.0,0.0,0.0,0.0,0.0,0.0,0.0,0.0,0.0,0.0,0.0,0.0,0.0,0.0,0.0,0.0,0.0,-3.0602,-3.0771,-3.0147,-3.1471,-3.1991,-3.1789,-3.1344,-3.1588,-3.2486,-3.2702,-3.2985,-3.3436,-3.3436,-3.372,-3.4128,-3.4128,-3.4128,-3.4173,-3.4622,-3.51,-3.5474,-3.5265,-3.5175,-3.5085,-3.4397,-3.4038,-3.3814,-3.3574,-3.3215,-3.3036,-3.3903,-3.4023,-3.3948,-3.4352,-3.4666,-3.4921,-3.513,-3.534,-3.5444,-3.5235,-3.5404,-3.5539,-3.5539,-3.5718,-3.5767,-3.5767,-3.6006,-3.6196,-3.6196,-3.6352,-3.6492,-3.6492,-3.6492,-3.6492,-3.6492,-3.6492,-3.6492,-3.6492,-3.6492,-3.6492,-3.6492,-3.6492,-3.6492,-3.6492,-3.6492,-3.6492,-3.6492,-3.6045,-3.6014,-3.6476,-3.6045,-3.603,-3.6492,-3.6492,-3.6616,-3.6785,-3.6785,-3.6892,-2.7914,-2.8179,-2.8327,0.0,0.0,0.0,0.0,0.0,0.0,0.0,0.0,0.0,0.0,0.0,0.0,0.0,0.0,0.0,0.0,0.0,0.0,0.0,0.0,0.0,0.0,0.0,0.0,0.0,0.0,0.0,0.0,0.0,0.0,0.0,-3.0524,-3.0837,-3.1482,-3.1482,-3.1869,-3.2512,-3.2527,-3.3215,-3.4502,-3.519,-3.5489,-3.5504,-3.5504,-3.5504,-3.5504,-3.5504,-3.5504,-3.5504,-3.5489,-3.5489,-3.5415,-3.4726,-3.4472,-3.4367,-3.3709,-3.3066,-3.2617,-3.326,-3.2602,-3.1735,-3.3095,-3.3036,-3.2796,-3.4098,-3.3993,-3.3649,-3.4277,-3.4966,-3.531,-3.4637,-3.5078,-3.5672,-3.5688,-3.5831,-3.5973,-3.5973,-3.6085,-3.6196,-3.6196,-3.6352,-3.6492,-3.6492,-3.6492,-3.6492,-3.6492,-3.6492,-3.6492,-3.6492,-3.6492,-3.6492,-3.6492,-3.6492,-3.6492,-3.6492,-3.6492,-3.6492,-3.6492,-3.6492,-3.6492,-3.6492,-3.6492,-3.6492,-3.6492,-3.6492,-3.6846,-3.7417,-3.7417,-3.7796,-2.7926,-2.8474,0.0,0.0,0.0,0.0,0.0,0.0,0.0,0.0,0.0,0.0,0.0,0.0,0.0,0.0,0.0,0.0,0.0,0.0,0.0,0.0,0.0,0.0,0.0,0.0,0.0,0.0,0.0,0.0,0.0,0.0,0.0,0.0,-3.1219,-3.1278,-3.1482,-3.1988,-3.2317,-3.2527,-3.2976,-3.3649,-3.4487,-3.4696,-3.504,-3.5504,-3.5504,-3.5504,-3.5504,-3.5504,-3.5504,-3.5459,-3.4966,-3.4786,-3.4696,-3.4023,-3.3784,-3.3694,-3.3036,-3.2677,-3.2467,-3.2198,-3.2153,-3.2302,-3.2691,-3.2991,-3.3185,-3.311,-3.329,-3.332,-3.2602,-3.3291,-3.4267,-3.4475,-3.4685,-3.5003,-3.5597,-3.5831,-3.6037,-3.6148,-3.6289,-3.6414,-3.6414,-3.6492,-3.6492,-3.6492,-3.6492,-3.6492,-3.6492,-3.6492,-3.6492,-3.6492,-3.6492,-3.6492,-3.6492,-3.6492,-3.6492,-3.6492,-3.6492,-3.6492,-3.6492,-3.6492,-3.6723,-3.7118,-3.7118,-3.7342,-3.778,-3.778,-3.7895,-3.8181,-3.8181,-3.8294,-2.9045,0.0,0.0,0.0,0.0,0.0,0.0,0.0,0.0,0.0,0.0,0.0,0.0,0.0,0.0,0.0,0.0,0.0,0.0,0.0,0.0,0.0,0.0,0.0,0.0,0.0,0.0,0.0,0.0,0.0,0.0,0.0,0.0,0.0,-3.1482,-3.1482,-3.1482,-3.1928,-3.2123,-3.2138,-3.2527,-3.3066,-3.3709,-3.3963,-3.4307,-3.4711,-3.4711,-3.4711,-3.4711,-3.4711,-3.4711,-3.4666,-3.4247,-3.4083,-3.4008,-3.335,-3.3095,-3.3021,-3.2362,-3.2123,-3.2093,-3.1958,-3.2018,-3.2168,-3.2437,-3.2617,-3.2691,-3.2557,-3.2676,-3.2661,-3.2107,-3.2479,-3.323,-3.3997,-3.4542,-3.4951,-3.5743,-3.6085,-3.6226,-3.6274,-3.6414,-3.6492,-3.6492,-3.6492,-3.6492,-3.6492,-3.6492,-3.6492,-3.6492,-3.6492,-3.6492,-3.6492,-3.6492,-3.6492,-3.6492,-3.6723,-3.6831,-3.6831,-3.7058,-3.7222,-3.7222,-3.6997,-3.7118,-3.7738,-3.7738,-3.7969,-3.8278,-3.8278,-3.8446,-3.8794,-3.8794,-3.8957,0.0,0.0,0.0,0.0,0.0,0.0,0.0,0.0,0.0,0.0,0.0,0.0,0.0,0.0,0.0,0.0,0.0,0.0,0.0,0.0,0.0,0.0,0.0,0.0,0.0,0.0,0.0,0.0,0.0,0.0,0.0,0.0,0.0,-3.1377,-3.1377,-3.1377,-3.1377,-3.1377,-3.1422,0.0,-3.1407,-3.1779,-3.2452,-3.3095,-3.344,-3.3499,-3.3499,-3.3499,-3.3499,-3.3499,-3.3499,-3.3484,-3.3425,-3.341,-3.332,-3.2662,-3.2422,-3.2332,-3.1676,-3.1482,-3.1571,-3.2228,-3.2018,-3.1586,-3.2243,-3.2003,-3.1659,-3.2258,-3.212,-3.192,-3.2477,-3.2322,-3.2315,-3.3486,-3.441,-3.5233,-3.6027,-3.6305,-3.6415,-3.6476,-3.6492,-3.6492,-3.6492,-3.6492,-3.6492,-3.6492,-3.6492,-3.6492,-3.6492,-3.6492,-3.6492,-3.6554,-3.66,-3.66,-3.6662,-3.7178,-3.746,-3.746,-3.801,-3.8334,-3.839,-3.7796,-3.7796,-3.839,-3.839,-3.8446,-3.8502,-3.8502,-3.8794,-3.9365,-3.9365,-3.9696,0.0,-3.0735,0.0,0.0,0.0,0.0,0.0,0.0,0.0,0.0,0.0,0.0,0.0,0.0,0.0,0.0,0.0,0.0,0.0,0.0,0.0,0.0,0.0,0.0,0.0,0.0,0.0,0.0,0.0,0.0,0.0,0.0,0.0,-3.0746,-3.0731,-3.0731,-3.0731,-3.0731,-3.1001,0.0,-3.0986,-3.1091,-3.1764,-3.2422,-3.3006,-3.3499,-3.3499,-3.3499,-3.3499,-3.3499,-3.3499,-3.344,-3.2931,-3.2721,-3.2647,-3.1988,-3.1749,-3.1661,-3.1526,-3.1482,-3.1497,-3.1704,-3.1644,-3.1497,-3.1646,-3.1717,-3.1757,-3.1892,-3.1947,-3.197,-3.2107,-3.2144,-3.2348,-3.3115,-3.3419,-3.3998,-3.5844,-3.5798,-3.5707,-3.6384,-3.6492,-3.6492,-3.6492,-3.6492,-3.6492,-3.6492,-3.6492,-3.6492,-3.6492,-3.6492,-3.6662,-3.7178,-3.7178,-3.7401,-3.7895,-3.801,-3.8124,-3.8124,-3.8238,-3.8557,-3.9156,-3.8502,-3.8446,-3.9156,-3.9156,-3.9437,-4.0037,-4.0037,-4.0154,-4.0387,-4.0387,-4.0485,0.0,0.0,0.0,0.0,0.0,0.0,0.0,0.0,0.0,0.0,0.0,0.0,0.0,0.0,0.0,0.0,0.0,0.0,0.0,0.0,0.0,0.0,0.0,0.0,0.0,0.0,0.0,0.0,0.0,0.0,0.0,-3.1482,-3.1317,-3.1001,-3.0672,-3.0657,-3.1001,-3.0372,-3.0387,-3.1031,-3.0372,-3.0253,-3.0627,-3.1599,-3.2048,-3.2078,-3.2407,-3.2557,-3.2557,-3.2557,-3.2557,-3.2527,-3.2183,-3.2048,-3.2003,-3.1601,-3.1482,-3.1482,-3.1482,-3.1482,-3.1482,-3.1482,-3.1482,-3.1482,-3.1482,-3.1597,-3.167,-3.1784,-3.1898,-3.1996,-3.2094,-3.2206,-3.2456,-3.3146,-3.3242,-3.3566,-3.5078,-3.5355,-3.5447,-3.5938,-3.6261,-3.6492,-3.6492,-3.6492,-3.6492,-3.6492,-3.6723,-3.6952,-3.6952,-3.7163,-3.7504,-3.7796,-3.7854,-3.7953,-3.8278,-3.8574,-3.8739,-3.8739,-3.9065,-3.9454,-3.9833,-3.9542,-3.9542,-3.9935,-3.9935,-4.0104,-4.0387,-4.0485,-4.0485,-4.0502,-4.0583,-4.0583,0.0,0.0,0.0,0.0,0.0,0.0,0.0,0.0,0.0,0.0,0.0,0.0,0.0,0.0,0.0,0.0,0.0,0.0,0.0,0.0,0.0,0.0,0.0,0.0,0.0,0.0,0.0,0.0,0.0,0.0,-3.1482,-3.1482,-3.1422,-3.1302,-3.0702,-3.0612,-3.1195,-3.0013,-2.9729,-3.0342,-2.9939,-2.9564,-2.928,-3.0702,-3.1046,-3.0537,-3.1106,-3.1362,-3.1482,-3.1482,-3.1407,-3.136,-3.1422,-3.1407,-3.1317,-3.1437,-3.1482,-3.1482,-3.1482,-3.1482,-3.1482,-3.1482,-3.1482,-3.1539,-3.1539,-3.1597,-3.1655,-3.1841,-3.194,-3.2094,-3.2191,-3.2342,-3.2536,-3.3106,-3.3229,-3.346,-3.4291,-3.4814,-3.5199,-3.543,-3.603,-3.6554,-3.6662,-3.6677,-3.6662,-3.6769,-3.7238,-3.7578,-3.7578,-3.801,-3.8334,-3.8446,-3.8463,-3.8518,-3.8613,-3.9082,-3.9365,-3.9365,-3.9851,-4.015,-4.015,-4.028,-4.0329,-4.0377,-4.0466,-4.0485,-4.0387,-4.0534,-4.0534,-4.0404,-4.0534,-4.0583,0.0,0.0,0.0,0.0,0.0,0.0,0.0,0.0,0.0,0.0,0.0,0.0,0.0,0.0,0.0,0.0,0.0,0.0,0.0,0.0,0.0,0.0,0.0,0.0,0.0,0.0,0.0,0.0,0.0,0.0,-3.1482,-3.1482,-3.1255,-3.0657,-3.0028,-2.9744,-2.9849,-2.9101,-2.9071,-2.9714,-3.0163,-2.949,-2.7955,-2.9789,-3.0597,-3.0507,-3.0597,-3.0986,-3.1482,-3.1482,-3.118,-3.0702,-3.1243,-3.1165,-3.0717,-3.1315,-3.1482,-3.1482,-3.1482,-3.1482,-3.1482,-3.1482,-3.1482,-3.1539,-3.1727,-3.1841,-3.194,-3.2094,-3.2247,-3.2342,-3.2342,-3.2398,-3.2413,-3.2505,-3.2521,-3.2875,-3.4198,-3.406,-3.4044,-3.5245,-3.603,-3.6662,-3.7178,-3.7298,-3.746,-3.801,-3.8124,-3.8181,-3.8181,-3.8238,-3.8518,-3.9028,-3.9082,-3.9295,-3.9799,-4.002,-4.0138,-4.0138,-3.9742,-3.9576,-3.9572,-3.962,-3.9667,-3.9807,-4.0384,-4.0745,-4.084,-4.084,-4.084,-4.084,-4.084,-4.0823,0.0,0.0,0.0,0.0,0.0,0.0,0.0,0.0,0.0,0.0,0.0,0.0,0.0,0.0,0.0,0.0,0.0,0.0,0.0,0.0,0.0,0.0,0.0,0.0,0.0,0.0,0.0,0.0,0.0,-3.1482,-3.1482,-3.1482,-3.121,-3.0522,-2.9909,-2.9579,-2.9579,-2.8936,-2.8742,-2.9026,-2.931,-2.8786,-2.7655,-2.8472,-2.9071,-2.946,-2.9819,-3.0163,-3.0462,-3.0806,-3.0567,-3.0088,-3.1135,-3.1106,-3.0582,-3.1285,-3.1482,-3.1482,-3.1482,-3.1482,-3.1482,-3.1482,-3.1482,-3.1539,-3.1727,-3.1841,-3.194,-3.215,-3.2247,-3.2302,-3.2398,-3.2398,-3.2398,-3.2398,-3.2398,-3.2567,-3.3183,-3.3352,-3.3929,-3.5658,-3.681,-3.7435,-3.7342,-3.7655,-3.7825,-3.7704,-3.8313,-3.8794,-3.8794,-3.9119,-3.9401,-3.9696,-3.9696,-3.985,-4.0188,-4.0255,-4.0167,-3.9808,-3.9593,-3.9294,-3.8883,-3.9336,-3.9652,-3.9698,-4.0427,-4.0793,-4.0793,-4.0871,-4.0888,-4.0793,-4.0888,-4.0888,0.0,0.0,0.0,0.0,0.0,0.0,0.0,0.0,0.0,0.0,0.0,0.0,0.0,0.0,0.0,0.0,0.0,0.0,0.0,0.0,0.0,0.0,0.0,0.0,0.0,0.0,0.0,0.0,0.0,-3.1465,-3.1285,-3.127,-3.0971,-3.0298,-2.9669,-2.9415,-2.9579,-2.8936,-2.8502,-2.8338,-2.8517,-2.8233,-2.7625,-2.7754,-2.8008,-2.8368,-2.9041,-2.943,-2.9609,-3.0088,-2.9909,-2.946,-3.0761,-3.0866,-3.0372,-3.1225,-3.1482,-3.1482,-3.1482,-3.1482,-3.1482,-3.1482,-3.1539,-3.1597,-3.1784,-3.1898,-3.194,-3.2191,-3.2247,-3.2287,-3.2398,-3.2398,-3.2398,-3.2398,-3.2398,-3.2499,-3.2819,-3.3392,-3.4457,-3.6292,-3.7383,-3.7961,-3.7731,-3.8013,-3.8117,-3.7703,-3.8672,-3.9285,-3.8935,-3.9463,-3.985,-3.985,-3.973,-3.9746,-4.0048,-3.9944,-3.9634,-3.9166,-3.9037,-3.8751,-3.8201,-3.898,-3.9422,-3.9422,-4.0371,-4.084,-4.0745,-4.084,-4.084,-4.0745,-4.0823,-4.0888,0.0,0.0,0.0,0.0,0.0,0.0,0.0,0.0,0.0,0.0,0.0,0.0,0.0,0.0,0.0,0.0,0.0,0.0,0.0,0.0,0.0,0.0,0.0,0.0,0.0,0.0,0.0,0.0,0.0,-3.124,-3.0597,-3.0552,-3.0268,-2.9654,-2.8996,-2.8951,-2.9579,-2.8936,-2.8263,-2.7685,-2.8293,-2.8233,-2.764,-2.8248,-2.8203,-2.7715,-2.8353,-2.9011,-2.9579,-2.9609,-2.925,-2.8786,-3.0058,-3.0178,-2.9789,-3.1061,-3.1482,-3.1482,-3.1482,-3.1482,-3.1482,-3.1482,-3.1597,-3.1784,-3.194,-3.2094,-3.2191,-3.2342,-3.2398,-3.2398,-3.2398,-3.2398,-3.2398,-3.2398,-3.2398,-3.2717,-3.3943,-3.4778,-3.5657,-3.697,-3.7274,-3.7666,-3.8863,-3.854,-3.8301,-3.884,-3.9547,-3.953,-3.8145,-3.873,-3.9268,-3.9268,-3.8683,-3.8623,-3.9375,-3.887,-3.8471,-3.8437,-3.7902,-3.7577,-3.7542,-3.8249,-3.8646,-3.8646,-4.0112,-4.0888,-4.0888,-4.0888,-4.0888,-4.0888,-4.0888,-4.0888,0.0,0.0,0.0,0.0,0.0,0.0,0.0,0.0,0.0,0.0,0.0,0.0,0.0,0.0,0.0,0.0,0.0,0.0,0.0,0.0,0.0,0.0,0.0,0.0,0.0,0.0,0.0,0.0,0.0,0.0,-3.118,-3.1165,-3.0672,-2.9609,-2.9355,-2.9146,-2.8951,-2.8727,-2.8472,-2.8233,-2.8576,-2.8387,-2.774,-2.8062,-2.8082,-2.7871,-2.8112,-2.8237,-2.8353,-2.9235,-2.919,-2.8771,-3.0492,-3.0761,-3.0283,-3.1195,-3.1482,-3.1482,-3.1482,-3.1597,-3.167,-3.167,-3.1784,-3.194,-3.2094,-3.2135,-3.2247,-3.2342,-3.2398,-3.2398,-3.2398,-3.2398,-3.2492,-3.2841,-3.3161,-3.377,-3.5112,-3.5948,-3.6656,-3.7058,-3.7798,-3.8387,-3.8338,-3.8153,-3.7849,-3.7652,-3.821,-3.8667,-3.8616,-3.8933,-3.9338,-3.9747,-3.9234,-3.8942,-3.9231,-3.8675,-3.8117,-3.7727,-3.7585,-3.7249,-3.6749,-3.7922,-3.8594,-3.8594,-4.0095,-4.0888,-4.0888,-4.0888,-4.0888,-4.0888,-4.0888,-4.0888,0.0,0.0,0.0,0.0,0.0,0.0,0.0,0.0,0.0,0.0,0.0,0.0,0.0,0.0,0.0,0.0,0.0,0.0,0.0,0.0,0.0,0.0,0.0,0.0,0.0,0.0,0.0,0.0,0.0,0.0,-3.1728,-3.1713,-3.1049,-2.9569,-2.9342,-2.8921,-2.8263,-2.8487,-2.8487,-2.8314,-2.8402,-2.8263,-2.7855,-2.7955,-2.802,-2.802,-2.802,-2.7855,-2.775,-2.8703,-2.8771,-2.8427,-3.0248,-3.0653,-3.0298,-3.1267,-3.1597,-3.1597,-3.1655,-3.1769,-3.1841,-3.1841,-3.194,-3.2094,-3.2191,-3.2247,-3.2302,-3.2398,-3.2398,-3.2437,-3.2641,-3.2803,-3.3002,-3.3407,-3.3869,-3.4513,-3.5414,-3.6207,-3.6871,-3.7286,-3.7881,-3.8176,-3.7939,-3.7702,-3.7347,-3.6857,-3.7432,-3.7889,-3.7872,-3.8455,-3.9044,-3.944,-3.899,-3.8743,-3.8982,-3.8105,-3.7374,-3.6964,-3.7034,-3.6853,-3.6318,-3.7767,-3.8594,-3.8594,-4.0095,-4.0888,-4.0888,-4.0888,-4.0888,-4.0888,-4.0888,-4.0888,0.0,0.0,0.0,0.0,0.0,0.0,0.0,0.0,0.0,0.0,0.0,0.0,0.0,0.0,0.0,0.0,0.0,0.0,0.0,0.0,0.0,0.0,0.0,0.0,0.0,0.0,0.0,0.0,0.0,-3.2898,-3.2269,-3.219,-3.1306,-2.9481,-2.8888,-2.8278,-2.7655,-2.8263,-2.8314,-2.779,-2.779,-2.7855,-2.802,-2.802,-2.802,-2.802,-2.802,-2.7955,-2.784,-2.7985,-2.7886,-2.782,-2.926,-2.9801,-2.9843,-3.1261,-3.1784,-3.1826,-3.194,-3.1981,-3.1966,-3.1981,-3.2094,-3.2191,-3.2247,-3.2342,-3.2453,-3.2437,-3.2453,-3.2547,-3.3093,-3.3614,-3.402,-3.402,-3.4431,-3.4816,-3.4816,-3.5461,-3.6354,-3.7624,-3.728,-3.7009,-3.7736,-3.7246,-3.6755,-3.6785,-3.7381,-3.7313,-3.5842,-3.7138,-3.8213,-3.8282,-3.7823,-3.7767,-3.8508,-3.718,-3.6301,-3.6301,-3.6301,-3.6301,-3.6301,-3.7749,-3.8577,-3.8594,-4.0077,-4.0853,-4.0888,-4.0888,-4.0888,-4.0888,-4.0888,-4.0888,-3.2742,0.0,0.0,0.0,0.0,0.0,0.0,0.0,0.0,0.0,0.0,0.0,0.0,0.0,0.0,0.0,0.0,0.0,0.0,0.0,0.0,0.0,0.0,0.0,0.0,0.0,0.0,0.0,-3.3093,-3.3103,-3.2914,-3.1659,-3.0649,-3.0089,-2.913,-2.8502,-2.8323,-2.8502,-2.8263,-2.7675,-2.784,-2.7955,-2.802,-2.8217,-2.8314,-2.8314,-2.8314,-2.8201,-2.8118,-2.8521,-2.897,-2.9418,-3.0334,-3.097,-3.1384,-3.1804,-3.1637,-3.1288,-3.183,-3.1734,-3.1494,-3.1982,-3.2247,-3.2453,-3.2788,-3.2949,-3.3039,-3.3475,-3.3578,-3.3578,-3.3716,-3.4169,-3.4577,-3.4577,-3.4975,-3.5379,-3.5379,-3.5547,-3.598,-3.6941,-3.6924,-3.684,-3.706,-3.6451,-3.5943,-3.6051,-3.6175,-3.6344,-3.6644,-3.7126,-3.7632,-3.8179,-3.7682,-3.7411,-3.7501,-3.6715,-3.6208,-3.6208,-3.6259,-3.6301,-3.6301,-3.7267,-3.8043,-3.8577,-3.9526,-4.0302,-4.0888,-4.0888,-4.0888,-4.0888,-4.0888,-4.0888,0.0,0.0,0.0,0.0,0.0,0.0,-3.2788,-3.2749,0.0,0.0,0.0,0.0,0.0,0.0,0.0,0.0,0.0,0.0,0.0,0.0,0.0,0.0,0.0,0.0,0.0,0.0,0.0,-3.3594,-3.3783,-3.3935,-3.3935,-3.1871,-3.0729,-3.0694,-2.9037,-2.8173,-2.8173,-2.8173,-2.8015,-2.7675,-2.7905,-2.802,-2.802,-2.8201,-2.8299,-2.8299,-2.8299,-2.8299,-2.833,-2.8629,-2.9093,-2.9644,-3.0365,-3.0867,-3.1162,-3.1217,-3.1013,-3.0738,-3.1189,-3.1267,-3.1285,-3.1966,-3.2382,-3.273,-3.3364,-3.3563,-3.3614,-3.3919,-3.4185,-3.4333,-3.4333,-3.4721,-3.5115,-3.5115,-3.5379,-3.5622,-3.5667,-3.5667,-3.5802,-3.6214,-3.6344,-3.639,-3.639,-3.6061,-3.58,-3.5844,-3.58,-3.5953,-3.659,-3.696,-3.7364,-3.7792,-3.7538,-3.7342,-3.7254,-3.6638,-3.6233,-3.6233,-3.6259,-3.6301,-3.6301,-3.706,-3.768,-3.8112,-3.9163,-4.0095,-4.0888,-4.0888,-4.0888,-4.0888,-4.0888,-4.0888,0.0,0.0,0.0,0.0,0.0,0.0,-3.3407,-3.3303,-3.313,0.0,0.0,0.0,0.0,0.0,0.0,0.0,0.0,0.0,0.0,0.0,0.0,0.0,0.0,0.0,0.0,-3.3866,-3.4201,-3.4201,-3.4577,-3.4733,-3.4651,-3.2434,-3.1148,-3.1148,-2.9008,-2.7866,-2.7866,-2.7831,-2.7836,-2.7875,-2.8005,-2.8005,-2.8005,-2.8235,-2.8268,-2.8317,-2.8365,-2.8429,-2.8541,-2.8618,-2.8808,-2.9118,-2.9852,-3.0075,-3.0046,-3.0204,-3.0195,-3.0237,-3.0433,-3.0744,-3.1209,-3.1985,-3.2574,-3.3032,-3.3859,-3.4086,-3.4086,-3.4185,-3.4529,-3.488,-3.488,-3.5157,-3.5504,-3.5504,-3.5436,-3.5385,-3.5518,-3.5586,-3.5637,-3.5504,-3.5661,-3.5817,-3.5817,-3.5932,-3.6019,-3.6019,-3.6019,-3.6019,-3.6019,-3.6688,-3.7188,-3.7188,-3.7309,-3.7353,-3.7353,-3.6715,-3.6301,-3.6301,-3.6301,-3.6301,-3.6301,-3.6973,-3.7387,-3.7491,-3.8939,-4.0008,-4.0629,-4.0802,-4.0888,-4.0888,-4.0784,-4.075,0.0,0.0,0.0,0.0,0.0,0.0,-3.3869,-3.3818,-3.3657,0.0,0.0,0.0,0.0,0.0,0.0,0.0,0.0,0.0,0.0,0.0,0.0,0.0,0.0,0.0,0.0,-3.4431,-3.4739,-3.4739,-3.4289,-3.3756,-3.3143,-3.1772,-3.0935,-3.0872,-3.0006,-2.9577,-2.9689,-2.9332,-2.8922,-2.8511,-2.8268,-2.8137,-2.8186,-2.8669,-2.8935,-2.8951,-2.9303,-2.9483,-2.9576,-3.0108,-2.9911,-2.9327,-2.95,-2.9884,-3.0324,-3.036,-3.0247,-3.0207,-3.0773,-3.0926,-3.1082,-3.2353,-3.2805,-3.3129,-3.4299,-3.4625,-3.4721,-3.5178,-3.5379,-3.5424,-3.5424,-3.5076,-3.4709,-3.4709,-3.4269,-3.3846,-3.3846,-3.4346,-3.4769,-3.4856,-3.5479,-3.5975,-3.5975,-3.5975,-3.6036,-3.6122,-3.6079,-3.6062,-3.6216,-3.6328,-3.6431,-3.6483,-3.6525,-3.6525,-3.6525,-3.6387,-3.6301,-3.6301,-3.6301,-3.6301,-3.6301,-3.6456,-3.6835,-3.7473,-3.8939,-3.9491,-3.9043,-4.0267,-4.0888,-4.0853,-4.0233,-3.9922,0.0,0.0,0.0,-3.5496,0.0,0.0,0.0,-3.4382,-3.4219,0.0,0.0,0.0,0.0,0.0,0.0,0.0,0.0,0.0,0.0,0.0,0.0,0.0,0.0,0.0,0.0,-3.4195,-3.4187,-3.3822,-3.3789,-3.3475,-3.2729,-3.154,-3.0878,-3.0862,-2.9987,-2.9564,-2.9626,-2.9407,-2.9044,-2.8606,-2.8479,-2.8431,-2.8479,-2.8811,-2.912,-2.9377,-2.9601,-2.975,-2.9826,-3.0182,-3.0012,-2.9612,-2.9959,-3.0306,-3.0574,-3.0211,-3.0259,-3.0478,-3.0432,-3.1027,-3.186,-3.2564,-3.3195,-3.3918,-3.4898,-3.5224,-3.527,-3.5515,-3.5351,-3.5064,-3.5064,-3.4506,-3.3947,-3.3947,-3.3677,-3.3448,-3.3515,-3.4151,-3.4763,-3.4907,-3.5591,-3.6148,-3.6122,-3.6105,-3.6191,-3.6233,-3.6191,-3.6191,-3.6301,-3.6276,-3.6276,-3.6301,-3.6301,-3.6301,-3.6301,-3.6301,-3.6301,-3.6301,-3.6301,-3.6301,-3.6301,-3.6301,-3.668,-3.7456,-3.8215,-3.8594,-3.8594,-3.937,-3.9733,-3.9733,-3.9336,-3.9264,0.0,0.0,0.0,0.0,0.0,-3.6291,0.0,0.0,0.0,0.0,0.0,0.0,0.0,0.0,0.0,0.0,0.0,0.0,0.0,0.0,0.0,0.0,0.0,0.0,0.0,-3.3574,-3.3326,-3.2729,-3.311,-3.311,-3.2514,-3.1417,-3.0803,-3.0803,-2.9878,-2.9393,-2.9393,-2.9319,-2.912,-2.8842,-2.8889,-2.8873,-2.8889,-2.9247,-2.963,-3.0016,-3.0087,-3.019,-3.025,-3.0119,-3.007,-3.0119,-3.047,-3.0606,-3.0542,-3.0004,-3.0238,-3.0733,-3.012,-3.1024,-3.2457,-3.274,-3.3705,-3.4827,-3.5436,-3.5622,-3.5588,-3.5453,-3.4962,-3.4455,-3.432,-3.3744,-3.3186,-3.3186,-3.3085,-3.3049,-3.3196,-3.3891,-3.4555,-3.4874,-3.5535,-3.6104,-3.6174,-3.6276,-3.6301,-3.6301,-3.6301,-3.6301,-3.6301,-3.6301,-3.6301,-3.6301,-3.6301,-3.6301,-3.6301,-3.6301,-3.6301,-3.6301,-3.6301,-3.6301,-3.6301,-3.6301,-3.6636,-3.7361,-3.7517,-3.7854,-3.8391,-3.853,-3.8599,-3.8594,-3.8528,-3.8703,0.0,0.0,0.0,0.0,-3.6219,0.0,0.0,0.0,0.0,0.0,0.0,0.0,0.0,0.0,0.0,0.0,0.0,0.0,0.0,0.0,0.0,0.0,0.0,0.0,0.0,0.0,-3.2779,-3.2696,-3.2183,-3.1835,-3.1752,-3.0955,-3.0558,-3.0558,-3.0434,-3.0384,-3.051,-3.0103,-2.9913,-3.0,-2.9677,-2.9483,-2.956,-3.0751,-3.1325,-3.1411,-3.1792,-3.2015,-3.1965,-3.1325,-3.1015,-3.0992,-3.0195,-2.9923,-2.9907,-2.9826,-3.0103,-3.0534,-3.0452,-3.0857,-3.1584,-3.2883,-3.431,-3.5504,-3.5588,-3.5622,-3.547,-3.481,-3.4556,-3.4336,-3.3694,-3.2983,-3.2408,-3.2408,-3.1964,-3.155,-3.155,-3.2241,-3.3111,-3.39,-3.4621,-3.5383,-3.6155,-3.6301,-3.6301,-3.6301,-3.6301,-3.6301,-3.6301,-3.6301,-3.6301,-3.6301,-3.6301,-3.6301,-3.6301,-3.6301,-3.6301,-3.6301,-3.6301,-3.6301,-3.6301,-3.6301,-3.6485,-3.6961,-3.7662,-3.7915,-3.7625,-3.83,-3.8614,-3.8577,-3.8318,-3.8193,0.0,0.0,0.0,0.0,0.0,0.0,-3.5723,0.0,-3.552,0.0,0.0,0.0,0.0,0.0,0.0,0.0,0.0,0.0,0.0,0.0,0.0,0.0,0.0,0.0,0.0,0.0,0.0,0.0,0.0,-3.1523,-3.1091,-3.0858,-3.0733,-3.0733,-3.0733,-3.0773,-3.0831,-3.0609,-3.0426,-3.0241,-3.0522,-3.0691,-3.0795,-3.1781,-3.239,-3.2647,-3.2377,-3.2313,-3.2222,-3.1495,-3.119,-3.1151,-3.0757,-3.0617,-3.0617,-3.0617,-3.1024,-3.1472,-3.1069,-3.1587,-3.2577,-3.3203,-3.3829,-3.4336,-3.4336,-3.4336,-3.4269,-3.3947,-3.3541,-3.3136,-3.2831,-3.2205,-3.1687,-3.171,-3.1494,-3.1334,-3.1449,-3.2119,-3.2968,-3.3859,-3.4599,-3.538,-3.6163,-3.6301,-3.6301,-3.6301,-3.6301,-3.6301,-3.6301,-3.6301,-3.6301,-3.6301,-3.6301,-3.6301,-3.6301,-3.6301,-3.6301,-3.6301,-3.6301,-3.6409,-3.6638,-3.6638,-3.6821,-3.7246,-3.7583,-3.7658,-3.7505,-3.7826,-3.796,-3.7945,-3.7824,-3.7873,-3.658,0.0,0.0,0.0,0.0,0.0,0.0,0.0,0.0,0.0,0.0,0.0,0.0,0.0,0.0,0.0,0.0,0.0,0.0,0.0,0.0,0.0,0.0,0.0,0.0,0.0,0.0,-3.0593,-3.1108,-3.1233,-3.0725,-3.0773,-3.0871,-3.0912,-3.0912,-3.0912,-3.0912,-3.0912,-3.0773,-3.0452,-3.1222,-3.1656,-3.1791,-3.275,-3.3359,-3.3677,-3.3119,-3.278,-3.2527,-3.1799,-3.1376,-3.119,-3.119,-3.119,-3.119,-3.119,-3.1529,-3.1901,-3.1376,-3.2036,-3.3102,-3.3102,-3.3237,-3.3406,-3.3406,-3.3406,-3.3372,-3.3152,-3.2696,-3.228,-3.2059,-3.1619,-3.1252,-3.1312,-3.1389,-3.1411,-3.1579,-3.208,-3.2844,-3.3904,-3.4525,-3.5197,-3.6146,-3.6301,-3.6301,-3.6301,-3.6301,-3.6301,-3.6301,-3.6301,-3.6301,-3.6301,-3.6301,-3.6301,-3.6301,-3.6301,-3.6343,-3.6451,-3.6557,-3.6741,-3.7055,-3.7038,-3.7228,-3.765,-3.765,-3.7721,-3.7844,-3.7844,-3.7844,-3.7844,-3.7721,-3.7844,0.0,0.0,0.0,-3.6895,0.0,0.0,0.0,0.0,-3.686,0.0,0.0,0.0,0.0,0.0,0.0,0.0,0.0,0.0,0.0,0.0,0.0,0.0,0.0,0.0,0.0,0.0,0.0,-3.0526,-3.0543,-3.0584,-3.0692,-3.0692,-3.079,-3.0912,-3.0912,-3.0912,-3.0912,-3.0912,-3.0912,-3.0871,-3.1715,-3.2092,-3.2143,-3.3736,-3.4455,-3.4455,-3.4438,-3.4015,-3.3322,-3.256,-3.1833,-3.119,-3.119,-3.119,-3.119,-3.119,-3.1207,-3.1224,-3.1207,-3.1681,-3.2364,-3.2364,-3.2814,-3.3406,-3.3406,-3.3406,-3.3254,-3.2527,-3.2347,-3.2144,-3.1494,-3.1312,-3.1351,-3.1462,-3.1521,-3.1579,-3.1617,-3.1726,-3.2283,-3.3783,-3.4111,-3.4594,-3.6042,-3.6301,-3.6301,-3.6301,-3.6301,-3.6301,-3.6301,-3.6301,-3.6301,-3.6301,-3.6301,-3.6301,-3.6301,-3.6301,-3.6451,-3.686,-3.7246,-3.7469,-3.7469,-3.7469,-3.7685,-3.8068,-3.8068,-3.8252,-3.8658,-3.8658,-3.8658,-3.8658,-3.8252,-3.8101,0.0,0.0,-3.69,-3.69,0.0,0.0,0.0,0.0,0.0,0.0,0.0,0.0,0.0,0.0,0.0,0.0,0.0,0.0,0.0,0.0,0.0,0.0,0.0,0.0,0.0,0.0,0.0,-3.0526,-3.0568,-3.0651,0.0,-3.0773,-3.0855,-3.0975,-3.0992,-3.1032,-3.1112,-3.1112,-3.1112,-3.1128,-3.1894,-3.2232,-3.2266,-3.3322,-3.4032,-3.4472,-3.3981,-3.3643,-3.3339,-3.2594,-3.185,-3.119,-3.119,-3.119,-3.119,-3.119,-3.119,-3.119,-3.119,-3.136,-3.1562,-3.1562,-3.1732,-3.1935,-3.1935,-3.1975,-3.1947,-3.167,-3.1681,-3.1708,-3.1363,-3.1351,-3.1445,-3.1559,-3.1579,-3.1617,-3.1709,-3.1763,-3.2248,-3.3783,-3.4093,-3.4559,-3.6042,-3.6301,-3.6301,-3.6301,-3.6301,-3.6301,-3.6301,-3.6301,-3.6301,-3.6301,-3.6301,-3.6409,-3.6678,-3.6939,-3.7152,-3.7283,-3.7414,-3.7614,-3.7879,-3.7913,-3.8101,-3.8483,-3.8483,-3.8546,-3.8707,-3.8707,-3.8707,-3.8707,-3.8546,-3.8483,-3.7339,-3.7339,0.0,-3.7339,-3.7339,0.0,-3.7339,0.0,0.0,0.0,0.0,0.0,0.0,0.0,0.0,0.0,0.0,0.0,0.0,0.0,0.0,0.0,0.0,0.0,0.0,0.0,-3.0526,-3.0651,-3.0692,-3.0733,0.0,0.0,-3.0992,-3.1072,-3.1055,-3.1112,-3.119,-3.119,-3.119,-3.1207,-3.1935,-3.2313,-3.2307,-3.3068,-3.366,-3.4083,-3.3609,-3.3254,-3.2966,-3.2476,-3.185,-3.119,-3.119,-3.119,-3.119,-3.119,-3.119,-3.119,-3.119,-3.119,-3.119,-3.119,-3.119,-3.119,-3.123,-3.1274,-3.1363,-3.1613,-3.1589,-3.153,-3.1769,-3.1688,-3.1576,-3.1634,-3.1671,-3.1709,-3.18,-3.2007,-3.2559,-3.3835,-3.43,-3.4869,-3.6094,-3.6301,-3.6301,-3.6301,-3.6301,-3.6301,-3.6301,-3.6301,-3.6326,-3.6492,-3.6533,-3.6678,-3.7094,-3.7469,-3.7721,-3.7721,-3.7844,-3.8034,-3.8285,-3.8318,-3.8579,-3.9129,-3.8854,-3.8836,-3.9129,-3.8836,-3.8707,-3.8707,-3.8707,-3.8707]}]]